[[{"header":{"parameterUnit":"m.s-1","parameterCategory":1,"la1":30.6,"la2":29.2853,"lo1":-89.7004,"lo2":-87.6739,"dy":0.0162,"dx":0.0183,"nx":112,"ny":82,"refTime":"2023-03-03T18:00:00:Z","depth":0,"parameterNumber":2,"parameterNumberName":"U-component_of_WINDS"},"data":[0.0,0.0,0.0,0.0,0.0,0.0,0.0,0.0,0.0,0.0,0.0,0.0,0.0,0.0,0.0,0.0,0.0,0.0,0.0,0.0,0.0,0.0,0.0,0.0,0.0,0.0,0.0,0.0,0.0,0.0,0.0,0.0,0.0,0.0,0.0,0.0,0.0,0.0,0.0,0.0,0.0,0.0,0.0,0.0,0.0,0.0,0.0,0.0,0.0,0.0,0.0,0.0,0.0,0.0,0.0,0.0,0.0,0.0,0.0,0.0,0.0,0.0,0.0,0.0,0.0,0.0,0.0,0.0,0.0,0.0,0.0,0.0,0.0,0.0,0.0,0.0,0.0,0.0,0.0,0.0,0.0,0.0,0.0,0.0,0.0,0.0,0.0,0.0,0.0,0.0,-3.1265,-3.2063,-3.214,-3.1816,-3.0925,-3.0759,-3.0457,-2.9925,0.0,0.0,0.0,0.0,0.0,0.0,0.0,0.0,0.0,0.0,0.0,0.0,0.0,0.0,0.0,0.0,0.0,0.0,0.0,0.0,0.0,0.0,0.0,0.0,0.0,0.0,0.0,0.0,0.0,0.0,0.0,0.0,0.0,0.0,0.0,0.0,0.0,0.0,0.0,0.0,0.0,0.0,0.0,0.0,0.0,0.0,0.0,0.0,0.0,0.0,0.0,0.0,0.0,0.0,0.0,0.0,0.0,0.0,0.0,0.0,0.0,0.0,0.0,0.0,0.0,0.0,0.0,0.0,0.0,0.0,0.0,0.0,0.0,0.0,0.0,0.0,0.0,0.0,0.0,0.0,0.0,0.0,0.0,0.0,0.0,0.0,0.0,0.0,0.0,0.0,0.0,0.0,0.0,0.0,0.0,0.0,0.0,0.0,0.0,0.0,0.0,0.0,0.0,0.0,-3.0088,-3.0954,-3.1021,-3.0593,-2.9443,-2.8718,-2.849,-2.8883,0.0,0.0,0.0,0.0,0.0,0.0,0.0,0.0,0.0,0.0,0.0,0.0,0.0,0.0,0.0,0.0,0.0,0.0,0.0,0.0,0.0,0.0,0.0,0.0,0.0,0.0,0.0,0.0,0.0,0.0,0.0,0.0,0.0,0.0,0.0,0.0,0.0,0.0,0.0,0.0,0.0,0.0,0.0,0.0,0.0,0.0,0.0,0.0,0.0,0.0,0.0,0.0,0.0,0.0,0.0,0.0,0.0,0.0,0.0,0.0,0.0,0.0,0.0,0.0,0.0,0.0,0.0,0.0,0.0,0.0,0.0,0.0,0.0,0.0,0.0,0.0,0.0,0.0,0.0,0.0,0.0,0.0,0.0,0.0,0.0,0.0,0.0,0.0,0.0,0.0,0.0,0.0,0.0,0.0,0.0,0.0,0.0,0.0,0.0,0.0,0.0,0.0,0.0,-3.0851,-3.1075,-3.1972,-3.1614,-3.0852,-2.9689,-2.8745,-2.8187,-2.8227,-2.8861,0.0,0.0,0.0,0.0,0.0,0.0,0.0,0.0,0.0,0.0,0.0,0.0,0.0,0.0,0.0,0.0,0.0,0.0,0.0,0.0,0.0,0.0,0.0,0.0,0.0,0.0,0.0,0.0,0.0,0.0,0.0,0.0,0.0,0.0,0.0,0.0,0.0,0.0,0.0,0.0,0.0,0.0,0.0,0.0,0.0,0.0,0.0,0.0,0.0,0.0,0.0,0.0,0.0,0.0,0.0,0.0,0.0,0.0,0.0,0.0,0.0,0.0,0.0,0.0,0.0,0.0,0.0,0.0,0.0,0.0,0.0,0.0,0.0,0.0,0.0,0.0,0.0,0.0,0.0,0.0,0.0,0.0,0.0,0.0,0.0,0.0,0.0,0.0,0.0,0.0,0.0,0.0,0.0,0.0,0.0,0.0,0.0,0.0,0.0,0.0,0.0,0.0,-3.1622,-3.1801,-3.1895,-3.1308,-3.0452,-2.9265,-2.8372,-2.769,-2.7214,-2.7191,0.0,0.0,0.0,0.0,0.0,0.0,0.0,0.0,0.0,0.0,0.0,0.0,0.0,0.0,0.0,0.0,0.0,0.0,0.0,0.0,0.0,0.0,0.0,0.0,0.0,0.0,0.0,0.0,0.0,0.0,0.0,0.0,0.0,0.0,0.0,0.0,0.0,0.0,0.0,0.0,0.0,0.0,0.0,0.0,0.0,0.0,0.0,0.0,0.0,0.0,0.0,0.0,0.0,0.0,0.0,0.0,0.0,0.0,0.0,0.0,0.0,0.0,0.0,0.0,0.0,0.0,0.0,0.0,0.0,0.0,0.0,0.0,0.0,0.0,0.0,0.0,0.0,0.0,0.0,0.0,0.0,0.0,0.0,0.0,0.0,0.0,0.0,0.0,0.0,0.0,0.0,0.0,0.0,0.0,0.0,0.0,0.0,0.0,0.0,0.0,0.0,0.0,-3.0657,-3.0764,-2.8577,-2.8297,-2.7763,-2.657,-2.6207,-2.5895,-2.5412,-2.5359,0.0,0.0,0.0,0.0,0.0,0.0,0.0,0.0,0.0,0.0,0.0,0.0,0.0,0.0,0.0,0.0,0.0,0.0,0.0,0.0,0.0,0.0,0.0,0.0,0.0,0.0,0.0,0.0,0.0,0.0,0.0,0.0,0.0,0.0,0.0,0.0,0.0,0.0,0.0,0.0,0.0,0.0,0.0,0.0,0.0,0.0,0.0,0.0,0.0,0.0,0.0,0.0,0.0,0.0,0.0,0.0,0.0,0.0,0.0,0.0,0.0,0.0,0.0,0.0,0.0,0.0,0.0,0.0,0.0,0.0,0.0,0.0,0.0,0.0,0.0,0.0,0.0,0.0,0.0,0.0,0.0,0.0,0.0,0.0,0.0,0.0,0.0,0.0,0.0,0.0,0.0,0.0,0.0,0.0,0.0,0.0,0.0,0.0,0.0,0.0,0.0,0.0,-2.9336,-2.9598,-2.9387,-2.906,-2.8399,-2.7426,-2.6967,-2.6223,-2.5083,0.0,0.0,0.0,0.0,0.0,0.0,0.0,0.0,0.0,0.0,0.0,0.0,0.0,0.0,0.0,0.0,0.0,0.0,0.0,0.0,0.0,0.0,0.0,0.0,0.0,0.0,0.0,0.0,0.0,0.0,0.0,0.0,0.0,0.0,0.0,0.0,0.0,0.0,0.0,0.0,0.0,0.0,0.0,0.0,0.0,0.0,0.0,0.0,0.0,0.0,0.0,0.0,0.0,0.0,0.0,0.0,0.0,0.0,0.0,0.0,0.0,0.0,0.0,0.0,0.0,0.0,0.0,0.0,0.0,0.0,0.0,0.0,0.0,0.0,0.0,0.0,0.0,0.0,0.0,0.0,0.0,0.0,0.0,0.0,0.0,0.0,0.0,0.0,0.0,0.0,0.0,0.0,0.0,0.0,0.0,0.0,0.0,0.0,0.0,0.0,0.0,0.0,-2.8034,-2.8307,-2.8634,-2.9098,-2.8865,-2.8393,-2.7693,-2.7393,-2.6509,-2.4773,0.0,0.0,0.0,0.0,0.0,0.0,0.0,0.0,0.0,0.0,0.0,0.0,0.0,0.0,0.0,0.0,0.0,0.0,0.0,0.0,0.0,0.0,0.0,0.0,0.0,0.0,0.0,0.0,0.0,0.0,0.0,0.0,0.0,0.0,0.0,0.0,0.0,0.0,0.0,0.0,0.0,0.0,0.0,0.0,0.0,0.0,0.0,0.0,0.0,0.0,0.0,0.0,0.0,0.0,0.0,0.0,0.0,0.0,0.0,0.0,0.0,0.0,0.0,0.0,0.0,0.0,0.0,0.0,0.0,0.0,0.0,0.0,0.0,0.0,0.0,0.0,0.0,0.0,0.0,0.0,0.0,0.0,0.0,0.0,0.0,0.0,0.0,0.0,0.0,0.0,0.0,0.0,0.0,0.0,0.0,0.0,0.0,0.0,0.0,0.0,0.0,0.0,-2.6896,-2.7635,-2.7919,-2.6986,-2.7119,-2.7167,-2.69,-2.7129,-2.6393,0.0,0.0,0.0,0.0,0.0,0.0,0.0,0.0,0.0,0.0,0.0,0.0,0.0,0.0,0.0,0.0,0.0,0.0,0.0,0.0,0.0,0.0,0.0,0.0,0.0,0.0,0.0,0.0,0.0,0.0,0.0,0.0,0.0,0.0,0.0,0.0,0.0,0.0,0.0,0.0,0.0,0.0,0.0,0.0,0.0,0.0,0.0,0.0,0.0,0.0,0.0,0.0,0.0,0.0,0.0,0.0,0.0,0.0,0.0,0.0,0.0,0.0,0.0,0.0,0.0,0.0,0.0,0.0,0.0,0.0,0.0,0.0,0.0,0.0,0.0,0.0,0.0,0.0,0.0,0.0,0.0,0.0,0.0,0.0,0.0,0.0,0.0,0.0,0.0,0.0,0.0,0.0,0.0,0.0,0.0,0.0,0.0,0.0,0.0,0.0,0.0,0.0,0.0,-2.5965,-2.6729,-2.7119,-2.6651,-2.6688,-2.6688,-2.6602,-2.6688,-2.5928,-2.4048,0.0,0.0,0.0,0.0,0.0,0.0,0.0,0.0,0.0,0.0,0.0,0.0,0.0,0.0,0.0,0.0,0.0,0.0,0.0,0.0,0.0,0.0,0.0,0.0,0.0,0.0,0.0,0.0,0.0,0.0,0.0,0.0,0.0,0.0,0.0,0.0,0.0,0.0,0.0,0.0,0.0,0.0,0.0,0.0,0.0,0.0,0.0,0.0,0.0,0.0,0.0,0.0,0.0,0.0,0.0,0.0,0.0,0.0,0.0,0.0,0.0,0.0,0.0,0.0,0.0,0.0,0.0,0.0,0.0,0.0,0.0,0.0,0.0,0.0,0.0,0.0,0.0,0.0,0.0,0.0,0.0,0.0,0.0,0.0,0.0,0.0,0.0,0.0,0.0,0.0,0.0,0.0,0.0,0.0,0.0,0.0,0.0,0.0,0.0,0.0,0.0,0.0,-2.4972,-2.5889,-2.6496,-2.6352,-2.6448,-2.6448,-2.6352,-2.6448,-2.5846,-2.4266,0.0,0.0,0.0,0.0,0.0,0.0,0.0,0.0,0.0,0.0,0.0,0.0,0.0,0.0,0.0,0.0,0.0,0.0,0.0,0.0,0.0,0.0,0.0,0.0,0.0,0.0,0.0,0.0,0.0,0.0,0.0,0.0,0.0,0.0,0.0,0.0,0.0,0.0,0.0,0.0,0.0,0.0,0.0,0.0,0.0,0.0,0.0,0.0,0.0,0.0,0.0,0.0,0.0,0.0,0.0,0.0,0.0,0.0,0.0,0.0,0.0,0.0,0.0,0.0,0.0,0.0,0.0,0.0,0.0,0.0,0.0,0.0,0.0,0.0,0.0,0.0,0.0,0.0,0.0,0.0,0.0,0.0,0.0,0.0,0.0,0.0,0.0,0.0,0.0,0.0,0.0,0.0,0.0,0.0,0.0,0.0,0.0,0.0,0.0,0.0,0.0,0.0,-2.4143,-2.5288,-2.61,-2.6052,-2.6304,-2.6352,-2.61,-2.6304,-2.5924,-2.474,0.0,0.0,0.0,0.0,0.0,0.0,0.0,0.0,0.0,0.0,0.0,0.0,0.0,0.0,0.0,0.0,0.0,0.0,0.0,0.0,0.0,0.0,0.0,0.0,0.0,0.0,0.0,0.0,0.0,0.0,0.0,0.0,0.0,0.0,0.0,0.0,0.0,0.0,0.0,0.0,0.0,0.0,0.0,0.0,0.0,0.0,0.0,0.0,0.0,0.0,0.0,0.0,0.0,0.0,0.0,0.0,0.0,0.0,0.0,0.0,-4.6113,-4.562,0.0,0.0,0.0,0.0,0.0,0.0,0.0,0.0,0.0,0.0,0.0,0.0,0.0,0.0,0.0,0.0,0.0,0.0,0.0,0.0,0.0,0.0,0.0,0.0,0.0,0.0,0.0,0.0,0.0,0.0,0.0,0.0,0.0,0.0,0.0,0.0,0.0,0.0,0.0,0.0,-2.4148,-2.5288,-2.6004,-2.583,-2.583,-2.583,-2.5781,-2.583,-2.5447,-2.4519,-2.434,0.0,0.0,0.0,0.0,0.0,0.0,0.0,0.0,0.0,0.0,0.0,0.0,0.0,0.0,0.0,0.0,0.0,0.0,0.0,0.0,0.0,0.0,0.0,0.0,0.0,0.0,0.0,0.0,0.0,0.0,0.0,0.0,0.0,0.0,0.0,0.0,0.0,0.0,0.0,0.0,0.0,0.0,0.0,0.0,0.0,0.0,0.0,0.0,0.0,0.0,0.0,0.0,0.0,0.0,0.0,0.0,0.0,0.0,0.0,-4.6217,-4.5965,0.0,0.0,0.0,0.0,0.0,0.0,0.0,0.0,0.0,0.0,0.0,0.0,0.0,0.0,0.0,0.0,0.0,0.0,0.0,0.0,0.0,0.0,0.0,0.0,0.0,0.0,0.0,0.0,0.0,0.0,0.0,0.0,0.0,0.0,0.0,0.0,0.0,0.0,0.0,0.0,-2.3673,-2.4982,-2.5868,-2.5684,-2.5693,-2.5693,-2.5693,-2.5693,-2.5499,-2.5031,-2.4648,0.0,0.0,0.0,0.0,0.0,0.0,0.0,0.0,0.0,0.0,0.0,0.0,0.0,0.0,0.0,0.0,0.0,0.0,0.0,0.0,0.0,0.0,0.0,0.0,0.0,0.0,0.0,0.0,0.0,0.0,0.0,0.0,0.0,0.0,0.0,0.0,0.0,0.0,0.0,0.0,0.0,0.0,0.0,0.0,0.0,0.0,0.0,0.0,0.0,0.0,0.0,0.0,0.0,-4.6043,-4.6267,-4.615,-4.6175,-4.651,-4.7057,-4.6444,-4.646,-4.6808,-4.5582,0.0,0.0,0.0,0.0,0.0,0.0,0.0,0.0,0.0,0.0,0.0,0.0,0.0,0.0,0.0,0.0,0.0,0.0,0.0,0.0,0.0,0.0,-3.4676,-3.2912,-3.2825,-3.2887,-3.1859,0.0,0.0,0.0,0.0,0.0,0.0,0.0,0.0,0.0,0.0,0.0,-2.3506,-2.4816,-2.583,-2.5908,-2.5908,-2.5908,-2.5908,-2.5908,-2.5908,-2.5908,-2.5226,-2.5,0.0,0.0,0.0,0.0,0.0,0.0,0.0,0.0,0.0,0.0,0.0,0.0,0.0,0.0,0.0,0.0,0.0,0.0,0.0,0.0,0.0,0.0,0.0,0.0,0.0,0.0,0.0,0.0,0.0,0.0,0.0,0.0,-4.343,-4.3142,0.0,0.0,0.0,0.0,0.0,0.0,0.0,0.0,0.0,0.0,0.0,0.0,0.0,-4.3335,-4.4871,-4.5366,-4.5673,-4.591,-4.7136,-4.7404,-4.679,-4.7421,-4.7769,-4.7852,-4.7752,0.0,-4.6874,-4.6692,0.0,0.0,0.0,0.0,0.0,0.0,0.0,0.0,0.0,0.0,0.0,0.0,0.0,0.0,0.0,0.0,0.0,0.0,0.0,0.0,0.0,0.0,-3.4571,-3.3866,-3.3558,-3.3301,-3.2679,-3.1796,-3.1087,-3.0897,-3.0717,-3.008,0.0,0.0,0.0,0.0,0.0,0.0,-2.4857,-2.5684,-2.6445,-2.6807,-2.6846,-2.6846,-2.6846,-2.6846,-2.6846,-2.6846,-2.6738,-2.6533,-2.623,-2.5742,0.0,0.0,0.0,0.0,0.0,0.0,0.0,0.0,0.0,0.0,0.0,0.0,0.0,0.0,0.0,0.0,0.0,0.0,0.0,0.0,0.0,0.0,0.0,0.0,0.0,0.0,0.0,0.0,0.0,-4.3732,-4.3718,-4.3972,-4.3541,-4.311,0.0,0.0,0.0,0.0,0.0,0.0,0.0,0.0,0.0,-4.3497,-4.3706,-4.4192,-4.4917,-4.5941,-4.6442,-4.6505,-4.752,-4.7835,-4.7537,-4.8282,-4.863,-4.8647,-4.9061,-4.9061,-4.863,-4.716,-4.6209,-4.5602,0.0,0.0,0.0,0.0,-4.3697,-4.3451,-4.3389,-4.3114,-4.2754,-4.2412,0.0,0.0,0.0,0.0,0.0,0.0,0.0,-3.7786,-3.7491,-3.6569,-3.55,-3.4385,-3.4181,-3.4086,-3.3543,-3.2961,-3.2172,-3.0933,-3.0861,-3.0439,-2.8731,-2.8363,0.0,0.0,0.0,-2.6408,-2.6388,-2.6576,-2.6807,-2.6992,-2.7012,-2.7012,-2.7012,-2.7012,-2.7012,-2.7012,-2.7012,-2.6934,-2.6748,-2.6328,-2.5771,0.0,0.0,0.0,0.0,0.0,0.0,0.0,0.0,0.0,0.0,0.0,0.0,0.0,0.0,0.0,0.0,0.0,0.0,0.0,0.0,0.0,0.0,0.0,0.0,0.0,0.0,0.0,0.0,-4.3892,-4.3855,-4.4446,-4.3979,-4.3541,0.0,0.0,0.0,0.0,0.0,0.0,-4.4265,-4.4225,-4.4281,-4.4388,-4.4765,-4.5152,-4.5533,-4.6626,-4.7371,-4.7752,-4.8299,-4.8564,-4.858,-4.9144,-4.9392,-4.9425,-4.9972,-5.0066,-4.9745,-4.7898,-4.7135,-4.7017,-4.6118,-4.5923,-4.608,-4.536,-4.497,-4.4772,-4.4511,-4.4288,-4.4078,-4.3641,-4.3369,-4.3166,-4.2716,0.0,0.0,0.0,0.0,-3.8502,-3.7725,-3.692,-3.6027,-3.4732,-3.4561,-3.4568,-3.4029,-3.3676,-3.3065,-3.1539,-3.1496,-3.1276,-2.9802,-2.9692,0.0,-2.893,-2.8291,-2.7889,-2.789,-2.7462,-2.7217,-2.7324,-2.7344,-2.7344,-2.7344,-2.7344,-2.7344,-2.7344,-2.7344,-2.7344,-2.7344,-2.6826,-2.624,-2.5576,0.0,0.0,0.0,0.0,0.0,0.0,0.0,0.0,0.0,0.0,0.0,0.0,0.0,0.0,0.0,0.0,0.0,0.0,0.0,0.0,0.0,0.0,0.0,0.0,0.0,0.0,0.0,0.0,0.0,-4.4293,-4.4179,0.0,0.0,0.0,0.0,-4.3877,-4.4451,-4.479,-4.4669,-4.5438,-4.582,-4.5713,-4.5715,-4.6411,-4.7819,-4.7918,-4.8647,-5.0038,-5.0088,-5.0104,-5.0104,-5.0137,-5.0154,-5.0171,-5.0187,-4.9772,-4.9086,-4.9328,-4.8833,-4.7912,-4.7453,-4.6709,-4.585,-4.583,-4.5433,-4.497,-4.5568,-4.5373,-4.4836,-4.4836,-4.44,-4.3935,-4.3906,-4.3128,0.0,0.0,-4.0101,-3.8096,-3.783,-3.6742,-3.5484,-3.4895,-3.4597,-3.4275,-3.3752,-3.3458,-3.3341,-3.3405,-3.3325,-3.2984,-3.2394,0.0,-3.1996,-3.1009,-2.9914,-2.9187,-2.9194,-2.8304,-2.7783,-2.8184,-2.8223,-2.8223,-2.8223,-2.8223,-2.8223,-2.8223,-2.8223,-2.8223,-2.8223,-2.7432,-2.6963,-2.6914,-2.5654,0.0,0.0,0.0,0.0,0.0,0.0,0.0,0.0,0.0,0.0,0.0,0.0,0.0,0.0,0.0,0.0,0.0,0.0,0.0,0.0,0.0,0.0,0.0,0.0,0.0,0.0,0.0,0.0,-4.4184,-4.4126,0.0,-4.3969,-4.4327,-4.4504,-4.4414,-4.5095,-4.5678,-4.6079,-4.6407,-4.6772,-4.7206,-4.7686,-4.8183,-4.8713,-4.9193,-4.969,-5.022,-5.022,-5.022,-5.0237,-5.0684,-5.076,-5.0566,-5.1026,-5.0883,-5.032,-5.0225,-4.9545,-4.8546,-4.8412,-4.8387,-4.8324,-4.75,-4.7047,-4.6736,-4.6136,-4.574,-4.5532,-4.5532,-4.5387,-4.5213,-4.5213,-4.466,-4.3803,-4.3082,-4.1671,-4.0014,-3.8673,-3.742,-3.6317,-3.5505,-3.4991,-3.4595,-3.4402,-3.433,-3.4282,-3.4366,-3.3788,-3.3224,-3.3044,-3.3272,-3.3348,-3.2995,-3.2287,-3.1825,-3.1823,-3.0866,-2.9964,-2.9398,-2.9313,-2.9059,-2.8344,-2.8291,-2.8291,-2.8291,-2.8291,-2.8291,-2.8291,-2.7744,-2.7305,-2.7021,-2.6299,-2.5625,0.0,0.0,0.0,0.0,0.0,0.0,0.0,0.0,0.0,0.0,0.0,0.0,0.0,0.0,0.0,0.0,0.0,0.0,0.0,0.0,0.0,0.0,0.0,0.0,0.0,0.0,-4.4027,-4.4027,-4.3981,-4.3994,-4.4155,-4.4574,-4.4995,-4.5431,-4.6129,-4.6858,-4.7603,-4.7885,-4.8249,-4.873,-4.9226,-4.9591,-4.9839,-5.0336,-5.0701,-5.0949,-5.0949,-5.0949,-5.0966,-5.1464,-5.1539,-5.1306,-5.1654,-5.1524,-5.1081,-5.0663,-4.9983,-4.9236,-4.9236,-4.9521,-4.9757,-4.8656,-4.8115,-4.7691,-4.6358,-4.588,-4.588,-4.588,-4.588,-4.588,-4.588,-4.5471,-4.4753,-4.3592,-4.2189,-4.0636,-3.8671,-3.7326,-3.6213,-3.55,-3.5078,-3.4775,-3.4775,-3.4775,-3.4775,-3.4775,-3.427,-3.3813,-3.3813,-3.4078,-3.4258,-3.4258,-3.3646,-3.3201,-3.3201,-3.2286,-3.1165,-3.0026,-2.9922,-2.9471,-2.8398,-2.8164,-2.8144,-2.8281,-2.8164,-2.8086,-2.8086,-2.7676,-2.7246,-2.6816,-2.6387,-2.5819,-2.5167,0.0,0.0,0.0,0.0,0.0,0.0,0.0,0.0,0.0,0.0,0.0,0.0,0.0,0.0,0.0,0.0,0.0,0.0,0.0,0.0,0.0,0.0,0.0,-4.4253,-4.4056,-4.3914,-4.3931,-4.3767,-4.3913,-4.4655,-4.4754,-4.5367,-4.6825,-4.762,-4.8365,-4.9127,-4.9856,-5.0253,-5.0286,-5.0286,-5.0618,-5.1348,-5.1348,-5.1696,-5.2409,-5.2409,-5.2409,-5.2409,-5.2409,-5.2373,-5.2338,-5.1977,-5.1524,-5.1043,-5.0663,-5.0253,-4.9876,-4.9876,-4.9876,-4.9836,-4.9107,-4.8434,-4.7649,-4.6358,-4.588,-4.588,-4.588,-4.588,-4.588,-4.588,-4.5549,-4.4843,-4.3412,-4.1616,-3.9636,-3.7862,-3.6351,-3.5175,-3.4884,-3.4835,-3.4775,-3.4775,-3.4775,-3.4775,-3.4775,-3.4775,-3.4775,-3.4775,-3.4775,-3.4775,-3.4775,-3.3918,0.0,-3.325,-3.2336,-3.1268,-3.0078,-2.9964,-2.9503,-2.8388,-2.791,-2.7894,-2.8262,-2.79,-2.7728,-2.7738,-2.7256,-2.6816,-2.6396,-2.5967,-2.5167,-2.4088,0.0,0.0,0.0,0.0,0.0,0.0,0.0,0.0,0.0,0.0,0.0,0.0,0.0,0.0,0.0,0.0,0.0,0.0,0.0,0.0,0.0,0.0,-4.3927,-4.3998,-4.3805,-4.3886,-4.4401,-4.442,-4.4688,-4.5417,-4.598,-4.6676,-4.7636,-4.8382,-4.9359,-5.0618,-5.0901,-5.1231,-5.1761,-5.1794,-5.1877,-5.2111,-5.2111,-5.221,-5.2409,-5.2409,-5.2409,-5.2409,-5.2409,-5.223,-5.1961,-5.1851,-5.1376,-5.0679,-5.0563,-5.0253,-4.9876,-4.9876,-4.9876,-4.9757,-4.8615,-4.7435,-4.6388,-4.6015,-4.588,-4.588,-4.588,-4.588,-4.588,-4.588,-4.579,-4.537,-4.3864,-4.2439,-4.0895,-3.8688,-3.7084,-3.5858,-3.5211,-3.492,-3.4775,-3.4775,-3.4775,-3.4775,-3.4775,-3.4775,-3.4775,-3.4775,-3.4775,-3.4775,-3.4775,-3.4568,-3.4372,-3.4372,-3.4115,-3.3201,-3.1319,-3.0852,-2.9971,-2.8422,-2.791,-2.7894,-2.8262,-2.79,-2.7855,-2.8105,-2.7412,-2.6816,-2.6396,-2.5967,-2.5167,0.0,0.0,0.0,0.0,0.0,0.0,0.0,0.0,0.0,0.0,0.0,0.0,0.0,0.0,0.0,0.0,0.0,0.0,0.0,0.0,0.0,0.0,-4.4373,-4.4341,-4.4657,-4.4334,-4.434,-4.5052,-4.5152,-4.5433,-4.6179,-4.6643,-4.7454,-4.8829,-4.9326,-5.0204,-5.1696,-5.1779,-5.1978,-5.2409,-5.2409,-5.2409,-5.2409,-5.2409,-5.2409,-5.2409,-5.2409,-5.2409,-5.2409,-5.2409,-5.2194,-5.1778,-5.1577,-5.1135,-5.0486,-5.0331,-5.0097,-4.9876,0.0,0.0,0.0,0.0,-4.6814,-4.588,-4.588,-4.588,-4.588,-4.588,-4.588,-4.588,-4.588,-4.588,-4.5627,-4.4461,-4.2967,-4.1327,-3.9594,-3.7863,-3.6296,-3.5551,-3.5258,-3.5051,-3.4823,-3.4775,-3.4775,-3.4775,-3.4775,0.0,-3.4775,-3.4775,-3.4775,-3.4775,-3.4775,-3.4775,-3.4775,-3.4775,-3.4164,-3.2437,-3.1627,-3.0608,-2.9081,-2.8216,0.0,0.0,0.0,-2.7748,-2.7754,-2.7109,0.0,0.0,0.0,-2.5372,-2.4756,-2.4756,0.0,0.0,-2.1012,-1.9985,0.0,0.0,0.0,0.0,0.0,0.0,0.0,0.0,0.0,0.0,0.0,0.0,0.0,0.0,0.0,0.0,-4.4846,-4.5069,-4.5814,-4.5351,-4.5185,-4.5847,-4.5914,-4.6195,-4.6941,-4.7023,-4.7918,-5.0055,-5.022,-5.0817,-5.2175,-5.2359,0.0,0.0,0.0,-5.2409,-5.2409,-5.2409,-5.2409,-5.2409,-5.2409,-5.2409,-5.2409,-5.2409,-5.2194,-5.1851,-5.1434,-5.0968,-5.0563,-5.0175,-4.9955,-4.9797,-4.9797,-4.9365,-4.8641,-4.7379,-4.6491,-4.588,-4.588,0.0,0.0,-4.588,-4.588,-4.588,-4.588,-4.588,-4.5764,-4.5125,-4.3381,-4.1511,-4.0582,-3.87,-3.6821,-3.5936,-3.5667,-3.5473,-3.4944,-3.4775,-3.4775,-3.4775,-3.4775,-3.4775,-3.4775,-3.4775,-3.4775,-3.4775,-3.4775,-3.4775,-3.4775,-3.4775,-3.4372,-3.33,-3.2191,0.0,-2.9964,-2.8563,-2.7894,-2.8262,-2.7949,-2.7539,-2.7109,-2.6738,-2.6348,-2.5908,-2.581,-2.5762,-2.5762,-2.5713,-2.5079,-2.389,-2.2634,-2.1312,0.0,0.0,0.0,0.0,0.0,0.0,0.0,0.0,0.0,0.0,0.0,0.0,0.0,0.0,0.0,-4.4913,-4.5294,-4.5831,-4.6576,-4.656,-4.6527,-4.6659,-4.6676,-4.6974,-4.7719,-4.7785,-4.8465,-5.0088,-5.022,-5.0585,-5.1481,-5.2094,-5.2144,-5.1547,-5.2111,-5.2409,-5.2409,-5.2409,-5.2409,-5.2409,-5.2409,0.0,-5.2409,-5.2409,-5.2338,-5.2266,-5.2178,-5.1709,-5.0968,-5.0892,-5.0182,-4.9107,-4.9107,-4.8682,-4.7988,-4.7206,-4.6491,-4.588,-4.588,-4.588,-4.588,-4.588,-4.588,-4.588,-4.588,-4.588,0.0,-4.5209,-4.4142,-4.2833,-4.1666,-3.986,-3.8097,-3.691,-3.61,-3.5473,-3.4944,-3.4775,-3.4775,-3.4775,-3.4775,-3.4775,-3.4775,-3.4775,-3.4775,-3.4775,-3.4775,-3.4775,-3.4775,-3.4775,-3.4372,-3.33,-3.1878,-3.0745,-2.9943,-2.8563,-2.7894,-2.8262,-2.8223,-2.7988,-2.7559,-2.7513,-2.7434,-2.7295,-2.6611,-2.626,-2.626,-2.5859,-2.5586,-2.5274,-2.2876,-2.1041,0.0,0.0,0.0,0.0,0.0,0.0,0.0,0.0,0.0,0.0,0.0,-4.5213,0.0,0.0,-4.5848,-4.5918,-4.6159,-4.6609,-4.7355,-4.7454,-4.7454,-4.7454,-4.7454,-4.7603,-4.7968,-4.8332,-4.9011,-5.0137,-5.0551,-5.1065,-5.1829,-5.221,-5.2243,-5.1879,-5.2227,-5.2409,-5.2409,-5.2409,-5.2227,-5.1862,-5.1862,-5.168,-5.1297,-5.1297,-5.1374,-5.1562,-5.1562,-5.1271,-5.0778,-5.0586,-5.0081,-4.9325,-4.8641,-4.7988,-4.7336,-4.6653,-4.6194,-4.588,-4.588,-4.588,-4.588,-4.588,-4.588,-4.588,-4.588,-4.588,-4.5835,-4.5595,-4.4029,-4.2436,-4.2071,-4.0223,-3.8129,-3.7072,-3.6502,-3.5947,-3.5004,-3.4775,-3.4775,-3.4775,-3.4775,-3.4775,-3.4775,-3.4775,-3.4775,-3.4775,-3.4775,-3.4775,-3.4775,-3.4775,-3.4568,-3.4066,-3.2822,-3.1918,-3.1593,-2.9881,-2.868,-2.8325,-2.8291,-2.8105,-2.7738,-2.7718,-2.7568,-2.7344,-2.6709,-2.6387,-2.6387,-2.5947,-2.5693,-2.5635,-2.3642,-2.2316,0.0,0.0,0.0,0.0,0.0,0.0,0.0,0.0,-4.501,-4.5123,-4.561,-4.5881,-4.5475,-4.6178,-4.6851,-4.695,-4.7056,-4.7322,-4.7918,-4.8001,-4.8001,-4.8001,-4.8001,-4.8001,-4.8001,-4.868,-4.9409,-5.0154,-5.0866,-5.158,-5.2161,-5.2343,-5.2307,-5.221,-5.2343,-5.2409,-5.2409,-5.2409,-5.2111,-5.1531,-5.1531,-5.1197,-5.0634,-5.0634,-5.0758,-5.1018,-5.0769,-5.0563,-5.0393,-4.9821,-4.9461,-4.9203,-4.7962,-4.7158,-4.6594,-4.5959,-4.5779,-4.5866,-4.5735,-4.5779,-4.588,-4.588,-4.5793,-4.5692,-4.5692,-4.5692,-4.5692,-4.5692,-4.4015,-4.2297,-4.2773,-4.0861,-3.8567,-3.7617,-3.7158,-3.6528,-3.5174,-3.4823,-3.4775,-3.4775,-3.4775,-3.4775,-3.4775,-3.4775,-3.4775,-3.4775,-3.4775,-3.4775,-3.4775,-3.4775,-3.4775,-3.4775,-3.3857,-3.3101,-3.2901,-3.1051,-2.9513,-2.8654,-2.8319,-2.8018,-2.7728,-2.764,-2.7373,-2.7021,-2.6602,-2.6387,-2.6387,-2.5947,-2.5693,-2.5684,-2.4609,-2.3939,-4.3155,-4.3499,-4.4095,-4.4095,-4.4823,-4.5432,0.0,0.0,-4.5274,-4.5348,-4.5341,-4.5492,-4.6086,-4.6591,-4.695,-4.713,-4.7568,-4.7918,-4.7984,-4.8001,-4.8001,-4.8001,-4.8001,-4.8001,-4.8001,-4.868,-4.9409,-5.0154,-5.0866,-5.1348,-5.1431,-5.2061,-5.2111,-5.1448,-5.2078,-5.2409,-5.2409,-5.2409,-5.2376,-5.2293,-5.2293,-5.2208,-5.2125,-5.2125,-5.2175,-5.215,-5.1026,-5.0397,-5.0057,-4.8959,-4.7976,-4.7146,-4.6405,-4.6093,-4.5943,-4.5257,-4.5372,-4.5793,-4.5213,-4.5387,-4.588,-4.588,-4.5488,-4.4995,-4.4995,-4.4995,-4.4995,-4.4995,-4.485,-4.4688,-4.4759,-4.3258,-4.1368,-3.996,-3.8457,-3.6927,-3.5478,-3.4981,-3.4775,-3.4775,-3.4775,-3.4775,-3.4775,-3.4775,-3.4775,-3.4775,-3.4775,-3.4775,-3.4775,-3.4775,-3.4775,-3.4775,-3.3857,-3.2801,-3.188,-3.065,-2.9869,-2.9723,-2.8498,-2.7767,-2.7718,-2.7295,-2.706,-2.7012,-2.6602,-2.6387,-2.6387,-2.5947,-2.5693,-2.5693,-2.5538,-2.4716,-4.4385,-4.3953,-4.3858,0.0,-4.5125,-4.5276,-4.5428,-4.5998,-4.6335,-4.5952,-4.6538,-4.7094,-4.6968,-4.731,-4.7666,0.0,-4.7835,-4.8001,-4.8001,-4.8001,-4.8001,-4.8001,-4.8382,-4.8647,-4.8647,-4.9326,-5.0055,-5.0767,-5.1512,-5.1962,-5.1962,-5.2243,-5.2277,-5.1962,-5.226,-5.2409,-5.2409,-5.1978,-5.1529,-5.1115,-5.0684,-5.0253,-4.9839,-4.9839,-5.0071,-5.0467,-5.0108,-4.9798,-4.939,-4.8263,-4.7484,-4.6802,-4.5783,-4.5393,-4.5358,-4.5026,-4.5068,-4.5271,-4.498,-4.4835,-4.4777,-4.4777,-4.4589,-4.4371,-4.4371,-4.4603,-4.4806,-4.4458,-4.4002,-4.3675,-4.4029,-4.2546,-4.0819,-4.0448,-3.9084,-3.7568,-3.6468,-3.5619,-3.503,-3.503,-3.4932,-3.4775,-3.4775,-3.4775,-3.4775,-3.4775,-3.4775,-3.4775,-3.4775,-3.4775,-3.4775,-3.4775,-3.4421,-3.3709,-3.2639,-3.1524,-3.0598,-2.9922,-2.874,-2.8027,-2.8027,-2.7617,-2.7393,-2.7393,-2.6728,-2.6387,-2.6387,-2.5947,-2.5693,-2.5693,-2.5693,-2.5284,-4.5236,0.0,0.0,-4.5638,-4.5693,-4.5652,-4.6354,-4.692,-4.7245,-4.6975,-4.7745,-4.8355,-4.788,-4.8005,-4.8163,-4.8049,-4.8033,-4.8001,-4.8001,-4.8001,-4.8084,-4.8282,-4.8779,-4.926,-4.9674,-5.0187,-5.0717,-5.1265,-5.1995,-5.2409,-5.2409,-5.2409,-5.2409,-5.2409,-5.221,-5.2111,-5.2111,-5.1382,-5.0734,-5.0204,-4.9674,-4.9127,-4.8614,-4.8614,-4.8795,-4.9087,-4.9075,-4.8748,-4.8158,-4.7192,-4.6581,-4.6072,-4.4982,-4.4625,-4.4691,-4.4471,-4.4487,-4.4618,-4.4429,-4.4197,-4.3993,-4.3993,-4.3863,-4.3718,-4.3718,-4.4023,-4.4269,-4.3834,-4.3328,-4.3,-4.3454,-4.2032,-4.0482,-4.0667,-3.9367,-3.7856,-3.7035,-3.6033,-3.5247,-3.5102,-3.492,-3.4775,-3.4775,-3.4775,-3.4775,-3.4775,-3.4775,-3.4775,-3.4775,-3.4775,-3.4775,-3.4775,-3.4775,-3.4482,-3.3709,-3.2639,-3.1575,-3.0442,-2.9254,-2.8423,-2.8178,-2.7598,-2.7366,-2.7366,-2.6582,-2.6211,-2.6211,-2.5889,-2.5693,-2.5693,-2.5693,-2.5586,0.0,0.0,-4.6411,-4.6465,-4.6647,-4.7046,-4.7849,-4.767,-4.7586,-4.8529,-4.8587,-4.8555,-4.8726,-4.8452,-4.8195,-4.8195,-4.8082,-4.8001,-4.8001,-4.8001,-4.8266,-4.8978,-4.9094,-4.9657,0.0,-5.1265,-5.1299,-5.1315,-5.1995,-5.2409,-5.2409,-5.2409,-5.2409,-5.2409,-5.173,-5.1348,-5.1348,-5.0601,-5.0237,-5.022,-5.0187,-5.0171,-5.0154,-5.0154,-4.9725,-4.8972,-4.8132,-4.7184,-4.6217,-4.5398,-4.4803,-4.432,-4.3621,-4.364,-4.395,-4.3282,-4.3456,-4.3921,-4.3268,-4.3456,-4.3993,-4.3993,-4.3544,-4.3021,-4.3021,-4.3036,-4.305,-4.3021,-4.3485,-4.395,-4.3965,-4.2781,-4.1449,-4.1063,-3.9367,-3.7543,-3.6627,-3.5989,-3.5437,-3.4931,-3.4835,-3.4775,-3.4775,-3.4775,-3.4775,-3.4775,-3.4775,-3.4775,-3.4775,-3.4775,-3.4775,-3.4775,-3.4775,-3.4775,-3.4726,-3.3758,-3.2689,-3.1626,-3.0123,-2.8788,-2.779,-2.6875,-2.6426,-2.6426,-2.5986,-2.5703,-2.5703,-2.5693,-2.5693,-2.5693,-2.5693,-2.5693,0.0,0.0,-4.6093,-4.6631,-4.6557,-4.6666,-4.7837,-4.8384,-4.8756,-4.9178,-4.9951,-5.0347,-4.9673,-4.9244,-4.8996,-4.8991,-4.8447,-4.8001,-4.8001,-4.8431,-4.8829,-4.9077,-4.9955,0.0,0.0,0.0,0.0,-5.2011,-5.2277,-5.2409,-5.2409,-5.2409,-5.2194,-5.1696,-5.1912,-5.1796,-5.1315,-5.1032,-5.0916,-5.0899,-5.0436,-4.9955,-4.9475,-4.9475,-4.9059,-4.8311,-4.8023,-4.7294,-4.6192,-4.5356,-4.4455,-4.3538,-4.2802,-4.2626,-4.2702,-4.2484,-4.2542,-4.276,-4.2934,-4.2876,-4.2731,-4.2731,-4.2586,-4.2397,-4.2397,-4.2673,-4.2919,-4.2513,-4.2847,-4.3326,-4.3326,-4.2636,-4.198,-4.2265,-4.0467,-3.858,-3.8077,-3.6726,-3.549,-3.5114,-3.4932,-3.4775,-3.4775,-3.4775,-3.4775,-3.4775,-3.4775,-3.4775,-3.4775,-3.4775,-3.4775,-3.4775,-3.4775,-3.4775,-3.4775,-3.3819,-3.2739,-3.1677,-3.0398,-2.9194,-2.8129,-2.7539,-2.71,-2.6807,-2.6387,-2.6025,-2.5693,-2.5693,-2.5693,-2.5693,-2.5693,-2.5693,0.0,-4.6275,-4.6617,-4.7407,-4.7359,-4.7488,-4.8921,-4.9641,-5.005,-5.0228,-5.1205,-5.1662,-5.04,-5.0001,-4.9753,-4.9521,-4.8694,-4.8049,-4.8049,-4.8713,-4.9244,-4.9475,-5.0551,-5.1415,0.0,0.0,0.0,-5.234,-5.2409,-5.2409,-5.2409,-5.2409,-5.2194,-5.173,-5.1912,-5.1796,-5.1315,-5.1032,-5.0899,-5.0883,-5.0436,-4.9955,-4.9508,-4.9508,-4.9092,-4.831,-4.781,-4.6988,-4.5971,-4.4858,-4.3866,-4.3021,-4.25,-4.2242,-4.2092,-4.2092,-4.2092,-4.215,-4.2528,-4.2411,-4.2092,-4.2092,-4.2092,-4.2092,-4.2092,-4.2368,-4.2586,-4.2208,-4.2382,-4.2673,-4.2673,-4.2103,-4.1735,-4.231,-4.0872,-3.9182,-3.8684,-3.7326,-3.6045,-3.5356,-3.4969,-3.4775,-3.4775,-3.4775,-3.4775,-3.4775,-3.4775,-3.4775,-3.4775,-3.4775,-3.4775,-3.4775,-3.4775,-3.4775,-3.4775,-3.3819,-3.2739,-3.1677,-3.0546,-2.9418,-2.8344,-2.7891,-2.7461,-2.7021,-2.6602,-2.6172,-2.5693,-2.5693,-2.5693,-2.5693,-2.5693,-2.5693,-4.7446,-4.7717,-4.7932,-4.871,-4.8927,-4.9383,-5.0941,-5.1285,-5.1365,-5.1558,-5.2269,-5.2422,0.0,0.0,-5.0455,-4.9782,-4.8873,-4.8228,-4.8195,-4.8877,-4.9576,0.0,0.0,0.0,0.0,0.0,0.0,-5.2409,-5.2409,-5.2409,-5.2409,-5.2409,-5.2393,-5.2359,-5.1713,-5.1348,-5.1315,-5.0651,-5.032,-5.032,-5.032,-5.0303,-5.027,-5.027,-4.9807,-4.8972,-4.7515,-4.6467,-4.558,-4.404,-4.3135,-4.2732,-4.2703,-4.2433,-4.2092,-4.2092,-4.2092,-4.2092,-4.2092,-4.2092,-4.2092,-4.2092,-4.2092,-4.2092,-4.2092,-4.2092,-4.2092,-4.2092,-4.2092,-4.2092,-4.2092,-4.1395,-4.0801,-4.1318,-4.0532,-3.9373,-3.8392,-3.7766,-3.6993,-3.5489,-3.4981,-3.4835,-3.4775,-3.4775,-3.4775,-3.4775,-3.4775,-3.4775,-3.4775,-3.4775,-3.4775,-3.4775,-3.4775,-3.4775,-3.4775,-3.3869,-3.2789,-3.1677,-3.0598,-2.946,-2.8344,-2.7891,-2.7461,-2.7021,-2.6602,-2.6172,-2.5693,-2.5693,-2.5693,-2.5693,-2.5693,-2.5693,-4.692,-4.7681,-4.8637,-4.8837,-4.9347,-5.0053,-5.1067,-5.1285,-5.1365,-5.1558,-5.2604,-5.3086,0.0,0.0,0.0,-5.0581,-4.9628,0.0,-4.8278,-4.9326,0.0,-5.0187,0.0,-5.221,-5.2393,-5.2409,0.0,0.0,-5.2409,-5.2409,-5.2409,-5.2409,-5.2161,-5.1614,-5.1945,-5.1862,-5.1315,-5.1645,-5.1827,-5.1827,-5.1827,-5.1545,-5.0999,-5.0999,-5.0597,-4.9844,-4.8823,-4.7893,-4.704,-4.5386,-4.4193,-4.3366,-4.2731,-4.231,-4.2092,-4.2092,-4.2092,-4.2092,-4.2092,-4.2092,-4.2092,-4.2092,-4.2092,-4.2092,-4.2092,-4.2092,-4.2092,-4.2092,-4.2092,-4.2092,-4.2092,-4.1912,-4.1578,-4.0986,-4.0569,-3.9843,-3.7978,-3.7482,-3.7024,-3.5777,-3.5271,-3.5017,-3.4823,-3.4775,-3.4775,-3.4775,-3.4775,-3.4775,-3.4775,-3.4775,-3.4775,-3.4775,-3.4775,-3.4775,-3.4775,-3.4568,-3.361,-3.1728,-3.1319,-3.0297,-2.8398,-2.7891,-2.7461,-2.7021,-2.6602,-2.6172,-2.5693,-2.5693,-2.5693,-2.5693,-2.5693,-2.5693,-4.7156,-4.7699,-4.855,-4.9257,-4.9764,-5.042,-5.1556,-5.1828,-5.1868,-5.1958,-5.3195,0.0,-5.2511,-5.2478,0.0,0.0,0.0,0.0,-4.8374,-4.9526,-5.0358,0.0,-5.1496,0.0,-5.2409,-5.2409,-5.2409,0.0,-5.2409,-5.2409,-5.2409,-5.2409,-5.2227,-5.1812,-5.2194,-5.221,-5.1796,-5.221,-5.2409,-5.2409,-5.2409,-5.2194,-5.1796,-5.1796,-5.1352,-5.0533,-4.9381,-4.8384,-4.7528,-4.5892,-4.4843,-4.4196,-4.3422,-4.294,-4.2636,-4.2344,-4.2175,-4.2092,-4.2092,-4.2092,-4.2092,-4.2092,-4.2092,-4.2092,-4.2092,-4.2092,-4.2092,-4.2092,-4.2092,-4.2092,-4.2092,-4.1758,-4.1296,-4.0731,-4.0289,-3.9549,-3.7919,-3.7461,-3.7057,-3.5847,-3.5368,-3.5126,-3.4981,-3.4884,-3.4775,-3.4775,-3.4775,-3.4775,-3.4775,-3.4775,-3.4775,-3.4775,-3.4775,-3.4775,-3.4775,-3.4372,-3.356,-3.2387,-3.141,-3.0287,-2.9059,-2.8321,-2.7744,-2.7314,-2.707,-2.6641,-2.6025,-2.6025,-2.5879,-2.5693,-2.5693,-2.5693,-4.7717,-4.7862,-4.8351,-4.9745,-5.0275,-5.0778,-5.2172,-5.2498,-5.2498,-5.2498,0.0,-5.4327,-5.2931,-5.2847,-5.2536,-5.1158,0.0,-4.8711,-4.85,-4.9592,-5.0358,-5.0204,-5.1496,-5.2442,-5.2506,-5.244,-5.2423,-5.2523,-5.244,-5.2409,-5.2409,-5.2409,-5.2409,-5.2409,-5.2409,-5.2409,-5.2409,-5.2409,-5.2409,-5.2409,-5.2409,-5.2409,-5.2409,-5.2409,-5.1908,-5.1011,-4.9576,-4.849,-4.7594,-4.6052,-4.5314,-4.5087,-4.4392,-4.3832,-4.3326,-4.277,-4.2357,-4.2092,-4.2092,-4.2092,-4.2092,-4.2092,-4.2092,-4.2092,-4.2092,-4.2092,-4.2092,-4.2092,-4.2092,-4.2092,-4.2092,-4.1437,-4.0788,-4.0646,-3.9986,-3.9077,-3.8024,-3.752,-3.6977,-3.5847,-3.5416,-3.5223,-3.5223,-3.4981,-3.4775,-3.4775,-3.4775,-3.4775,-3.4775,-3.4775,-3.4775,-3.4775,-3.4775,-3.4775,-3.4775,-3.3967,-3.335,-3.3201,-3.1257,-3.0078,-2.9922,-2.8797,-2.8037,-2.7728,-2.766,-2.7268,-2.6475,-2.6416,-2.6191,-2.5771,-2.5713,-2.5693,-4.7717,-4.8677,-4.9745,-5.0039,-5.1086,-5.2154,-5.2426,-5.2498,0.0,0.0,-5.3241,-5.3633,-5.2707,-5.3034,-5.2844,-5.0906,0.0,0.0,-4.8423,-4.9476,-5.0358,0.0,-5.1496,-5.2605,-5.3185,-5.2721,0.0,0.0,-5.2705,-5.2409,-5.2409,-5.2409,-5.2409,-5.2409,-5.2409,-5.2409,-5.2409,-5.2409,-5.2409,-5.2409,-5.2409,-5.2409,-5.2409,-5.2409,-5.1908,-5.1027,-5.0046,-4.9171,-4.8301,-4.6761,-4.6015,-4.5771,-4.5075,-4.4231,-4.3385,-4.3267,-4.2736,-4.2092,-4.2092,-4.2092,-4.2092,-4.2092,-4.2092,-4.2092,-4.2092,-4.2092,-4.2092,-4.2092,-4.2092,-4.2092,-4.2092,-4.1953,-4.1633,-4.0788,-4.0461,-3.9899,-3.816,-3.7176,-3.6452,-3.6003,-3.5716,-3.5464,-3.5223,-3.4981,-3.4775,-3.4775,-3.4775,-3.4775,-3.4775,-3.4775,-3.4775,-3.4775,-3.4775,-3.4775,-3.4775,-3.4628,-3.4115,-3.325,-3.2033,-3.0897,-2.9922,-2.856,-2.7796,-2.7718,-2.7314,-2.7051,-2.6904,-2.6562,-2.6348,-2.6269,-2.5908,-2.5693,-4.7717,-4.8568,-4.9582,-4.9981,-5.0977,-5.1991,-5.2389,0.0,0.0,0.0,-5.3132,-5.3458,-5.2643,-5.2859,0.0,-5.1299,0.0,0.0,0.0,0.0,0.0,0.0,-5.1148,-5.2092,0.0,-5.2572,-5.2523,-5.2854,-5.2572,-5.2409,-5.2409,-5.2409,-5.2409,-5.2409,-5.2409,-5.2409,-5.2409,-5.2409,-5.2409,-5.2409,-5.2409,-5.2409,-5.2409,-5.2409,-5.1692,-5.0384,-4.9962,-4.9116,-4.7876,-4.7121,-4.6745,-4.6627,-4.5928,-4.5213,-4.4463,-4.3786,-4.3153,-4.2513,-4.2208,-4.2092,-4.2092,-4.2092,-4.2092,-4.2092,-4.2092,-4.2092,-4.2092,-4.2092,-4.2092,-4.2092,-4.2092,-4.1717,-4.1198,-4.0689,-3.9855,-3.8899,-3.7978,-3.7036,-3.6358,-3.6228,-3.6003,-3.5716,-3.5464,-3.5175,-3.4981,-3.4823,-3.4775,-3.4775,-3.4775,-3.4775,-3.4775,-3.4775,-3.4775,-3.4775,-3.4775,-3.4775,-3.458,-3.4066,-3.3051,-3.1931,-3.0856,-2.9528,-2.86,-2.8041,-2.7793,-2.7568,-2.7353,-2.7148,-2.6826,-2.6387,-2.6396,-2.6113,-4.7895,-4.855,-4.9347,-5.0144,-5.0814,-5.1502,-5.2317,-5.2371,0.0,0.0,-5.3005,-5.3241,-5.2625,0.0,-5.2477,0.0,-5.047,-4.958,0.0,0.0,0.0,0.0,0.0,0.0,-5.2577,-5.2509,0.0,-5.2589,-5.2473,-5.2409,-5.2409,-5.2409,-5.2409,-5.2409,-5.2409,-5.2409,-5.2409,-5.2409,-5.2409,-5.2409,-5.2409,-5.2409,-5.2373,-5.223,-5.1252,-4.9805,-4.9623,-4.8682,-4.7309,-4.7309,-4.7309,-4.7249,-4.6741,-4.617,-4.5545,-4.4568,-4.373,-4.3018,-4.2538,-4.225,-4.2092,-4.2092,-4.2092,-4.2092,-4.2092,-4.2092,-4.2092,-4.2092,-4.2092,-4.2051,-4.1814,-4.1198,-4.0504,-4.0116,-3.8854,-3.7763,-3.7533,-3.6909,-3.6405,-3.6405,-3.6193,-3.592,-3.5716,-3.5428,-3.5126,-3.4932,-3.4823,-3.4775,-3.4775,-3.4775,-3.4775,-3.4775,-3.4775,-3.4775,-3.4775,-3.4775,-3.4775,-3.4775,-3.3808,-3.2739,-3.1626,-3.0494,-2.9418,-2.8291,-2.8291,-2.8125,-2.7855,-2.7767,-2.7327,-2.6533,-2.6768,-2.6514,-4.8583,-4.9383,-5.0184,-5.0977,-5.1249,-5.1502,-5.2317,0.0,0.0,-5.2353,-5.2552,-5.2589,-5.2516,-5.2506,-5.2258,0.0,0.0,-5.0107,0.0,0.0,0.0,0.0,0.0,0.0,-5.3421,-5.2845,-5.2638,-5.3268,-5.2738,-5.2409,-5.2409,-5.2409,-5.2409,-5.2409,-5.2409,-5.2409,-5.2409,-5.2409,-5.2409,-5.2409,-5.2409,-5.2409,-5.2373,-5.1582,-5.0707,-4.9765,-4.9035,-4.8172,-4.7309,-4.7309,-4.7309,-4.7294,-4.7234,-4.6716,-4.5936,-4.5817,-4.4778,-4.3343,-4.3284,-4.2765,-4.2092,-4.2092,-4.2092,-4.2092,-4.2092,-4.2092,-4.2092,-4.2092,-4.2092,-4.1912,-4.0972,-4.0689,-4.0159,-3.8464,-3.7946,-3.7592,-3.6722,-3.6452,-3.6405,-3.6405,-3.6193,-3.5968,-3.5968,-3.5524,-3.5175,-3.5175,-3.4981,-3.4775,-3.4775,-3.4775,-3.4775,-3.4775,-3.4775,-3.4775,-3.4775,-3.4775,-3.4775,-3.4775,-3.3808,-3.2739,-3.1626,-3.0494,-2.9418,-2.8291,-2.8291,-2.8271,-2.8232,-2.7851,-2.7422,-2.6943,-2.6602,-2.6406,-4.8098,-4.9112,-5.0184,-5.051,-5.1303,-5.21,-5.2426,0.0,-5.21,-5.2426,-5.2498,-5.2498,-5.2498,-5.2498,-5.241,0.0,0.0,0.0,-4.9993,0.0,0.0,0.0,-5.1177,0.0,0.0,0.0,-5.2757,-5.2898,-5.2594,-5.2409,-5.2409,-5.2409,-5.2409,-5.2409,-5.2409,-5.2409,-5.2409,-5.2409,-5.2409,-5.2409,-5.2409,-5.2409,-5.239,-5.2017,-5.114,-4.9765,-4.9463,-4.8558,-4.7309,-4.7309,-4.7309,-4.7309,-4.7309,-4.7,-4.6486,-4.6142,-4.5202,-4.4066,-4.3725,-4.3001,-4.2284,-4.2284,-4.2216,-4.2092,-4.2092,-4.2092,-4.2092,-4.2092,-4.2092,-4.2009,-4.1633,-4.1057,-4.0418,-3.9637,-3.8644,-3.7717,-3.7315,-3.6815,-3.6405,-3.6405,-3.6323,-3.6193,-3.6015,-3.5812,-3.5572,-3.5271,-3.5126,-3.4969,-3.4823,-3.4775,-3.4775,-3.4775,-3.4775,-3.4775,-3.4775,-3.4775,-3.4775,-3.4775,-3.4421,-3.34,-3.1677,-3.1165,-3.0089,-2.8344,-2.8291,-2.8291,-2.8291,-2.8125,-2.7685,-2.7012,-2.7109,-2.6885,-4.7986,-4.9057,-5.0166,-5.0401,-5.1303,-5.2208,0.0,0.0,-5.2208,-5.2444,-5.2498,-5.2498,-5.2498,-5.2498,-5.2498,0.0,0.0,-5.0552,-5.0515,0.0,0.0,0.0,0.0,-5.178,0.0,-5.2764,-5.2746,-5.257,-5.2499,-5.2445,-5.2409,-5.2409,-5.2409,-5.2409,-5.2409,-5.2409,-5.2409,-5.2409,-5.2409,-5.2409,-5.2409,-5.2409,-5.2373,-5.2142,-5.1343,-5.0174,-4.9662,-4.8805,-4.7666,-4.7424,-4.7309,-4.7309,-4.7309,-4.7164,-4.6959,-4.6541,-4.5671,-4.4645,-4.416,-4.3287,-4.2392,-4.231,-4.2216,-4.2092,-4.2092,-4.1912,-4.1675,-4.1675,-4.1451,-4.1241,-4.1241,-4.0503,-3.9724,-3.9404,-3.836,-3.7407,-3.7407,-3.6862,-3.6405,-3.6405,-3.6405,-3.6323,-3.6146,-3.6063,-3.5872,-3.5464,-3.532,-3.5126,-3.492,-3.4823,-3.4775,-3.4775,-3.4775,-3.4775,-3.4775,-3.4775,-3.4775,-3.4775,-3.4775,-3.3967,-3.2134,-3.2083,-3.1011,-2.8804,-2.8751,-2.8601,-2.8291,-2.8291,-2.792,-2.7217,-2.7529,-2.7395,-4.8656,-4.9474,-5.0293,-5.1086,-5.1285,-5.1502,0.0,0.0,-5.1538,-5.2335,-5.2498,-5.2498,-5.2498,-5.2498,-5.2498,-5.2498,-5.1482,0.0,-5.0525,-5.0146,0.0,0.0,0.0,-5.1296,-5.2753,-5.2729,-5.2535,-5.2409,-5.2535,-5.2535,-5.2426,-5.2409,-5.2409,-5.2409,-5.2409,-5.2409,-5.2409,-5.2409,-5.2409,-5.2409,-5.2409,-5.2409,-5.2373,-5.1508,-5.1102,-5.0989,-4.9318,-4.8615,-4.8532,-4.7666,-4.7309,-4.7309,-4.7309,-4.7309,-4.7309,-4.7294,-4.6328,-4.4986,-4.4748,-4.3684,-4.2351,-4.2175,-4.2092,-4.2092,-4.2092,-4.1395,-4.0603,-4.0603,-3.9942,-3.9241,-3.9241,-3.8554,-3.7579,-3.6675,-3.6452,-3.6405,-3.6405,-3.6405,-3.6405,-3.6405,-3.6405,-3.6405,-3.6405,-3.6193,-3.6015,-3.5968,-3.5524,-3.5223,-3.5223,-3.4981,-3.4775,-3.4775,-3.4775,-3.4775,-3.4775,-3.4775,-3.4775,-3.4775,-3.4775,-3.4311,-3.325,-3.3201,-3.2123,-2.9922,-2.9869,-2.9365,-2.8291,-2.8291,-2.8076,-2.7708,-2.7718,-2.7718,-4.8674,-4.9492,-5.0293,-5.1086,-5.1701,-5.219,-5.2444,0.0,-5.219,-5.2444,-5.2498,-5.2498,-5.2498,-5.2498,-5.2498,-5.2498,-5.1482,0.0,0.0,0.0,0.0,-5.0359,-5.0556,-5.1179,0.0,0.0,-5.2144,-5.287,-5.285,-5.2746,-5.2535,-5.2535,-5.2499,-5.2409,-5.2409,-5.2409,-5.2409,-5.2409,-5.2409,-5.2409,-5.2409,-5.2409,-5.2373,-5.2106,-5.1672,-5.1043,-4.99,-4.9116,-4.8532,-4.7666,-4.7309,-4.7309,-4.7309,-4.7309,-4.7249,-4.68,-4.6025,-4.512,-4.4424,-4.3507,-4.2581,-4.2351,-4.2201,-4.2092,-4.2092,-4.1395,-4.0461,-3.9812,-3.9417,-3.921,-3.921,-3.8509,-3.79,-3.8225,-3.7335,-3.6593,-3.7222,-3.6862,-3.6405,-3.6405,-3.6405,-3.6405,-3.6405,-3.6323,-3.6181,-3.6015,-3.5872,-3.5668,-3.5524,-3.5416,-3.5368,-3.5368,-3.5175,-3.4981,-3.4835,-3.4775,-3.4775,-3.4775,-3.4775,-3.4323,-3.325,-3.3201,-3.2538,-3.1114,-3.0287,-2.9713,-2.9418,-2.8644,-2.8076,-2.7718,-2.7718,-2.7718,0.0,-4.9492,-5.0293,-5.1086,-5.19,0.0,0.0,0.0,-5.2498,-5.2498,-5.2498,-5.2498,-5.2498,-5.2498,-5.241,-5.2204,-5.1337,-5.0643,0.0,0.0,0.0,-5.0084,0.0,0.0,0.0,-5.1766,-5.21,-5.3025,-5.2972,-5.2799,-5.2589,-5.257,-5.248,-5.2409,-5.2409,-5.2409,-5.2409,-5.2409,-5.2409,-5.2409,-5.2409,-5.2409,-5.2409,-5.2409,-5.1908,-5.1027,-5.0174,-4.9343,0.0,-4.7666,-4.7309,-4.7309,-4.7309,-4.7309,-4.7234,-4.6576,-4.5888,-4.5158,-4.4311,-4.3479,-4.2769,-4.2514,-4.2242,-4.2051,-4.1675,-4.0845,-3.9942,-3.9373,-3.8944,-3.8675,-3.8675,-3.8251,-3.7946,-3.8554,-3.7795,-3.7083,-3.7671,-3.7361,-3.6815,-3.6452,-3.6405,-3.6405,-3.6405,-3.6405,-3.6323,-3.6193,-3.6051,-3.592,-3.5764,-3.5668,-3.562,-3.562,-3.5464,-3.5271,-3.5126,-3.503,-3.4932,-3.4932,-3.4932,-3.4726,-3.4103,-3.4005,-3.3449,-3.2387,-3.1666,-3.0845,-2.9922,-2.8804,-2.8154,-2.791,-2.791,-2.7875,0.0,0.0,0.0,0.0,0.0,0.0,0.0,0.0,0.0,-5.2498,-5.2498,-5.2498,-5.2498,-5.2498,-5.2298,-5.1694,-5.1087,-5.0507,0.0,-4.9974,0.0,0.0,-5.0514,0.0,-5.0923,-5.158,-5.2253,-5.2804,-5.2921,-5.2834,-5.2624,-5.2449,-5.2343,-5.2343,-5.2293,-5.2274,-5.2409,-5.2409,-5.2409,-5.2409,-5.2409,-5.2409,-5.2409,-5.2409,-5.1908,-5.1027,-5.0174,-4.9343,-4.8532,-4.7666,-4.7309,-4.7309,-4.7309,-4.7279,-4.716,-4.6501,-4.5813,-4.5083,-4.4236,-4.3515,-4.2915,-4.2541,-4.2284,-4.1953,-4.0972,-4.0029,-3.9285,-3.9166,-3.8464,-3.7763,-3.7717,-3.7717,-3.7717,-3.7763,-3.7763,-3.7717,-3.7808,-3.7763,-3.7441,-3.6593,-3.6405,-3.6405,-3.6405,-3.6405,-3.6405,-3.6405,-3.6193,-3.6015,-3.6015,-3.5812,-3.5668,-3.5668,-3.562,-3.562,-3.562,-3.5368,-3.5223,-3.5223,-3.5223,-3.532,-3.5572,-3.5368,-3.4763,-3.3747,-3.3549,-3.2325,-2.9922,-2.8804,-2.8291,-2.8291,-2.8291,-2.8086,-4.942,0.0,-5.0456,-5.1846,-5.2353,0.0,0.0,0.0,0.0,0.0,0.0,0.0,0.0,-5.2498,-5.2298,-5.1694,-5.1087,-5.0507,-4.9988,0.0,0.0,-4.9255,-4.9299,-4.9573,-5.024,-5.0903,-5.1579,-5.2387,-5.3011,-5.3212,-5.2834,-5.2264,-5.1826,-5.1564,-5.1015,-5.1264,-5.2409,-5.2409,-5.2409,-5.2409,-5.2409,-5.2409,-5.2409,-5.2409,-5.1908,-5.1027,-5.0174,-4.9343,-4.8532,-4.7666,-4.7309,-4.7309,-4.7309,-4.6995,-4.6429,-4.5783,-4.511,-4.4411,-4.3537,-4.3129,-4.2915,-4.2541,-4.2351,-4.2284,-4.1856,-4.1071,-3.9986,-3.8554,-3.7978,-3.7625,-3.6909,-3.6722,-3.6909,-3.7625,-3.7268,-3.6956,-3.7625,-3.7222,-3.6675,-3.6452,-3.6405,-3.6405,-3.6405,-3.6405,-3.6405,-3.6405,-3.637,-3.6323,-3.6323,-3.6275,-3.6216,-3.6216,-3.6051,-3.592,-3.592,-3.5668,-3.5524,-3.5524,-3.5524,-3.5524,-3.562,-3.5524,-3.5368,-3.5114,-3.3338,-3.1564,-2.9922,-2.8804,-2.8291,-2.8291,-2.8291,-2.8242,-4.9357,-4.992,-5.0492,-5.21,-5.2498,-5.2498,0.0,0.0,0.0,0.0,0.0,0.0,0.0,0.0,0.0,-5.1286,-5.0715,0.0,0.0,0.0,-4.9001,-4.9001,-4.8956,-4.9212,0.0,-5.0409,-5.0918,-5.1742,-5.2149,-5.2253,-5.2034,-5.1463,-5.1076,-5.0888,-5.0437,-5.0585,-5.138,-5.138,-5.138,-5.138,-5.138,-5.1562,-5.1877,-5.1471,-5.1034,-5.0461,-4.9623,-4.862,-4.7521,-4.7059,-4.6666,-4.6381,-4.6381,-4.6157,-4.5768,-4.5095,-4.4616,-4.4186,-4.3394,-4.3076,-4.2955,-4.2729,-4.2541,-4.2392,-4.2284,-4.1785,-4.0986,-3.9519,-3.8765,-3.8251,-3.7315,-3.7036,-3.7176,-3.7671,-3.7407,-3.7176,-3.7671,-3.7407,-3.6896,-3.6499,-3.6405,-3.6405,-3.6405,-3.6405,-3.6405,-3.6405,-3.6405,-3.6405,-3.6405,-3.6405,-3.6405,-3.6405,-3.6275,-3.6193,-3.6193,-3.6038,-3.5895,-3.5812,-3.5764,-3.586,-3.5943,-3.586,-3.5764,-3.5764,-3.3796,-3.2112,-3.0824,-2.9618,-2.8804,-2.8291,-2.8291,-2.8193,-4.8949,-4.9563,-5.0325,-5.2063,-5.2498,-5.2498,0.0,0.0,0.0,0.0,0.0,0.0,0.0,0.0,0.0,0.0,0.0,0.0,-4.9063,-4.9001,-4.9001,-4.9001,-4.9001,0.0,-4.9864,-5.0016,-5.0355,-5.0997,-5.1037,-5.1007,-5.1007,-5.056,-5.0276,-5.0226,-4.9973,-4.9872,-4.9872,-5.0104,-5.022,-5.022,-5.022,-5.0535,-5.1115,-5.0376,-4.9845,-4.945,-4.8764,-4.7572,-4.6172,-4.6172,-4.5813,-4.5289,-4.5289,-4.5229,-4.508,-4.4526,-4.4257,-4.4092,-4.3484,-4.321,-4.3036,-4.3036,-4.2769,-4.2459,-4.2433,-4.2284,-4.1939,-4.1057,-4.0173,-3.921,-3.8251,-3.79,-3.7808,-3.7808,-3.7671,-3.7592,-3.7592,-3.7592,-3.7361,-3.6546,-3.6405,-3.6405,-3.6405,-3.6405,-3.6405,-3.6405,-3.6405,-3.6405,-3.6405,-3.6405,-3.6405,-3.6405,-3.6405,-3.6405,-3.6405,-3.6405,-3.6323,-3.6098,-3.6051,-3.6146,-3.6405,-3.6193,-3.6063,-3.6015,-3.4495,-3.3227,-3.2151,-3.068,-2.946,-2.8548,-2.8398,-2.8105,-4.8735,-4.901,-4.9637,-5.1937,-5.2498,-5.2498,-5.2498,0.0,0.0,0.0,0.0,0.0,0.0,-5.1669,-5.1252,0.0,0.0,-4.9124,0.0,0.0,-4.9001,-4.9001,0.0,-4.9035,-4.9171,-4.9729,-5.0135,-5.0253,-5.083,-5.1137,-5.1024,-5.0173,-4.9658,-4.946,-4.8746,-4.8349,-4.8349,-4.9591,-5.022,-5.022,-5.022,-5.027,-5.0369,-5.0231,-4.9388,-4.8013,-4.7898,-4.6916,-4.5454,-4.5454,-4.5394,-4.5289,-4.5289,-4.4945,-4.4451,-4.4347,-4.3958,-4.3424,-4.3334,-4.329,-4.325,-4.3076,-4.2955,-4.2835,-4.25,-4.2392,-4.2284,-4.1939,-4.1156,-4.0159,-3.9241,-3.8419,-3.7808,-3.7808,-3.7176,-3.6628,-3.6628,-3.6628,-3.6593,-3.6452,-3.6405,-3.6405,-3.6405,-3.6405,-3.6405,-3.6405,-3.6405,-3.6405,-3.6405,-3.6405,-3.6405,-3.6405,-3.6405,-3.6405,-3.6405,-3.6405,-3.6358,-3.6323,-3.6323,-3.6358,-3.6405,-3.6358,-3.6228,-3.6015,-3.4896,-3.3993,-3.3338,-3.1235,-3.0016,-2.9618,-2.8698,-2.8262,-4.8335,-4.868,-4.9253,-5.0814,-5.1194,-5.1194,-5.1194,0.0,0.0,0.0,0.0,0.0,0.0,0.0,-5.0742,-4.9615,0.0,-4.9001,-4.9001,-4.9001,-4.9001,0.0,0.0,-4.9001,-4.9001,-4.9306,-4.9509,-4.9509,-4.983,-4.9985,-4.9938,-4.9428,-4.9067,-4.8872,-4.8378,-4.8082,-4.8001,-4.868,-4.9011,-4.9011,-4.9011,-4.9226,-4.9574,-4.9114,-4.8469,-4.7681,-4.7238,-4.6192,-4.4766,-4.4766,-4.4556,-4.4242,-4.4242,-4.4047,-4.3738,-4.3738,-4.3544,-4.329,-4.329,-4.329,-4.329,-4.321,-4.3076,-4.2955,-4.2769,-4.2662,-4.2541,-4.2474,-4.1951,-4.117,-4.0216,-3.9637,-3.9077,-3.8024,-3.7453,-3.7002,-3.6499,-3.6405,-3.6405,-3.6405,-3.6405,-3.6405,-3.6405,-3.6405,-3.6405,-3.6405,-3.6405,-3.6405,-3.6405,-3.6405,-3.6405,-3.6405,-3.6405,-3.6405,-3.6405,-3.6405,-3.6405,-3.6405,-3.6405,-3.6405,-3.6405,-3.6405,-3.6323,-3.6228,-3.5596,-3.4799,-3.3796,-3.2666,-3.1348,-2.9869,-2.9418,-2.8857,-4.7949,-4.8303,-4.8822,-4.9619,0.0,-5.0347,-5.0148,0.0,0.0,0.0,0.0,0.0,0.0,-5.0796,0.0,-4.9138,-4.9001,-4.9001,-4.9001,-4.9001,-4.9001,-4.9001,-4.9001,-4.9001,-4.9001,-4.9001,-4.9001,-4.9001,-4.9001,-4.9001,-4.9001,-4.8863,-4.8738,-4.8595,-4.8324,-4.8147,-4.8066,-4.8001,-4.8001,-4.8001,-4.8001,-4.8299,-4.8812,-4.8155,-4.7716,-4.7469,-4.6655,-4.5577,-4.4343,-4.4158,-4.3738,-4.329,-4.329,-4.329,-4.329,-4.329,-4.329,-4.329,-4.329,-4.329,-4.329,-4.329,-4.321,-4.3076,-4.3036,-4.2875,-4.2769,-4.2729,-4.2433,-4.198,-4.1226,-4.0817,-4.0246,-3.881,-3.8283,-3.7933,-3.7209,-3.6896,-3.6722,-3.6722,-3.6546,-3.6405,-3.6405,-3.6405,-3.6405,-3.6405,-3.6405,-3.6405,-3.6405,-3.6405,-3.6405,-3.6405,-3.6405,-3.6405,-3.6405,-3.6405,-3.6405,-3.6405,-3.6405,-3.6405,-3.6405,-3.6405,-3.6405,-3.6405,-3.6193,-3.5548,-3.4495,-3.3944,-3.2666,-3.0732,-3.0182,-2.9513,-4.7729,-4.7747,-4.7968,-4.8782,0.0,0.0,-5.0275,-5.1249,0.0,0.0,0.0,0.0,0.0,-4.9855,-4.9077,-4.9001,-4.9001,-4.9001,-4.9001,0.0,-4.9001,-4.9001,-4.9001,-4.9001,-4.9001,-4.9001,-4.9001,-4.9001,-4.9001,-4.9001,-4.9001,-4.8863,-4.8769,-4.8786,-4.8405,-4.8195,-4.8195,-4.8049,-4.8001,-4.8001,-4.8001,-4.8034,-4.8084,-4.8001,-4.7586,-4.6818,-4.6092,-4.5257,-4.4435,-4.3666,-4.3334,-4.329,-4.329,-4.329,-4.329,-4.329,-4.329,-4.329,-4.329,-4.329,-4.329,-4.329,-4.329,-4.325,-4.3076,-4.2981,-4.2955,-4.2769,-4.2541,-4.2351,-4.231,-4.145,-4.0546,-4.0418,-3.9724,-3.9077,-3.9019,-3.8328,-3.7717,-3.7717,-3.7002,-3.6405,-3.6405,-3.6405,-3.6405,-3.6405,-3.6405,-3.6405,-3.6405,-3.6405,-3.6405,-3.6405,-3.6405,-3.6405,-3.6405,-3.6405,-3.6405,-3.6405,-3.6405,-3.6405,-3.6405,-3.6405,-3.6405,-3.6405,-3.6358,-3.6181,-3.586,-3.4593,-3.3735,-3.3289,-3.1,-3.0037,-4.7615,-4.7717,-4.7772,-4.8076,0.0,0.0,0.0,0.0,0.0,0.0,-5.0431,0.0,0.0,0.0,-4.9001,-4.9001,-4.9001,-4.9001,-4.9001,-4.9001,-4.9001,-4.9001,-4.9001,-4.9001,-4.9001,-4.9001,-4.9001,-4.9001,-4.9001,-4.9001,-4.9001,-4.8956,-4.8894,-4.8801,-4.8644,-4.8436,-4.8195,-4.8147,-4.8082,-4.8001,-4.8001,-4.8001,-4.8001,-4.8001,-4.7555,-4.6742,-4.6005,-4.5258,-4.4434,-4.363,-4.329,-4.329,-4.329,-4.329,-4.329,-4.329,-4.329,-4.329,-4.329,-4.329,-4.329,-4.329,-4.329,-4.329,-4.321,-4.321,-4.3155,-4.309,-4.2864,-4.2541,-4.2433,-4.1966,-4.1395,-4.0731,-4.0332,-3.9899,-3.9329,-3.8464,-3.7808,-3.7808,-3.7036,-3.6405,-3.6405,-3.6405,-3.6405,-3.6405,-3.6405,-3.6405,-3.6405,-3.6405,-3.6405,-3.6405,-3.6405,-3.6405,-3.6405,-3.6405,-3.6405,-3.6405,-3.6405,-3.6405,-3.6405,-3.6405,-3.6405,-3.6405,-3.6405,-3.6275,-3.6015,-3.5512,-3.4751,-3.3796,-3.2011,-3.0989,-4.7554,-4.7717,-4.7751,0.0,0.0,0.0,0.0,0.0,0.0,0.0,-4.9702,0.0,0.0,0.0,0.0,0.0,-4.9001,-4.9001,-4.9001,-4.9001,-4.9001,-4.9001,-4.9001,-4.9001,-4.9001,-4.9001,-4.9001,-4.9001,-4.9001,-4.9001,-4.9001,-4.9001,-4.894,-4.8863,-4.8801,-4.8675,-4.8405,-4.826,-4.813,-4.8049,-4.8033,-4.8001,-4.8001,-4.8001,-4.7704,-4.7118,-4.6127,-4.5405,-4.4812,-4.3747,-4.329,-4.329,-4.329,-4.329,-4.329,-4.329,-4.329,-4.329,-4.329,-4.329,-4.329,-4.329,-4.329,-4.329,-4.329,-4.329,-4.329,-4.329,-4.301,-4.2648,-4.2541,-4.2284,-4.1912,-4.1254,-4.1057,-4.0887,-4.023,-3.9343,-3.8599,-3.8283,-3.7487,-3.6769,-3.6452,-3.6405,-3.6405,-3.6405,-3.6405,-3.6405,-3.6405,-3.6405,-3.6405,-3.6405,-3.6405,-3.6405,-3.6405,-3.6405,-3.6405,-3.6405,-3.6405,-3.6405,-3.6405,-3.6405,-3.6405,-3.6405,-3.6405,-3.6323,-3.6146,-3.6063,-3.5512,-3.4593,-3.3289,-3.2364,-4.7572,-4.7717,0.0,0.0,0.0,0.0,0.0,0.0,0.0,0.0,0.0,-4.9732,-4.9107,0.0,0.0,-4.9001,-4.9001,-4.9001,-4.9001,-4.9001,-4.9001,-4.9001,-4.9001,-4.9001,-4.9001,-4.9001,-4.9001,-4.9001,-4.9001,-4.9001,-4.9001,-4.9001,-4.9001,-4.9001,-4.8863,-4.8818,-4.8818,-4.8405,-4.8195,-4.8195,-4.8049,-4.8001,-4.8001,-4.8001,-4.8001,-4.7886,-4.6375,-4.5697,-4.5588,-4.3966,-4.329,-4.329,-4.329,-4.329,-4.329,-4.329,-4.329,-4.329,-4.329,-4.329,-4.329,-4.329,-4.329,-4.329,-4.329,-4.329,-4.329,-4.329,-4.301,-4.2688,-4.2688,-4.2392,-4.2092,-4.2092,-4.2092,-4.2092,-4.2092,-4.1296,-4.0332,-3.9373,-3.8464,-3.7533,-3.6593,-3.6405,-3.6405,-3.6405,-3.6405,-3.6405,-3.6405,-3.6405,-3.6405,-3.6405,-3.6405,-3.6405,-3.6405,-3.6405,-3.6405,-3.6405,-3.6405,-3.6405,-3.6405,-3.6405,-3.6405,-3.6405,-3.6405,-3.6405,-3.6405,-3.6146,-3.6015,-3.5968,-3.4641,-3.4141,-4.7678,0.0,0.0,0.0,0.0,0.0,0.0,0.0,0.0,0.0,0.0,-4.9732,-4.9107,0.0,0.0,-4.9001,-4.9001,-4.9001,-4.9001,-4.9001,-4.9001,-4.9001,-4.9001,-4.9001,-4.9001,-4.9001,-4.9001,-4.9001,-4.9001,-4.9001,-4.9001,-4.9001,-4.9001,-4.9001,-4.894,-4.8894,-4.8818,-4.8675,-4.8564,-4.842,-4.8356,-4.8244,-4.8001,-4.8001,-4.8001,-4.7886,-4.6375,-4.5697,-4.5588,-4.3966,-4.329,-4.329,-4.329,-4.329,-4.329,-4.329,-4.329,-4.329,-4.329,-4.329,-4.329,-4.329,-4.329,-4.329,-4.329,-4.329,-4.329,-4.329,-4.3115,-4.2875,-4.2729,-4.2514,-4.2284,-4.2133,-4.2092,-4.2092,-4.2092,-4.1296,-4.0332,-3.9373,-3.8988,-3.8509,-3.7533,-3.7919,-3.8147,-3.7487,-3.7361,-3.7129,-3.6499,-3.6405,-3.6405,-3.6405,-3.6405,-3.6405,-3.6405,-3.6405,-3.6405,-3.6405,-3.6405,-3.6405,-3.6405,-3.6405,-3.6405,-3.6405,-3.6405,-3.6405,-3.6405,-3.6323,-3.6275,-3.6275,-3.4933,-3.4434,-4.7062,0.0,0.0,0.0,0.0,0.0,0.0,0.0,0.0,0.0,0.0,-4.9065,-4.9012,-4.9001,0.0,-4.9001,-4.9001,-4.9001,-4.9001,-4.9001,-4.9001,-4.9001,-4.9001,-4.9001,-4.9001,-4.9001,-4.9001,-4.9001,-4.9001,-4.9001,-4.9001,-4.9001,-4.9001,-4.9001,-4.9001,-4.894,-4.8894,-4.8849,-4.8738,-4.8627,-4.8547,-4.8388,-4.8179,-4.8115,-4.7919,-4.7555,-4.5933,-4.5036,-4.4662,-4.3708,-4.329,-4.329,-4.329,-4.329,-4.329,-4.329,-4.329,-4.329,-4.329,-4.329,-4.329,-4.329,-4.329,-4.329,-4.329,-4.329,-4.329,-4.329,-4.3155,-4.2941,-4.2769,-4.2541,-4.2366,-4.2133,-4.2092,-4.2092,-4.2092,-4.1619,-4.0802,-3.9475,-3.9505,-3.9329,-3.8024,-3.8599,-3.8899,-3.7946,-3.7487,-3.7049,-3.6452,-3.6405,-3.6405,-3.6405,-3.6405,-3.6405,-3.6405,-3.6405,-3.6405,-3.6405,-3.6405,-3.6405,-3.6405,-3.6405,-3.6405,-3.6405,-3.6405,-3.6405,-3.6405,-3.6405,-3.6405,-3.6358,-3.5571,-3.5271,0.0,0.0,0.0,0.0,0.0,0.0,0.0,0.0,-4.6704,-4.7638,0.0,-4.8139,-4.8866,-4.9001,-4.9001,-4.9001,-4.9001,-4.9001,-4.9001,-4.9001,-4.9001,-4.9001,-4.9001,-4.9001,-4.9001,-4.9001,-4.9001,-4.9001,-4.9001,-4.9001,-4.9001,-4.9001,-4.9001,-4.9001,-4.9001,-4.9001,-4.9001,-4.8894,-4.8801,-4.8818,-4.8627,-4.8547,-4.8547,-4.8324,-4.7737,-4.6896,-4.5316,-4.4105,-4.329,-4.329,-4.329,-4.329,-4.329,-4.329,-4.329,-4.329,-4.329,-4.329,-4.329,-4.329,-4.329,-4.329,-4.329,-4.329,-4.329,-4.329,-4.329,-4.329,-4.3155,-4.2996,-4.2769,-4.2581,-4.2392,-4.2175,-4.2092,-4.2092,-4.2092,-4.2092,-4.1549,-3.9694,-4.0073,-4.0173,-3.8373,-3.8854,-3.9121,-3.8069,-3.7036,-3.6405,-3.6405,-3.6405,-3.6405,-3.6405,-3.6405,-3.6405,-3.6405,-3.6405,-3.6405,-3.6405,-3.6405,-3.6405,-3.6405,-3.6405,-3.6405,-3.6405,-3.6405,-3.6405,-3.6405,-3.6405,-3.6405,-3.6405,-3.6405,-3.6405,0.0,0.0,0.0,0.0,0.0,0.0,0.0,0.0,-4.6527,-4.8925,-4.8604,-4.8139,-4.8866,-4.9001,-4.9001,-4.9001,-4.9001,-4.9001,-4.9001,-4.9001,-4.9001,-4.9001,-4.9001,-4.9001,-4.9001,-4.9001,-4.9001,-4.9001,-4.9001,-4.9001,-4.9001,-4.9001,-4.9001,-4.9001,-4.9001,-4.9001,-4.9001,-4.897,-4.8956,-4.8956,-4.8909,-4.8909,-4.8877,-4.842,-4.7388,-4.5985,-4.5624,-4.4624,-4.329,-4.329,-4.329,-4.329,-4.329,-4.329,-4.329,-4.329,-4.329,-4.329,-4.329,-4.329,-4.329,-4.329,-4.329,-4.329,-4.329,-4.329,-4.329,-4.329,-4.325,-4.321,-4.2996,-4.2915,-4.2769,-4.2433,-4.2201,-4.2092,-4.2092,-4.2092,-4.1731,-4.0518,-4.1085,-4.1409,-4.0216,-4.0816,-4.0873,-3.9166,-3.7474,-3.6405,-3.6405,-3.6405,-3.6405,-3.6405,-3.6405,-3.6405,-3.6405,-3.6405,-3.6405,-3.6405,-3.6405,-3.6405,-3.6405,-3.6405,-3.6405,-3.6405,-3.6405,-3.6405,-3.6405,-3.6405,-3.6405,-3.6405,-3.6405,-3.6405,0.0,0.0,0.0,0.0,0.0,0.0,0.0,0.0,-4.6726,-4.9005,-4.8634,-4.8139,-4.8866,-4.9001,-4.9001,-4.9001,-4.9001,-4.9001,-4.9001,-4.9001,-4.9001,-4.9001,-4.9001,-4.8866,-4.8528,-4.8798,-4.8849,-4.8511,-4.8798,-4.9001,-4.9001,-4.9001,-4.9001,-4.9001,-4.9001,-4.9001,-4.9001,-4.9001,-4.9001,-4.9001,-4.9001,-4.8987,-4.8894,-4.8113,-4.7254,-4.634,-4.5499,-4.4662,-4.3849,-4.3448,-4.329,-4.329,-4.329,-4.329,-4.329,-4.329,-4.329,-4.329,-4.329,-4.329,-4.329,-4.329,-4.329,-4.329,-4.329,-4.329,-4.329,-4.329,-4.329,-4.325,-4.3036,-4.2981,-4.2915,-4.2622,-4.2392,-4.2201,-4.2133,-4.2092,-4.1814,-4.0788,-4.1395,-4.1773,-4.0774,-4.0674,-4.0374,-3.9343,-3.7612,-3.6405,-3.6405,-3.6405,-3.6405,-3.6405,-3.6405,-3.6405,-3.6405,-3.6405,-3.6405,-3.6405,-3.6405,-3.6405,-3.6405,-3.6405,-3.6405,-3.6405,-3.6405,-3.6405,-3.6405,-3.6405,-3.6405,-3.6405,-3.6405,-3.6405,0.0,0.0,0.0,0.0,0.0,0.0,0.0,0.0,-4.6993,-4.8527,-4.8342,-4.8139,-4.8866,-4.9001,-4.9001,-4.9001,-4.9001,-4.9001,-4.9001,-4.9001,-4.9001,-4.9001,-4.9001,-4.8765,-4.8142,-4.8646,-4.8748,-4.8125,-4.8663,-4.9001,-4.9001,-4.9001,-4.9001,-4.9001,-4.9001,-4.9001,-4.9001,-4.9001,-4.9001,-4.9001,-4.9001,-4.8956,-4.8801,-4.795,-4.7339,-4.6828,-4.5227,-4.4434,-4.4259,-4.3591,-4.329,-4.329,-4.329,-4.329,-4.329,-4.329,-4.329,-4.329,-4.329,-4.329,-4.329,-4.329,-4.329,-4.329,-4.329,-4.329,-4.329,-4.329,-4.329,-4.325,-4.3076,-4.3036,-4.2996,-4.2809,-4.2607,-4.2433,-4.2201,-4.2133,-4.1856,-4.1015,-4.1535,-4.1814,-4.1015,-3.9956,-3.9241,-3.9417,-3.7828,-3.664,-3.664,-3.6756,-3.6756,-3.6452,-3.6546,-3.6593,-3.6405,-3.6405,-3.6405,-3.6405,-3.6405,-3.6405,-3.6405,-3.6405,-3.6405,-3.6405,-3.6405,-3.6405,-3.6405,-3.6405,-3.6405,-3.6405,-3.6405,-3.6405,0.0,0.0,0.0,0.0,0.0,0.0,0.0,0.0,-4.7042,0.0,-4.8047,-4.8139,-4.8866,-4.9001,-4.9001,-4.9001,-4.9001,-4.9001,-4.9001,-4.9001,-4.9001,-4.9001,-4.9001,-4.8968,-4.8866,-4.8951,-4.8968,-4.8866,-4.8951,-4.9001,-4.9001,-4.9001,-4.9001,-4.9001,-4.9001,-4.9001,-4.9001,-4.9001,-4.9001,-4.9001,-4.9001,-4.9001,-4.897,-4.8721,-4.7671,-4.6008,-4.5132,-4.4259,-4.3448,-4.3329,-4.329,-4.329,-4.329,-4.329,-4.329,-4.329,-4.329,-4.329,-4.329,-4.329,-4.329,-4.329,-4.329,-4.329,-4.329,-4.329,-4.329,-4.329,-4.329,-4.329,-4.325,-4.325,-4.321,-4.2996,-4.2955,-4.2795,-4.2433,-4.2201,-4.2051,-4.1912,-4.2009,-4.2051,-4.1912,-4.0417,-3.9461,-4.0289,-3.881,-3.7625,-3.7625,-3.8328,-3.8179,-3.6581,-3.7129,-3.7268,-3.6452,-3.6405,-3.6405,-3.6405,-3.6405,-3.6405,-3.6405,-3.6405,-3.6405,-3.6405,-3.6405,-3.6405,-3.6405,-3.6405,-3.6405,-3.6405,-3.6405,-3.6405,0.0,0.0,0.0,0.0,0.0,0.0,0.0,0.0,-4.7064,-4.7844,-4.8094,-4.835,-4.8897,-4.9001,-4.9001,-4.9001,-4.9001,-4.9001,-4.9001,-4.9001,-4.9001,-4.9001,-4.9001,-4.8849,-4.8443,-4.8765,-4.8832,-4.8426,-4.8781,-4.9001,-4.9001,-4.9001,-4.9001,-4.9001,-4.9001,-4.9001,-4.9001,-4.9001,-4.9001,-4.9001,-4.9001,-4.9001,-4.897,-4.8498,-4.777,-4.6813,-4.5937,-4.5058,-4.412,-4.3684,-4.3423,-4.329,-4.329,-4.329,-4.329,-4.329,-4.329,-4.329,-4.329,-4.329,-4.329,-4.329,-4.329,-4.329,-4.329,-4.329,-4.329,-4.329,-4.329,-4.329,-4.329,-4.329,-4.329,-4.321,-4.3076,-4.2941,-4.2769,-4.2514,-4.2242,-4.2133,-4.2092,-4.2092,-4.2092,-4.0517,-3.9505,-4.0461,-3.8988,-3.7978,-3.8509,-3.8944,-3.8675,-3.7315,-3.7533,-3.7394,-3.6499,-3.6405,-3.6405,-3.6405,-3.6405,-3.6405,-3.6405,-3.6405,-3.6405,-3.6405,-3.6405,-3.6405,-3.6405,-3.6405,-3.6405,-3.6405,-3.6405,-3.6405,0.0,0.0,0.0,0.0,0.0,0.0,0.0,0.0,-4.7087,0.0,-4.808,-4.834,-4.8677,-4.8914,-4.9063,-4.9063,-4.9032,-4.9001,-4.9001,-4.9001,-4.9001,-4.9001,-4.9001,-4.8781,-4.824,-4.868,-4.8781,-4.821,-4.8697,-4.9001,-4.9001,-4.9001,-4.9001,-4.9001,-4.9001,-4.9001,-4.9001,-4.9001,-4.9001,-4.9001,-4.9001,-4.9001,-4.897,-4.845,-4.7999,-4.7622,-4.6483,-4.5556,-4.4812,-4.4089,-4.3636,-4.3384,-4.3384,-4.3384,-4.329,-4.329,-4.329,-4.329,-4.329,-4.329,-4.329,-4.329,-4.329,-4.329,-4.329,-4.329,-4.329,-4.329,-4.329,-4.329,-4.329,-4.329,-4.329,-4.329,-4.321,-4.3036,-4.2875,-4.2622,-4.2366,-4.2133,-4.2092,-4.2092,-4.2092,-4.0688,-3.9855,-4.0845,-3.9563,-3.8765,-3.9461,-3.9782,-3.9401,-3.7946,-3.8024,-3.7658,-3.6499,-3.6405,-3.6405,-3.6405,-3.6405,-3.6405,-3.6405,-3.6405,-3.6405,-3.6405,-3.6405,-3.6405,-3.6405,-3.6405,-3.6405,-3.6405,-3.6405,-3.6405,0.0,0.0,0.0,0.0,0.0,0.0,0.0,0.0,0.0,-4.7684,-4.7813,-4.7858,-4.7934,-4.862,-4.9199,-4.9199,-4.9077,-4.9001,-4.9001,-4.9001,-4.9001,-4.9001,-4.9001,-4.8984,-4.8951,-4.8984,-4.8984,-4.8951,-4.8984,-4.9001,-4.9001,-4.9001,-4.9001,-4.9001,-4.9001,-4.9001,-4.9001,-4.9001,-4.9001,-4.9001,-4.9001,-4.9001,-4.9001,-4.897,-4.8562,-4.7787,-4.6166,-4.5295,-4.5036,-4.4305,-4.3871,-4.369,-4.369,-4.3518,-4.329,-4.329,-4.329,-4.329,-4.329,-4.329,-4.329,-4.329,-4.329,-4.329,-4.329,-4.329,-4.329,-4.329,-4.329,-4.329,-4.329,-4.329,-4.329,-4.329,-4.329,-4.3145,-4.2541,-4.2392,-4.2366,-4.2133,-4.2092,-4.2092,-4.2092,-4.1212,-4.0887,-4.1856,-4.1113,-4.0461,-4.0504,-4.1353,-4.0887,-3.8082,-3.8599,-3.8405,-3.6546,-3.6405,-3.6405,-3.6405,-3.6405,-3.6405,-3.6405,-3.6405,-3.6405,-3.6405,-3.6405,-3.6405,-3.6405,-3.6405,-3.6405,-3.6405,-3.6405,-3.6405,0.0,0.0,0.0,0.0,0.0,0.0,0.0,-4.5927,-4.6165,-4.7039,-4.7357,-4.7587,-4.7908,-4.818,-4.8438,-4.8655,-4.8532,-4.8582,-4.904,-4.9138,-4.9138,-4.9138,-4.9229,-4.9277,-4.9138,-4.9138,-4.9077,-4.9001,-4.9001,-4.9001,-4.9001,-4.9001,-4.9001,-4.9001,-4.9001,-4.9001,-4.9001,-4.9001,-4.9001,-4.9001,-4.9001,-4.9001,-4.9001,-4.9001,-4.8861,-4.8545,-4.7473,-4.6362,-4.5258,-4.5014,-4.4518,-4.3871,-4.3769,-4.3636,-4.3557,-4.3384,-4.329,-4.329,-4.329,-4.329,-4.329,-4.329,-4.329,-4.329,-4.329,-4.329,-4.329,-4.329,-4.329,-4.329,-4.329,-4.329,-4.329,-4.329,-4.329,-4.321,-4.285,-4.2688,-4.25,-4.2175,-4.2092,-4.2092,-4.2092,-4.1254,-4.0916,-4.1953,-4.124,-4.0831,-4.1493,-4.1856,-4.1451,-3.9782,-3.9373,-3.8675,-3.7407,-3.6769,-3.6405,-3.6405,-3.6405,-3.6405,-3.6405,-3.6405,-3.6405,-3.6405,-3.6405,-3.6405,-3.6405,-3.6405,-3.6405,-3.6405,-3.6405,-3.6405,-4.7127,0.0,0.0,0.0,0.0,0.0,-4.5924,0.0,-4.5779,-4.6717,-4.718,-4.7447,-4.7588,-4.7718,-4.7908,-4.8262,-4.8152,-4.815,-4.8486,-4.8762,-4.8933,-4.8933,-4.9274,-4.9458,-4.932,-4.929,-4.9229,-4.9094,-4.9063,-4.9063,-4.9001,-4.9001,-4.9001,-4.9001,-4.9001,-4.9001,-4.9001,-4.9001,-4.9001,-4.9001,-4.9001,-4.9001,-4.9001,-4.9001,-4.9001,-4.897,-4.8482,-4.7506,-4.6237,-4.5953,-4.5332,-4.4442,-4.4328,-4.4089,-4.3754,-4.3503,-4.3423,-4.3423,-4.3329,-4.329,-4.329,-4.329,-4.329,-4.329,-4.329,-4.329,-4.329,-4.329,-4.329,-4.329,-4.329,-4.329,-4.329,-4.329,-4.329,-4.325,-4.3036,-4.2915,-4.2688,-4.2284,-4.2216,-4.2175,-4.2092,-4.1535,-4.1339,-4.2009,-4.1535,-4.1339,-4.1995,-4.2092,-4.1717,-4.0689,-4.0029,-3.9166,-3.79,-3.7222,-3.6722,-3.6405,-3.6405,-3.6405,-3.6405,-3.6405,-3.6405,-3.6405,-3.6405,-3.6405,-3.6405,-3.6405,-3.6405,-3.6405,-3.6405,-3.6405,0.0,0.0,0.0,0.0,0.0,0.0,-4.6574,0.0,-4.5887,-4.6712,-4.7234,-4.7428,-4.7004,-4.7313,-4.7755,-4.8109,-4.8014,-4.7736,-4.7284,-4.7894,-4.8389,-4.8389,-4.9022,-4.9449,-4.9449,-4.9449,-4.9359,-4.9161,-4.9131,-4.907,-4.8934,-4.8934,-4.8934,-4.8934,-4.8934,-4.8951,-4.8968,-4.8968,-4.8984,-4.9001,-4.9001,-4.9001,-4.9001,-4.9001,-4.9001,-4.9001,-4.9001,-4.8576,-4.7885,-4.7153,-4.6288,-4.5442,-4.5405,-4.4843,-4.4026,-4.3808,-4.3729,-4.3651,-4.3384,-4.329,-4.329,-4.329,-4.329,-4.329,-4.329,-4.329,-4.329,-4.329,-4.329,-4.329,-4.329,-4.329,-4.329,-4.329,-4.329,-4.325,-4.3036,-4.3036,-4.2875,-4.2459,-4.2392,-4.2325,-4.2133,-4.2092,-4.2092,-4.2092,-4.2092,-4.2092,-4.2092,-4.2092,-4.1717,-4.0731,-4.0603,-3.9812,-3.7978,-3.7808,-3.7361,-3.6452,-3.6405,-3.6405,-3.6405,-3.6405,-3.6405,-3.6405,-3.6405,-3.6405,-3.6405,-3.6405,-3.6405,-3.6405,-3.6405,-3.6405,-4.6232,0.0,0.0,0.0,0.0,0.0,0.0,0.0,-4.5062,-4.5869,-4.6403,-4.6879,-4.7313,-4.7795,-4.8022,-4.7805,-4.7484,-4.7405,-4.7871,-4.7827,-4.7763,-4.7763,-4.8003,-4.8169,-4.8055,-4.8055,-4.7951,0.0,-4.7744,-4.7702,-4.7573,-4.7454,-4.7411,-4.7411,-4.7411,-4.7665,-4.8206,-4.8193,-4.8477,-4.9001,-4.9001,-4.9001,-4.9001,-4.9001,-4.9001,-4.9001,-4.9001,-4.8892,-4.8656,-4.7901,-4.7137,-4.6359,-4.5645,-4.5221,-4.4902,-4.4205,-4.3832,-4.369,-4.3596,-4.3463,-4.329,-4.329,-4.329,-4.329,-4.329,-4.329,-4.329,-4.329,-4.329,-4.329,-4.329,-4.329,-4.329,-4.329,-4.329,-4.329,-4.325,-4.321,-4.305,-4.2514,-4.2392,-4.2325,-4.2133,-4.2092,-4.2092,-4.2092,-4.2092,-4.2092,-4.2092,-4.2092,-4.1995,-4.1717,-4.0403,-3.9373,-3.8854,-3.7566,-3.6675,-3.6405,-3.6405,-3.6405,-3.6405,-3.6405,-3.6405,-3.6405,-3.6405,-3.6405,-3.6405,-3.6405,-3.6405,-3.6405,-3.6405,-3.6405,0.0,0.0,0.0,0.0,0.0,0.0,-4.491,-4.4885,-4.5047,-4.6021,-4.6586,-4.7047,-4.75,-4.7816,-4.7917,-4.7632,-4.7229,-4.7114,-4.759,-4.7681,-4.7727,-4.7727,-4.7891,-4.7949,-4.7867,-4.77,-4.7522,-4.7335,-4.7335,-4.7233,-4.7003,-4.6932,-4.6874,-4.6786,-4.6786,-4.7005,-4.7445,-4.7445,-4.7665,-4.8088,-4.8392,-4.8545,-4.8562,-4.8866,-4.9001,-4.9001,-4.9001,-4.9001,-4.897,-4.8545,-4.7934,-4.7204,-4.6657,-4.6237,-4.5861,-4.494,-4.4518,-4.4328,-4.3871,-4.3596,-4.3463,-4.3329,-4.329,-4.329,-4.329,-4.329,-4.329,-4.329,-4.329,-4.329,-4.329,-4.329,-4.329,-4.329,-4.329,-4.329,-4.329,-4.329,-4.317,-4.2729,-4.2662,-4.2581,-4.2392,-4.2366,-4.2366,-4.2366,-4.2284,-4.2242,-4.2242,-4.2133,-4.2092,-4.2092,-4.11,-4.023,-3.9812,-3.8796,-3.7997,-3.7612,-3.7209,-3.6989,-3.6989,-3.6593,-3.6405,-3.6405,-3.6405,-3.6405,-3.6405,-3.6405,-3.6405,-3.6405,-3.6405,-3.6405,0.0,0.0,0.0,0.0,-4.4103,0.0,-4.5702,-4.5584,-4.5407,-4.6386,-4.6938,-4.7291,-4.734,-4.7379,-4.742,-4.742,-4.7133,-4.6914,-4.689,-4.7474,-4.7879,-4.7879,-4.8074,-4.8221,-4.8221,-4.7848,-4.7523,-4.7375,-4.7264,-4.7096,-4.6776,-4.6765,-4.6678,-4.6549,-4.6549,-4.6583,-4.6667,-4.6667,-4.6718,-4.6802,-4.7462,-4.78,-4.7787,-4.8545,-4.8883,-4.8883,-4.8968,-4.9001,-4.9001,-4.9001,-4.8608,-4.8015,-4.7917,-4.7489,-4.6811,-4.5897,-4.5478,-4.5258,-4.4228,-4.3793,-4.3651,-4.3423,-4.3329,-4.329,-4.329,-4.329,-4.329,-4.329,-4.329,-4.329,-4.329,-4.329,-4.329,-4.329,-4.329,-4.329,-4.329,-4.329,-4.325,-4.3076,-4.3036,-4.2955,-4.2729,-4.2688,-4.2688,-4.2688,-4.2541,-4.2433,-4.2392,-4.2242,-4.2133,-4.2092,-4.2009,-4.1577,-4.0689,-4.0504,-4.0073,-3.9241,-3.8419,-3.79,-3.7808,-3.6989,-3.6499,-3.6405,-3.6405,-3.6405,-3.6405,-3.6405,-3.6405,-3.6405,-3.6405,-3.6405,0.0,0.0,0.0,0.0,-4.4103,0.0,-4.4143,-4.4437,-4.4747,-4.4596,-4.4923,-4.5332,-4.5619,-4.5983,-4.6231,-4.6231,-4.6704,-4.7007,-4.691,-4.701,-4.71,-4.71,-4.7173,-4.7192,-4.7192,-4.7116,-4.6877,-4.6492,-4.5864,-4.5449,-4.5395,-4.519,-4.5066,-4.5038,-4.5038,-4.5297,-4.5906,-4.5923,-4.621,-4.6786,-4.6938,-4.7005,-4.7039,-4.7784,-4.8091,-4.8142,-4.8748,-4.9001,-4.9001,-4.9001,-4.894,-4.8736,-4.8129,-4.7819,-4.7572,-4.6811,-4.604,-4.5369,-4.5163,-4.448,-4.369,-4.3636,-4.3463,-4.329,-4.329,-4.329,-4.329,-4.329,-4.329,-4.329,-4.329,-4.329,-4.329,-4.329,-4.329,-4.329,-4.329,-4.329,-4.329,-4.325,-4.3115,-4.2955,-4.2729,-4.2688,-4.2688,-4.2688,-4.2648,-4.2581,-4.2433,-4.2366,-4.2284,-4.2133,-4.1395,-4.0831,-4.0603,-3.9899,-3.9417,-3.921,-3.9033,-3.8599,-3.7808,-3.7625,-3.7176,-3.6405,-3.6405,-3.6405,-3.6405,-3.6405,-3.6405,-3.6405,-3.6405,-3.6405,0.0,0.0,-4.3606,-4.3993,-4.4103,0.0,0.0,-4.4709,-4.4747,-4.4911,-4.5132,-4.5352,-4.5513,-4.5548,-4.5675,-4.6076,-4.6477,-4.6739,-4.6661,-4.7208,-4.7609,-4.7609,-4.7378,-4.7248,-4.7248,-4.684,-4.6339,-4.5854,-4.5432,-4.514,-4.5005,-4.4886,-4.4737,-4.4598,-4.4615,-4.4784,-4.5145,-4.5145,-4.5331,-4.5715,-4.6075,-4.6244,-4.6278,-4.7022,-4.7564,-4.7906,-4.8308,-4.8663,-4.9001,-4.9001,-4.9001,-4.897,-4.8576,-4.8225,-4.7819,-4.7085,-4.6288,-4.5478,-4.4918,-4.4343,-4.3793,-4.3596,-4.3423,-4.329,-4.329,-4.329,-4.329,-4.329,-4.329,-4.329,-4.329,-4.329,-4.329,-4.329,-4.329,-4.329,-4.329,-4.329,-4.329,-4.329,-4.321,-4.3115,-4.301,-4.301,-4.301,-4.301,-4.293,-4.2769,-4.2581,-4.2474,-4.231,-4.2133,-4.1675,-4.1339,-4.1339,-4.0916,-4.0645,-4.0645,-4.0187,-3.9461,-3.8554,-3.8069,-3.7361,-3.6405,-3.6405,-3.6405,-3.6405,-3.6405,-3.6405,-3.6405,-3.6405,-3.6405,-4.392,-4.3974,-4.4066,-4.458,-4.4323,-4.4213,0.0,0.0,0.0,-4.5333,0.0,0.0,0.0,0.0,0.0,-4.5735,0.0,0.0,0.0,-4.7105,0.0,-4.8048,-4.7866,-4.7736,-4.7736,-4.6981,-4.6242,-4.5727,-4.5572,-4.538,-4.5059,-4.5005,-4.4886,-4.4654,-4.4626,-4.4643,-4.4615,-4.4615,-4.4615,-4.4615,-4.5196,-4.55,-4.5517,-4.6244,-4.6921,-4.7483,-4.777,-4.8257,-4.8798,-4.8951,-4.9001,-4.9001,-4.9001,-4.8656,-4.8032,-4.7422,-4.6673,-4.5769,-4.488,-4.4305,-4.3949,-4.3542,-4.3369,-4.329,-4.329,-4.329,-4.329,-4.329,-4.329,-4.329,-4.329,-4.329,-4.329,-4.329,-4.329,-4.329,-4.329,-4.329,-4.329,-4.329,-4.329,-4.329,-4.329,-4.329,-4.329,-4.329,-4.3155,-4.2996,-4.2769,-4.2622,-4.2433,-4.2242,-4.2175,-4.2175,-4.2175,-4.2133,-4.2092,-4.2092,-4.1339,-4.0389,-3.9241,-3.8115,-3.7176,-3.6405,-3.6405,-3.6405,-3.6405,-3.6405,-3.6405,-3.6405,-3.6405,-3.6405,-4.5424,-4.5626,-4.548,-4.4874,-4.5168,-4.5296,-4.4048,0.0,-4.4525,-4.3901,0.0,0.0,0.0,0.0,0.0,0.0,0.0,0.0,-4.4894,-4.5627,-4.6434,-4.7149,-4.7808,-4.821,-4.821,-4.7754,-4.7248,-4.6771,-4.6165,-4.5649,-4.5203,-4.5059,-4.494,-4.4776,-4.4793,-4.4737,-4.4615,-4.4615,-4.4615,-4.4615,-4.4682,-4.4733,-4.4767,-4.5483,-4.5872,-4.6024,-4.7344,-4.7939,-4.8075,-4.8731,-4.9001,-4.9001,-4.9001,-4.894,-4.8861,-4.8767,-4.7869,-4.6638,-4.6534,-4.5405,-4.3988,-4.3949,-4.366,-4.329,-4.329,-4.329,-4.329,-4.329,-4.329,-4.329,-4.329,-4.329,-4.329,-4.329,-4.329,-4.329,-4.329,-4.329,-4.329,-4.329,-4.329,-4.329,-4.329,-4.329,-4.329,-4.329,-4.329,-4.321,-4.2996,-4.2955,-4.2835,-4.2648,-4.2459,-4.2366,-4.2366,-4.2201,-4.2092,-4.2092,-4.1995,-4.11,-3.9299,-3.752,-3.6499,-3.6405,-3.6405,-3.6405,-3.6405,-3.6405,-3.6405,-3.6405,-3.6405,-3.6405,-4.5681,-4.5902,-4.581,-4.548,-4.5296,-4.5039,-4.436,-4.4103,-4.3901,-4.357,0.0,0.0,0.0,0.0,0.0,0.0,-4.4488,0.0,0.0,0.0,-4.6195,-4.7003,0.0,0.0,-4.7881,-4.7733,-4.7399,-4.6931,-4.6394,-4.5953,-4.5606,-4.5292,-4.5059,-4.4913,-4.4831,-4.4776,-4.4709,-4.4626,-4.4615,-4.4615,-4.4615,-4.4615,-4.4615,-4.4936,-4.5297,-4.5771,-4.6819,-4.7513,-4.7939,-4.8714,-4.9001,-4.9001,-4.9001,-4.8719,-4.837,-4.837,-4.7422,-4.6147,-4.604,-4.52,-4.4143,-4.391,-4.3675,-4.3518,-4.3344,-4.329,-4.329,-4.329,-4.329,-4.329,-4.329,-4.329,-4.329,-4.329,-4.329,-4.329,-4.329,-4.329,-4.329,-4.329,-4.329,-4.329,-4.329,-4.329,-4.329,-4.329,-4.329,-4.325,-4.3036,-4.2981,-4.2915,-4.2729,-4.25,-4.2392,-4.2392,-4.2216,-4.2092,-4.2092,-4.1057,-4.0057,-3.9241,-3.7381,-3.6405,-3.6405,-3.6405,-3.6405,-3.6405,-3.6405,-3.6405,-3.6405,-3.6405,-3.6405,-4.614,-4.6287,-4.6158,-4.5681,-4.5131,-4.4636,-4.4415,-4.4085,-4.3754,-4.3551,-4.368,0.0,0.0,0.0,0.0,0.0,0.0,-4.4378,0.0,-4.5057,0.0,0.0,0.0,0.0,0.0,-4.7795,-4.7591,-4.7115,-4.6794,-4.6448,-4.6189,-4.5726,-4.5398,-4.5266,-4.5032,-4.4886,-4.4858,-4.4737,-4.4654,-4.4654,-4.4626,-4.4615,-4.4615,-4.4615,-4.4874,-4.5432,-4.6177,-4.6921,-4.7665,-4.8392,-4.8832,-4.9001,-4.9001,-4.8656,-4.8193,-4.8193,-4.7406,-4.6272,-4.6131,-4.5426,-4.4518,-4.4189,-4.3895,-4.3651,-4.3463,-4.3384,-4.329,-4.329,-4.329,-4.329,-4.329,-4.329,-4.329,-4.329,-4.329,-4.329,-4.329,-4.329,-4.329,-4.329,-4.329,-4.329,-4.329,-4.329,-4.329,-4.329,-4.329,-4.325,-4.3115,-4.3076,-4.3036,-4.289,-4.2688,-4.2541,-4.2514,-4.2284,-4.2175,-4.2092,-4.0503,-3.9593,-3.9593,-3.8056,-3.7036,-3.6769,-3.6769,-3.6675,-3.6405,-3.6405,-3.6405,-3.6405,-3.6405,-3.6405,-4.7279,-4.7261,-4.6856,-4.5167,-4.4709,-4.4507,-4.3718,-4.4121,-4.4452,-4.3644,-4.4121,-4.4415,-4.3626,0.0,0.0,0.0,0.0,0.0,0.0,0.0,0.0,0.0,0.0,0.0,0.0,-4.8287,-4.8075,-4.7611,-4.7569,-4.7356,-4.689,-4.6435,-4.6094,-4.5893,-4.5433,-4.5123,-4.4978,-4.4858,-4.4776,-4.4776,-4.4654,-4.4615,-4.4615,-4.4615,-4.4615,-4.4682,-4.5415,-4.616,-4.6887,-4.7648,-4.8376,-4.9001,-4.9001,-4.9001,-4.897,-4.897,-4.8482,-4.7819,-4.7819,-4.6745,-4.5332,-4.511,-4.4427,-4.369,-4.369,-4.3518,-4.329,-4.329,-4.329,-4.329,-4.329,-4.329,-4.329,-4.329,-4.329,-4.329,-4.329,-4.329,-4.329,-4.329,-4.329,-4.329,-4.329,-4.329,-4.329,-4.329,-4.329,-4.329,-4.329,-4.329,-4.329,-4.329,-4.3115,-4.2915,-4.2688,-4.2514,-4.2325,-4.2092,-4.1113,-4.0546,-4.0546,-3.9637,-3.8675,-3.7763,-3.7763,-3.7315,-3.6405,-3.6405,-3.6405,-3.6405,-3.6405,-3.6405,-4.8015,-4.8163,-4.7757,-4.6046,-4.5624,-4.5257,-4.3827,-4.4121,-4.447,-4.3663,-4.414,-4.4452,-4.3662,0.0,0.0,0.0,0.0,0.0,0.0,0.0,0.0,0.0,0.0,0.0,0.0,0.0,-4.823,-4.8093,-4.7775,-4.7527,-4.7378,-4.6913,-4.6489,-4.6102,-4.5827,-4.5494,-4.514,-4.5005,-4.4886,-4.4803,-4.4748,-4.4682,-4.4615,-4.4615,-4.4615,-4.4649,-4.5382,-4.5838,-4.6177,-4.7382,-4.8041,-4.8342,-4.8815,-4.9001,-4.9001,-4.9001,-4.8513,-4.7819,-4.7355,-4.6795,-4.6288,-4.6095,-4.5499,-4.479,-4.4692,-4.4212,-4.3754,-4.3596,-4.3557,-4.3518,-4.3344,-4.329,-4.329,-4.329,-4.329,-4.329,-4.329,-4.329,-4.329,-4.329,-4.329,-4.329,-4.329,-4.329,-4.329,-4.329,-4.329,-4.329,-4.329,-4.329,-4.329,-4.329,-4.3115,-4.2996,-4.2915,-4.2729,-4.2581,-4.25,-4.1603,-4.1071,-4.1071,-4.0015,-3.9258,-3.8948,-3.8796,-3.8283,-3.7315,-3.7315,-3.7002,-3.6405,-3.6405,-3.6405,-4.8197,-4.8235,-4.7903,-4.6503,-4.6136,-4.5768,-4.4319,-4.4615,-4.4964,-4.4155,-4.4359,-4.4653,-4.4502,0.0,0.0,0.0,0.0,0.0,0.0,-4.6131,0.0,0.0,0.0,0.0,0.0,-4.8325,-4.8306,-4.8306,-4.8015,-4.7856,-4.7856,-4.7399,-4.7004,-4.6707,-4.6406,-4.6035,-4.5555,-4.5381,-4.5186,-4.4923,-4.4858,-4.4748,-4.4682,-4.4626,-4.4615,-4.4632,-4.5094,-4.5466,-4.5788,-4.7022,-4.7682,-4.7956,-4.8714,-4.9001,-4.9001,-4.9001,-4.8688,-4.8242,-4.7737,-4.7389,-4.7187,-4.7035,-4.6448,-4.5789,-4.5645,-4.5206,-4.4715,-4.4289,-4.4151,-4.3996,-4.3542,-4.3384,-4.329,-4.329,-4.329,-4.329,-4.329,-4.329,-4.329,-4.329,-4.329,-4.329,-4.329,-4.329,-4.329,-4.329,-4.329,-4.329,-4.329,-4.329,-4.329,-4.329,-4.317,-4.3076,-4.3036,-4.2809,-4.2688,-4.2688,-4.2129,-4.1811,-4.1811,-4.1057,-4.0447,-4.0059,-3.9913,-3.9343,-3.8283,-3.7933,-3.75,-3.6909,-3.6546,-3.6405]},{"header":{"parameterUnit":"m.s-1","parameterCategory":1,"la1":30.6,"la2":29.2853,"lo1":-89.7004,"lo2":-87.6739,"dy":0.0162,"dx":0.0183,"nx":112,"ny":82,"refTime":"2023-03-03T18:00:00:Z","depth":0,"parameterNumber":3,"parameterNumberName":"V-component_of_WINDS"},"data":[0.0,0.0,0.0,0.0,0.0,0.0,0.0,0.0,0.0,0.0,0.0,0.0,0.0,0.0,0.0,0.0,0.0,0.0,0.0,0.0,0.0,0.0,0.0,0.0,0.0,0.0,0.0,0.0,0.0,0.0,0.0,0.0,0.0,0.0,0.0,0.0,0.0,0.0,0.0,0.0,0.0,0.0,0.0,0.0,0.0,0.0,0.0,0.0,0.0,0.0,0.0,0.0,0.0,0.0,0.0,0.0,0.0,0.0,0.0,0.0,0.0,0.0,0.0,0.0,0.0,0.0,0.0,0.0,0.0,0.0,0.0,0.0,0.0,0.0,0.0,0.0,0.0,0.0,0.0,0.0,0.0,0.0,0.0,0.0,0.0,0.0,0.0,0.0,0.0,0.0,-3.5967,-3.6722,-3.681,-3.66,-3.6208,-3.6093,-3.5426,-3.3973,0.0,0.0,0.0,0.0,0.0,0.0,0.0,0.0,0.0,0.0,0.0,0.0,0.0,0.0,0.0,0.0,0.0,0.0,0.0,0.0,0.0,0.0,0.0,0.0,0.0,0.0,0.0,0.0,0.0,0.0,0.0,0.0,0.0,0.0,0.0,0.0,0.0,0.0,0.0,0.0,0.0,0.0,0.0,0.0,0.0,0.0,0.0,0.0,0.0,0.0,0.0,0.0,0.0,0.0,0.0,0.0,0.0,0.0,0.0,0.0,0.0,0.0,0.0,0.0,0.0,0.0,0.0,0.0,0.0,0.0,0.0,0.0,0.0,0.0,0.0,0.0,0.0,0.0,0.0,0.0,0.0,0.0,0.0,0.0,0.0,0.0,0.0,0.0,0.0,0.0,0.0,0.0,0.0,0.0,0.0,0.0,0.0,0.0,0.0,0.0,0.0,0.0,0.0,0.0,-3.5151,-3.7383,-3.7632,-3.7528,-3.7348,-3.6924,-3.6384,-3.5747,0.0,0.0,0.0,0.0,0.0,0.0,0.0,0.0,0.0,0.0,0.0,0.0,0.0,0.0,0.0,0.0,0.0,0.0,0.0,0.0,0.0,0.0,0.0,0.0,0.0,0.0,0.0,0.0,0.0,0.0,0.0,0.0,0.0,0.0,0.0,0.0,0.0,0.0,0.0,0.0,0.0,0.0,0.0,0.0,0.0,0.0,0.0,0.0,0.0,0.0,0.0,0.0,0.0,0.0,0.0,0.0,0.0,0.0,0.0,0.0,0.0,0.0,0.0,0.0,0.0,0.0,0.0,0.0,0.0,0.0,0.0,0.0,0.0,0.0,0.0,0.0,0.0,0.0,0.0,0.0,0.0,0.0,0.0,0.0,0.0,0.0,0.0,0.0,0.0,0.0,0.0,0.0,0.0,0.0,0.0,0.0,0.0,0.0,0.0,0.0,0.0,0.0,0.0,-3.5963,-3.6465,-3.8442,-3.7927,-3.7594,-3.8,-3.7125,-3.6569,-3.6538,-3.604,0.0,0.0,0.0,0.0,0.0,0.0,0.0,0.0,0.0,0.0,0.0,0.0,0.0,0.0,0.0,0.0,0.0,0.0,0.0,0.0,0.0,0.0,0.0,0.0,0.0,0.0,0.0,0.0,0.0,0.0,0.0,0.0,0.0,0.0,0.0,0.0,0.0,0.0,0.0,0.0,0.0,0.0,0.0,0.0,0.0,0.0,0.0,0.0,0.0,0.0,0.0,0.0,0.0,0.0,0.0,0.0,0.0,0.0,0.0,0.0,0.0,0.0,0.0,0.0,0.0,0.0,0.0,0.0,0.0,0.0,0.0,0.0,0.0,0.0,0.0,0.0,0.0,0.0,0.0,0.0,0.0,0.0,0.0,0.0,0.0,0.0,0.0,0.0,0.0,0.0,0.0,0.0,0.0,0.0,0.0,0.0,0.0,0.0,0.0,0.0,0.0,0.0,-3.8022,-3.8406,-3.9741,-3.8835,-3.8369,-3.9013,-3.8168,-3.7507,-3.7371,-3.734,0.0,0.0,0.0,0.0,0.0,0.0,0.0,0.0,0.0,0.0,0.0,0.0,0.0,0.0,0.0,0.0,0.0,0.0,0.0,0.0,0.0,0.0,0.0,0.0,0.0,0.0,0.0,0.0,0.0,0.0,0.0,0.0,0.0,0.0,0.0,0.0,0.0,0.0,0.0,0.0,0.0,0.0,0.0,0.0,0.0,0.0,0.0,0.0,0.0,0.0,0.0,0.0,0.0,0.0,0.0,0.0,0.0,0.0,0.0,0.0,0.0,0.0,0.0,0.0,0.0,0.0,0.0,0.0,0.0,0.0,0.0,0.0,0.0,0.0,0.0,0.0,0.0,0.0,0.0,0.0,0.0,0.0,0.0,0.0,0.0,0.0,0.0,0.0,0.0,0.0,0.0,0.0,0.0,0.0,0.0,0.0,0.0,0.0,0.0,0.0,0.0,0.0,-3.9152,-4.0549,-4.129,-4.1269,-4.116,-4.1012,-4.1037,-4.0355,-3.876,-3.8678,0.0,0.0,0.0,0.0,0.0,0.0,0.0,0.0,0.0,0.0,0.0,0.0,0.0,0.0,0.0,0.0,0.0,0.0,0.0,0.0,0.0,0.0,0.0,0.0,0.0,0.0,0.0,0.0,0.0,0.0,0.0,0.0,0.0,0.0,0.0,0.0,0.0,0.0,0.0,0.0,0.0,0.0,0.0,0.0,0.0,0.0,0.0,0.0,0.0,0.0,0.0,0.0,0.0,0.0,0.0,0.0,0.0,0.0,0.0,0.0,0.0,0.0,0.0,0.0,0.0,0.0,0.0,0.0,0.0,0.0,0.0,0.0,0.0,0.0,0.0,0.0,0.0,0.0,0.0,0.0,0.0,0.0,0.0,0.0,0.0,0.0,0.0,0.0,0.0,0.0,0.0,0.0,0.0,0.0,0.0,0.0,0.0,0.0,0.0,0.0,0.0,0.0,-3.9375,-4.0274,-4.139,-4.1119,-4.1033,-4.1339,-4.1033,-4.0283,-3.8997,0.0,0.0,0.0,0.0,0.0,0.0,0.0,0.0,0.0,0.0,0.0,0.0,0.0,0.0,0.0,0.0,0.0,0.0,0.0,0.0,0.0,0.0,0.0,0.0,0.0,0.0,0.0,0.0,0.0,0.0,0.0,0.0,0.0,0.0,0.0,0.0,0.0,0.0,0.0,0.0,0.0,0.0,0.0,0.0,0.0,0.0,0.0,0.0,0.0,0.0,0.0,0.0,0.0,0.0,0.0,0.0,0.0,0.0,0.0,0.0,0.0,0.0,0.0,0.0,0.0,0.0,0.0,0.0,0.0,0.0,0.0,0.0,0.0,0.0,0.0,0.0,0.0,0.0,0.0,0.0,0.0,0.0,0.0,0.0,0.0,0.0,0.0,0.0,0.0,0.0,0.0,0.0,0.0,0.0,0.0,0.0,0.0,0.0,0.0,0.0,0.0,0.0,-3.9668,-4.024,-4.0989,-4.2141,-4.1803,-4.1701,-4.2239,-4.1782,-4.082,-3.9263,0.0,0.0,0.0,0.0,0.0,0.0,0.0,0.0,0.0,0.0,0.0,0.0,0.0,0.0,0.0,0.0,0.0,0.0,0.0,0.0,0.0,0.0,0.0,0.0,0.0,0.0,0.0,0.0,0.0,0.0,0.0,0.0,0.0,0.0,0.0,0.0,0.0,0.0,0.0,0.0,0.0,0.0,0.0,0.0,0.0,0.0,0.0,0.0,0.0,0.0,0.0,0.0,0.0,0.0,0.0,0.0,0.0,0.0,0.0,0.0,0.0,0.0,0.0,0.0,0.0,0.0,0.0,0.0,0.0,0.0,0.0,0.0,0.0,0.0,0.0,0.0,0.0,0.0,0.0,0.0,0.0,0.0,0.0,0.0,0.0,0.0,0.0,0.0,0.0,0.0,0.0,0.0,0.0,0.0,0.0,0.0,0.0,0.0,0.0,0.0,0.0,0.0,-4.0636,-4.195,-4.3094,-4.3822,-4.3717,-4.3687,-4.3898,-4.3734,-4.2443,0.0,0.0,0.0,0.0,0.0,0.0,0.0,0.0,0.0,0.0,0.0,0.0,0.0,0.0,0.0,0.0,0.0,0.0,0.0,0.0,0.0,0.0,0.0,0.0,0.0,0.0,0.0,0.0,0.0,0.0,0.0,0.0,0.0,0.0,0.0,0.0,0.0,0.0,0.0,0.0,0.0,0.0,0.0,0.0,0.0,0.0,0.0,0.0,0.0,0.0,0.0,0.0,0.0,0.0,0.0,0.0,0.0,0.0,0.0,0.0,0.0,0.0,0.0,0.0,0.0,0.0,0.0,0.0,0.0,0.0,0.0,0.0,0.0,0.0,0.0,0.0,0.0,0.0,0.0,0.0,0.0,0.0,0.0,0.0,0.0,0.0,0.0,0.0,0.0,0.0,0.0,0.0,0.0,0.0,0.0,0.0,0.0,0.0,0.0,0.0,0.0,0.0,0.0,-4.1352,-4.2671,-4.3717,-4.4027,-4.3981,-4.3981,-4.4056,-4.3981,-4.2729,-3.9826,0.0,0.0,0.0,0.0,0.0,0.0,0.0,0.0,0.0,0.0,0.0,0.0,0.0,0.0,0.0,0.0,0.0,0.0,0.0,0.0,0.0,0.0,0.0,0.0,0.0,0.0,0.0,0.0,0.0,0.0,0.0,0.0,0.0,0.0,0.0,0.0,0.0,0.0,0.0,0.0,0.0,0.0,0.0,0.0,0.0,0.0,0.0,0.0,0.0,0.0,0.0,0.0,0.0,0.0,0.0,0.0,0.0,0.0,0.0,0.0,0.0,0.0,0.0,0.0,0.0,0.0,0.0,0.0,0.0,0.0,0.0,0.0,0.0,0.0,0.0,0.0,0.0,0.0,0.0,0.0,0.0,0.0,0.0,0.0,0.0,0.0,0.0,0.0,0.0,0.0,0.0,0.0,0.0,0.0,0.0,0.0,0.0,0.0,0.0,0.0,0.0,0.0,-4.1458,-4.2981,-4.4097,-4.4184,-4.4126,-4.4126,-4.4184,-4.4126,-4.3121,-4.0788,0.0,0.0,0.0,0.0,0.0,0.0,0.0,0.0,0.0,0.0,0.0,0.0,0.0,0.0,0.0,0.0,0.0,0.0,0.0,0.0,0.0,0.0,0.0,0.0,0.0,0.0,0.0,0.0,0.0,0.0,0.0,0.0,0.0,0.0,0.0,0.0,0.0,0.0,0.0,0.0,0.0,0.0,0.0,0.0,0.0,0.0,0.0,0.0,0.0,0.0,0.0,0.0,0.0,0.0,0.0,0.0,0.0,0.0,0.0,0.0,0.0,0.0,0.0,0.0,0.0,0.0,0.0,0.0,0.0,0.0,0.0,0.0,0.0,0.0,0.0,0.0,0.0,0.0,0.0,0.0,0.0,0.0,0.0,0.0,0.0,0.0,0.0,0.0,0.0,0.0,0.0,0.0,0.0,0.0,0.0,0.0,0.0,0.0,0.0,0.0,0.0,0.0,-4.1088,-4.293,-4.431,-4.4338,-4.4212,-4.4184,-4.431,-4.4212,-4.3574,-4.221,0.0,0.0,0.0,0.0,0.0,0.0,0.0,0.0,0.0,0.0,0.0,0.0,0.0,0.0,0.0,0.0,0.0,0.0,0.0,0.0,0.0,0.0,0.0,0.0,0.0,0.0,0.0,0.0,0.0,0.0,0.0,0.0,0.0,0.0,0.0,0.0,0.0,0.0,0.0,0.0,0.0,0.0,0.0,0.0,0.0,0.0,0.0,0.0,0.0,0.0,0.0,0.0,0.0,0.0,0.0,0.0,0.0,0.0,0.0,0.0,-2.5824,-2.5745,0.0,0.0,0.0,0.0,0.0,0.0,0.0,0.0,0.0,0.0,0.0,0.0,0.0,0.0,0.0,0.0,0.0,0.0,0.0,0.0,0.0,0.0,0.0,0.0,0.0,0.0,0.0,0.0,0.0,0.0,0.0,0.0,0.0,0.0,0.0,0.0,0.0,0.0,0.0,0.0,-4.0995,-4.293,-4.4367,-4.4514,-4.4514,-4.4514,-4.4542,-4.4514,-4.3855,-4.2361,-4.1946,0.0,0.0,0.0,0.0,0.0,0.0,0.0,0.0,0.0,0.0,0.0,0.0,0.0,0.0,0.0,0.0,0.0,0.0,0.0,0.0,0.0,0.0,0.0,0.0,0.0,0.0,0.0,0.0,0.0,0.0,0.0,0.0,0.0,0.0,0.0,0.0,0.0,0.0,0.0,0.0,0.0,0.0,0.0,0.0,0.0,0.0,0.0,0.0,0.0,0.0,0.0,0.0,0.0,0.0,0.0,0.0,0.0,0.0,0.0,-2.7633,-2.7482,0.0,0.0,0.0,0.0,0.0,0.0,0.0,0.0,0.0,0.0,0.0,0.0,0.0,0.0,0.0,0.0,0.0,0.0,0.0,0.0,0.0,0.0,0.0,0.0,0.0,0.0,0.0,0.0,0.0,0.0,0.0,0.0,0.0,0.0,0.0,0.0,0.0,0.0,0.0,0.0,-4.0593,-4.2837,-4.4468,-4.4598,-4.4615,-4.4615,-4.4615,-4.4615,-4.4276,-4.3464,-4.2692,0.0,0.0,0.0,0.0,0.0,0.0,0.0,0.0,0.0,0.0,0.0,0.0,0.0,0.0,0.0,0.0,0.0,0.0,0.0,0.0,0.0,0.0,0.0,0.0,0.0,0.0,0.0,0.0,0.0,0.0,0.0,0.0,0.0,0.0,0.0,0.0,0.0,0.0,0.0,0.0,0.0,0.0,0.0,0.0,0.0,0.0,0.0,0.0,0.0,0.0,0.0,0.0,0.0,-2.8146,-2.8491,-2.842,-2.8714,-2.9063,-2.9404,-2.9021,-2.9032,-2.9249,-2.8483,0.0,0.0,0.0,0.0,0.0,0.0,0.0,0.0,0.0,0.0,0.0,0.0,0.0,0.0,0.0,0.0,0.0,0.0,0.0,0.0,0.0,0.0,-3.9367,-3.8877,-3.9206,-3.9281,-3.8053,0.0,0.0,0.0,0.0,0.0,0.0,0.0,0.0,0.0,0.0,0.0,-4.0713,-4.3091,-4.4852,-4.4987,-4.4987,-4.4987,-4.4987,-4.4987,-4.4987,-4.4987,-4.3802,-4.3301,0.0,0.0,0.0,0.0,0.0,0.0,0.0,0.0,0.0,0.0,0.0,0.0,0.0,0.0,0.0,0.0,0.0,0.0,0.0,0.0,0.0,0.0,0.0,0.0,0.0,0.0,0.0,0.0,0.0,0.0,0.0,0.0,-2.1182,-2.2279,0.0,0.0,0.0,0.0,0.0,0.0,0.0,0.0,0.0,0.0,0.0,0.0,0.0,-2.6361,-2.7028,-2.7868,-2.8263,-2.8065,-2.924,-2.9549,-2.9167,-2.9632,-2.9849,-2.9901,-2.9839,0.0,-2.929,-2.9177,0.0,0.0,0.0,0.0,0.0,0.0,0.0,0.0,0.0,0.0,0.0,0.0,0.0,0.0,0.0,0.0,0.0,0.0,0.0,0.0,0.0,0.0,-4.0927,-4.027,-4.0349,-4.0308,-3.9555,-3.8486,-3.7628,-3.7481,-3.7679,-3.7816,0.0,0.0,0.0,0.0,0.0,0.0,-4.273,-4.4485,-4.5805,-4.643,-4.6498,-4.6498,-4.6498,-4.6498,-4.6498,-4.6498,-4.6312,-4.5957,-4.5432,-4.4587,0.0,0.0,0.0,0.0,0.0,0.0,0.0,0.0,0.0,0.0,0.0,0.0,0.0,0.0,0.0,0.0,0.0,0.0,0.0,0.0,0.0,0.0,0.0,0.0,0.0,0.0,0.0,0.0,0.0,-2.2584,-2.3613,-2.4249,-2.426,-2.439,0.0,0.0,0.0,0.0,0.0,0.0,0.0,0.0,0.0,-2.6395,-2.6914,-2.728,-2.7592,-2.8499,-2.895,-2.8849,-2.9622,-2.9891,-2.9704,-3.017,-3.0387,-3.0398,-3.0657,-3.0657,-3.0461,-2.9972,-3.0008,-3.0398,0.0,0.0,0.0,0.0,-3.3078,-3.3719,-3.5767,-3.6823,-3.733,-3.7688,0.0,0.0,0.0,0.0,0.0,0.0,0.0,-3.7786,-3.857,-4.0083,-4.129,-4.116,-4.1557,-4.1812,-4.1146,-4.0612,-3.9818,-3.8284,-3.8366,-3.8353,-3.7358,-3.781,0.0,0.0,0.0,-4.2365,-4.3272,-4.5118,-4.643,-4.6752,-4.6786,-4.6786,-4.6786,-4.6786,-4.6786,-4.6786,-4.6786,-4.665,-4.6329,-4.5602,-4.4637,0.0,0.0,0.0,0.0,0.0,0.0,0.0,0.0,0.0,0.0,0.0,0.0,0.0,0.0,0.0,0.0,0.0,0.0,0.0,0.0,0.0,0.0,0.0,0.0,0.0,0.0,0.0,0.0,-2.4833,-2.5447,-2.579,-2.5583,-2.552,0.0,0.0,0.0,0.0,0.0,0.0,-2.6861,-2.73,-2.7469,-2.7334,-2.7837,-2.8214,-2.8452,-2.9135,-2.9601,-2.9839,-3.018,-3.0346,-3.0356,-3.0708,-3.0864,-3.0884,-3.1226,-3.1589,-3.1767,-3.0957,-3.1124,-3.1863,-3.2068,-3.238,-3.2869,-3.4181,-3.482,-3.5296,-3.7349,-3.8245,-3.8486,-3.8951,-3.905,-3.8867,-3.8462,0.0,0.0,0.0,0.0,-3.8755,-3.9754,-4.1004,-4.1996,-4.204,-4.2584,-4.2879,-4.221,-4.2242,-4.1755,-3.965,-3.9684,-3.9584,-3.806,-3.8959,0.0,-3.9456,-4.1746,-4.3671,-4.4202,-4.5932,-4.7141,-4.7327,-4.7361,-4.7361,-4.7361,-4.7361,-4.7361,-4.7361,-4.7361,-4.7361,-4.7361,-4.6464,-4.5449,-4.4299,0.0,0.0,0.0,0.0,0.0,0.0,0.0,0.0,0.0,0.0,0.0,0.0,0.0,0.0,0.0,0.0,0.0,0.0,0.0,0.0,0.0,0.0,0.0,0.0,0.0,0.0,0.0,0.0,0.0,-2.6091,-2.6284,0.0,0.0,0.0,0.0,-2.6822,-2.7306,-2.7649,-2.7844,-2.8049,-2.8285,-2.8495,-2.8566,-2.9001,-2.988,-2.9942,-3.0398,-3.1267,-3.1298,-3.1309,-3.1309,-3.1329,-3.134,-3.135,-3.136,-3.2015,-3.2953,-3.2341,-3.2169,-3.2317,-3.2919,-3.3164,-3.3388,-3.4693,-3.5656,-3.6579,-3.8491,-3.9616,-4.0282,-4.0282,-3.9978,-3.956,-3.9534,-3.9433,0.0,0.0,-4.1345,-4.1757,-4.3043,-4.3593,-4.3721,-4.3092,-4.3107,-4.3089,-4.2432,-4.2441,-4.2483,-4.2184,-4.2272,-4.2217,-4.1463,0.0,-4.1697,-4.2291,-4.312,-4.4412,-4.6382,-4.734,-4.8122,-4.8815,-4.8883,-4.8883,-4.8883,-4.8883,-4.8883,-4.8883,-4.8883,-4.8883,-4.8883,-4.7513,-4.6701,-4.6616,-4.4547,0.0,0.0,0.0,0.0,0.0,0.0,0.0,0.0,0.0,0.0,0.0,0.0,0.0,0.0,0.0,0.0,0.0,0.0,0.0,0.0,0.0,0.0,0.0,0.0,0.0,0.0,0.0,0.0,-2.6352,-2.6448,0.0,-2.6747,-2.7097,-2.7406,-2.7551,-2.7973,-2.8404,-2.8794,-2.8858,-2.9085,-2.9497,-2.9798,-3.0108,-3.0439,-3.0739,-3.105,-3.1381,-3.1381,-3.1381,-3.1391,-3.1671,-3.2027,-3.2369,-3.2664,-3.3281,-3.4021,-3.4197,-3.429,-3.4389,-3.4611,-3.4914,-3.5432,-3.6944,-3.7675,-3.8185,-3.9929,-4.0735,-4.0997,-4.0997,-4.0867,-4.071,-4.071,-4.0389,-4.0314,-4.1423,-4.1219,-4.1075,-4.2763,-4.3142,-4.3185,-4.3553,-4.3892,-4.4081,-4.3835,-4.3842,-4.3879,-4.3789,-4.315,-4.2525,-4.2294,-4.2586,-4.2973,-4.3195,-4.4236,-4.524,-4.5979,-4.6744,-4.7489,-4.8208,-4.8306,-4.8482,-4.897,-4.9001,-4.9001,-4.9001,-4.9001,-4.9001,-4.9001,-4.8054,-4.7293,-4.6802,-4.5551,-4.4722,0.0,0.0,0.0,0.0,0.0,0.0,0.0,0.0,0.0,0.0,0.0,0.0,0.0,0.0,0.0,0.0,0.0,0.0,0.0,0.0,0.0,0.0,0.0,0.0,0.0,0.0,-2.6651,-2.6651,-2.6688,-2.6893,-2.7191,-2.7516,-2.7912,-2.832,-2.8825,-2.928,-2.9746,-2.9922,-3.0149,-3.045,-3.076,-3.0988,-3.1143,-3.1454,-3.1681,-3.1836,-3.1836,-3.1836,-3.1847,-3.2081,-3.244,-3.2843,-3.3385,-3.3942,-3.4536,-3.5146,-3.557,-3.5772,-3.5772,-3.5979,-3.6483,-3.7844,-3.853,-3.9052,-4.0744,-4.1311,-4.1311,-4.1311,-4.1311,-4.1311,-4.1311,-4.1123,-4.1099,-4.1822,-4.164,-4.1532,-4.2948,-4.3223,-4.3349,-4.4035,-4.4396,-4.461,-4.461,-4.461,-4.461,-4.461,-4.3864,-4.3279,-4.3279,-4.3618,-4.3947,-4.3947,-4.4956,-4.5697,-4.5697,-4.6324,-4.7085,-4.7819,-4.7885,-4.821,-4.894,-4.8781,-4.8748,-4.8984,-4.8781,-4.8646,-4.8646,-4.7936,-4.7192,-4.6447,-4.5703,-4.5173,-4.4824,0.0,0.0,0.0,0.0,0.0,0.0,0.0,0.0,0.0,0.0,0.0,0.0,0.0,0.0,0.0,0.0,0.0,0.0,0.0,0.0,0.0,0.0,0.0,-2.6197,-2.6602,-2.6911,-2.6921,-2.715,-2.7506,-2.7903,-2.7966,-2.8349,-2.9259,-2.9756,-3.0222,-3.0698,-3.1153,-3.1402,-3.1422,-3.1422,-3.1629,-3.2008,-3.2008,-3.2225,-3.2669,-3.2669,-3.2669,-3.2669,-3.2669,-3.2727,-3.2784,-3.3353,-3.3942,-3.4591,-3.5146,-3.5763,-3.632,-3.632,-3.632,-3.6375,-3.7257,-3.8096,-3.9104,-4.0744,-4.1311,-4.1311,-4.1311,-4.1311,-4.1311,-4.1311,-4.1647,-4.2092,-4.229,-4.2814,-4.3445,-4.3844,-4.4097,-4.432,-4.4549,-4.4587,-4.461,-4.461,-4.461,-4.461,-4.461,-4.461,-4.461,-4.461,-4.461,-4.461,-4.461,-4.5216,0.0,-4.566,-4.6288,-4.7017,-4.7787,-4.7836,-4.8144,-4.8923,-4.8342,-4.8193,-4.8951,-4.8325,-4.7906,-4.7922,-4.7208,-4.6447,-4.572,-4.4976,-4.4824,-4.5303,0.0,0.0,0.0,0.0,0.0,0.0,0.0,0.0,0.0,0.0,0.0,0.0,0.0,0.0,0.0,0.0,0.0,0.0,0.0,0.0,0.0,0.0,-2.6853,-2.6699,-2.6976,-2.729,-2.761,-2.7689,-2.7924,-2.838,-2.8731,-2.9166,-2.9766,-3.0232,-3.0843,-3.1629,-3.1729,-3.2012,-3.2344,-3.2364,-3.2416,-3.2483,-3.2483,-3.2545,-3.2669,-3.2669,-3.2669,-3.2669,-3.2669,-3.2955,-3.3342,-3.3512,-3.4166,-3.5157,-3.5323,-3.5763,-3.632,-3.632,-3.632,-3.6483,-3.7897,-3.9364,-4.0681,-4.1161,-4.1311,-4.1311,-4.1311,-4.1311,-4.1311,-4.1311,-4.1411,-4.1756,-4.2917,-4.2717,-4.2533,-4.4213,-4.4097,-4.3693,-4.4266,-4.4496,-4.461,-4.461,-4.461,-4.461,-4.461,-4.461,-4.461,-4.461,-4.461,-4.461,-4.461,-4.4746,-4.4896,-4.4896,-4.5067,-4.5697,-4.6983,-4.6613,-4.7045,-4.8858,-4.8342,-4.8193,-4.8951,-4.8325,-4.8125,-4.868,-4.7479,-4.6447,-4.572,-4.4976,-4.4824,0.0,0.0,0.0,0.0,0.0,0.0,0.0,0.0,0.0,0.0,0.0,0.0,0.0,0.0,0.0,0.0,0.0,0.0,0.0,0.0,0.0,0.0,-2.7059,-2.7372,-2.7567,-2.7569,-2.7707,-2.8152,-2.8214,-2.839,-2.8856,-2.9145,-2.9653,-3.0512,-3.0822,-3.1371,-3.2225,-3.2277,-3.2401,-3.2669,-3.2669,-3.2669,-3.2669,-3.2669,-3.2669,-3.2669,-3.2669,-3.2669,-3.2669,-3.2669,-3.3012,-3.3625,-3.3896,-3.4491,-3.5433,-3.5653,-3.5982,-3.632,0.0,0.0,0.0,0.0,-4.016,-4.1311,-4.1311,-4.1311,-4.1311,-4.1311,-4.1311,-4.1311,-4.1311,-4.1311,-4.1445,-4.21,-4.2408,-4.2795,-4.3878,-4.4332,-4.4622,-4.4794,-4.4926,-4.4964,-4.4671,-4.461,-4.461,-4.461,-4.461,0.0,-4.461,-4.461,-4.461,-4.461,-4.461,-4.461,-4.461,-4.461,-4.503,-4.6218,-4.6233,-4.6797,-4.84,-4.8141,0.0,0.0,0.0,-4.7939,-4.8071,-4.6955,0.0,0.0,0.0,-4.4731,-4.5008,-4.5008,0.0,0.0,-4.6509,-4.6938,0.0,0.0,0.0,0.0,0.0,0.0,0.0,0.0,0.0,0.0,0.0,0.0,0.0,0.0,0.0,0.0,-2.7819,-2.8162,-2.8628,-2.8338,-2.8235,-2.8649,-2.869,-2.8866,-2.9332,-2.9384,-2.9942,-3.1278,-3.1381,-3.1754,-3.2602,-3.2638,0.0,0.0,0.0,-3.2669,-3.2669,-3.2669,-3.2669,-3.2669,-3.2669,-3.2669,-3.2669,-3.2669,-3.3012,-3.3512,-3.4043,-3.4703,-3.5323,-3.5872,-3.6211,-3.6429,-3.6429,-3.6947,-3.7832,-3.9492,-4.0593,-4.1311,-4.1311,0.0,0.0,-4.1311,-4.1311,-4.1311,-4.1311,-4.1311,-4.1206,-4.072,-4.1985,-4.3458,-4.3234,-4.4617,-4.598,-4.5585,-4.5549,-4.5403,-4.4726,-4.461,-4.461,-4.461,-4.461,-4.461,-4.461,-4.461,-4.461,-4.461,-4.461,-4.461,-4.461,-4.461,-4.4896,-4.5624,-4.6295,0.0,-4.7836,-4.7891,-4.8193,-4.8951,-4.8409,-4.7699,-4.6955,-4.6312,-4.5635,-4.4987,-4.4818,-4.4733,-4.4733,-4.4649,-4.4896,-4.5407,-4.6024,-4.663,0.0,0.0,0.0,0.0,0.0,0.0,0.0,0.0,0.0,0.0,0.0,0.0,0.0,0.0,0.0,-2.7523,-2.8097,-2.8638,-2.9104,-2.9094,-2.9073,-2.9156,-2.9166,-2.9352,-2.9818,-2.986,-3.0284,-3.1298,-3.1381,-3.1609,-3.2091,-3.2473,-3.2504,-3.2132,-3.2483,-3.2669,-3.2669,-3.2669,-3.2669,-3.2669,-3.2669,0.0,-3.2669,-3.2669,-3.2784,-3.2898,-3.3001,-3.366,-3.4703,-3.4814,-3.5795,-3.7257,-3.7257,-3.7779,-3.8687,-3.9698,-4.0593,-4.1311,-4.1311,-4.1311,-4.1311,-4.1311,-4.1311,-4.1311,-4.1311,-4.1311,0.0,-4.17,-4.1981,-4.2461,-4.3336,-4.4269,-4.4903,-4.4775,-4.5181,-4.5403,-4.4726,-4.461,-4.461,-4.461,-4.461,-4.461,-4.461,-4.461,-4.461,-4.461,-4.461,-4.461,-4.461,-4.461,-4.4896,-4.5624,-4.5846,-4.645,-4.7802,-4.7891,-4.8193,-4.8951,-4.8883,-4.8477,-4.7733,-4.7534,-4.7398,-4.7276,-4.6092,-4.5483,-4.5483,-4.4902,-4.4654,-4.4786,-4.5883,-4.671,0.0,0.0,0.0,0.0,0.0,0.0,0.0,0.0,0.0,0.0,0.0,-2.571,0.0,0.0,-2.7412,-2.8276,-2.8703,-2.9125,-2.9591,-2.9653,-2.9653,-2.9653,-2.9653,-2.9746,-2.9973,-3.0201,-3.0626,-3.1329,-3.1588,-3.1909,-3.2308,-3.2545,-3.2566,-3.2339,-3.2556,-3.2669,-3.2669,-3.2669,-3.2556,-3.2328,-3.2328,-3.2215,-3.2054,-3.2054,-3.2336,-3.2769,-3.2769,-3.3615,-3.498,-3.5256,-3.597,-3.7,-3.7832,-3.8687,-3.9544,-4.0377,-4.0959,-4.1311,-4.1311,-4.1311,-4.1311,-4.1311,-4.1311,-4.1311,-4.1311,-4.1311,-4.1361,-4.1597,-4.2241,-4.2995,-4.3948,-4.4967,-4.5743,-4.5475,-4.5685,-4.5701,-4.4803,-4.461,-4.461,-4.461,-4.461,-4.461,-4.461,-4.461,-4.461,-4.461,-4.461,-4.461,-4.461,-4.461,-4.4746,-4.5104,-4.5488,-4.6009,-4.6728,-4.7473,-4.8207,-4.8937,-4.9001,-4.868,-4.7922,-4.7889,-4.775,-4.7361,-4.6261,-4.5703,-4.5703,-4.4942,-4.4615,-4.4626,-4.5537,-4.6136,0.0,0.0,0.0,0.0,0.0,0.0,0.0,0.0,-2.2872,-2.4627,-2.5282,-2.5958,-2.7122,-2.7201,-2.7597,-2.8983,-2.9332,-2.957,-2.9942,-2.9994,-2.9994,-2.9994,-2.9994,-2.9994,-2.9994,-3.0419,-3.0874,-3.134,-3.1785,-3.2153,-3.2514,-3.2628,-3.2685,-3.2545,-3.2628,-3.2669,-3.2669,-3.2669,-3.2483,-3.2122,-3.2122,-3.1992,-3.164,-3.164,-3.2103,-3.2894,-3.3206,-3.4186,-3.5532,-3.6363,-3.685,-3.7162,-3.8408,-3.9482,-4.0415,-4.093,-4.1219,-4.1298,-4.118,-4.1219,-4.1311,-4.1311,-4.1232,-4.1141,-4.1141,-4.1141,-4.1141,-4.1141,-4.2228,-4.3514,-4.4004,-4.5182,-4.6167,-4.5837,-4.5784,-4.5614,-4.4719,-4.4572,-4.461,-4.461,-4.461,-4.461,-4.461,-4.461,-4.461,-4.461,-4.461,-4.461,-4.461,-4.461,-4.461,-4.461,-4.5237,-4.5769,-4.5913,-4.7137,-4.8161,-4.8767,-4.8804,-4.8528,-4.7906,-4.7753,-4.7411,-4.6802,-4.6075,-4.5703,-4.5703,-4.4942,-4.4615,-4.4598,-4.5089,-4.5381,-1.7381,-1.752,-1.7816,-1.7816,-1.8969,-2.0406,0.0,0.0,-2.439,-2.6182,-2.6774,-2.7132,-2.7623,-2.8411,-2.8983,-2.8952,-2.9507,-2.9942,-2.9984,-2.9994,-2.9994,-2.9994,-2.9994,-2.9994,-2.9994,-3.0419,-3.0874,-3.134,-3.1785,-3.2008,-3.206,-3.2452,-3.2483,-3.207,-3.2463,-3.2669,-3.2669,-3.2669,-3.2649,-3.2597,-3.2597,-3.2623,-3.2571,-3.2571,-3.2602,-3.2825,-3.4337,-3.5288,-3.587,-3.7483,-3.8764,-3.9648,-3.9285,-3.998,-4.1095,-4.066,-4.0853,-4.1232,-4.071,-4.0867,-4.1311,-4.1311,-4.0958,-4.0514,-4.0514,-4.0514,-4.0514,-4.0514,-4.1368,-4.2315,-4.2382,-4.2976,-4.3593,-4.3704,-4.3948,-4.4203,-4.4303,-4.4473,-4.461,-4.461,-4.461,-4.461,-4.461,-4.461,-4.461,-4.461,-4.461,-4.461,-4.461,-4.461,-4.461,-4.461,-4.5237,-4.5985,-4.6604,-4.7422,-4.7917,-4.8032,-4.802,-4.7973,-4.7889,-4.7276,-4.687,-4.6786,-4.6075,-4.5703,-4.5703,-4.4942,-4.4615,-4.4615,-4.4682,-4.5052,-1.7933,-1.8318,-1.8843,0.0,-2.0327,-2.1535,-2.2341,-2.2996,-2.3928,-2.5471,-2.6263,-2.6985,-2.8013,-2.892,-2.9497,0.0,-2.9818,-2.9994,-2.9994,-2.9994,-2.9994,-2.9994,-3.0232,-3.0398,-3.0398,-3.0822,-3.1278,-3.1723,-3.2188,-3.239,-3.239,-3.2566,-3.2587,-3.239,-3.2576,-3.2669,-3.2669,-3.2401,-3.2199,-3.194,-3.1671,-3.1402,-3.1143,-3.1143,-3.1288,-3.1612,-3.2931,-3.3748,-3.4343,-3.5876,-3.6932,-3.7731,-3.8417,-3.9027,-3.9603,-4.0187,-4.0579,-4.0762,-4.0501,-4.037,-4.0318,-4.0318,-4.0148,-3.9952,-3.9952,-4.0161,-4.0344,-4.003,-4.0675,-4.1537,-4.1874,-4.2084,-4.2362,-4.2904,-4.3312,-4.3504,-4.3364,-4.3888,-4.4435,-4.4435,-4.4511,-4.461,-4.461,-4.461,-4.461,-4.461,-4.461,-4.461,-4.461,-4.461,-4.461,-4.461,-4.4858,-4.5348,-4.6076,-4.6846,-4.7456,-4.7885,-4.8308,-4.8545,-4.8545,-4.7834,-4.7445,-4.7445,-4.6295,-4.5703,-4.5703,-4.4942,-4.4615,-4.4615,-4.4615,-4.4803,-1.8277,0.0,0.0,-1.9844,-2.0824,-2.1836,-2.2359,-2.2758,-2.3427,-2.4977,-2.5856,-2.6735,-2.8274,-2.913,-2.9659,-2.9879,-2.9942,-2.9994,-2.9994,-2.9994,-3.0046,-3.017,-3.0481,-3.0781,-3.104,-3.136,-3.1692,-3.1957,-3.2411,-3.2669,-3.2669,-3.2669,-3.2669,-3.2669,-3.2545,-3.2483,-3.2483,-3.2029,-3.1702,-3.1371,-3.104,-3.0698,-3.0377,-3.0377,-3.0713,-3.1347,-3.2405,-3.3347,-3.4193,-3.5481,-3.6312,-3.6894,-3.7912,-3.8452,-3.8764,-3.9605,-4.0056,-4.0174,-4.0004,-3.9795,-3.9612,-3.9612,-3.9494,-3.9364,-3.9364,-3.9638,-3.986,-3.9468,-3.9965,-4.0717,-4.1146,-4.1215,-4.1465,-4.2481,-4.3056,-4.3357,-4.3267,-4.4004,-4.4611,-4.4427,-4.4496,-4.461,-4.461,-4.461,-4.461,-4.461,-4.461,-4.461,-4.461,-4.461,-4.461,-4.461,-4.461,-4.4836,-4.5348,-4.6076,-4.6811,-4.7556,-4.809,-4.8495,-4.8683,-4.78,-4.728,-4.728,-4.6041,-4.5399,-4.5399,-4.484,-4.4615,-4.4615,-4.4615,-4.4654,0.0,0.0,-1.881,-1.8832,-1.9921,-2.1008,-2.1366,-2.2229,-2.3531,-2.5465,-2.6106,-2.6776,-2.8416,-2.9185,-2.9606,-2.9606,-2.9827,-2.9994,-2.9994,-2.9994,-3.016,-3.0605,-3.0677,-3.1029,0.0,-3.1957,-3.1977,-3.1988,-3.2411,-3.2669,-3.2669,-3.2669,-3.2669,-3.2669,-3.2246,-3.2008,-3.2008,-3.1619,-3.1391,-3.1381,-3.136,-3.135,-3.134,-3.134,-3.1908,-3.2877,-3.4095,-3.5395,-3.668,-3.7841,-3.8605,-3.9039,-3.8592,-3.8865,-3.9486,-3.8972,-3.9128,-3.9547,-3.8958,-3.9128,-3.9612,-3.9612,-3.9207,-3.8736,-3.8736,-3.8749,-3.8762,-3.8736,-3.9155,-3.966,-3.9673,-3.9894,-4.0554,-4.2153,-4.3056,-4.3861,-4.473,-4.5244,-4.5357,-4.471,-4.4587,-4.461,-4.461,-4.461,-4.461,-4.461,-4.461,-4.461,-4.461,-4.461,-4.461,-4.461,-4.461,-4.461,-4.4648,-4.5311,-4.604,-4.6777,-4.6832,-4.7208,-4.7892,-4.6549,-4.5771,-4.5771,-4.501,-4.4632,-4.4632,-4.4615,-4.4615,-4.4615,-4.4615,-4.4615,0.0,0.0,-1.9923,-2.0155,-2.1095,-2.1885,-2.1486,-2.1795,-2.2671,-2.4452,-2.443,-2.5171,-2.8534,-2.8574,-2.8573,-2.9802,-2.998,-2.9994,-2.9994,-3.0263,-3.0512,-3.0667,-3.1215,0.0,0.0,0.0,0.0,-3.2421,-3.2587,-3.2669,-3.2669,-3.2669,-3.2535,-3.2225,-3.2359,-3.2287,-3.1988,-3.1888,-3.1816,-3.1805,-3.1516,-3.1215,-3.0915,-3.0915,-3.0954,-3.1,-3.141,-3.2428,-3.3947,-3.496,-3.616,-3.7349,-3.7868,-3.8212,-3.8449,-3.8253,-3.8305,-3.8501,-3.8658,-3.8606,-3.8475,-3.8475,-3.8344,-3.8174,-3.8174,-3.8423,-3.8645,-3.8279,-3.8579,-3.9011,-3.9011,-3.8813,-3.8891,-3.9759,-4.0822,-4.1736,-4.2196,-4.3479,-4.4518,-4.4442,-4.4511,-4.461,-4.461,-4.461,-4.461,-4.461,-4.461,-4.461,-4.461,-4.461,-4.461,-4.461,-4.461,-4.461,-4.461,-4.529,-4.6005,-4.6742,-4.7259,-4.7875,-4.8599,-4.7699,-4.6938,-4.643,-4.5703,-4.5077,-4.4615,-4.4615,-4.4615,-4.4615,-4.4615,-4.4615,0.0,-1.9345,-2.0089,-2.0429,-2.1024,-2.1454,-2.1208,-2.1264,-2.1892,-2.3489,-2.3471,-2.4296,-2.8081,-2.8074,-2.8077,-2.9755,-2.9913,-2.9879,-2.9879,-3.0218,-3.0622,-3.0915,-3.1588,-3.205,0.0,0.0,0.0,-3.2706,-3.2669,-3.2669,-3.2669,-3.2669,-3.2535,-3.2246,-3.2359,-3.2287,-3.1988,-3.1888,-3.1805,-3.1795,-3.1516,-3.1215,-3.0936,-3.0936,-3.0975,-3.1074,-3.1271,-3.2218,-3.3554,-3.4421,-3.5522,-3.6662,-3.7353,-3.7703,-3.79,-3.79,-3.79,-3.7952,-3.8292,-3.8187,-3.79,-3.79,-3.79,-3.79,-3.79,-3.8148,-3.8344,-3.8004,-3.8161,-3.8423,-3.8423,-3.8412,-3.8495,-3.9111,-4.0165,-4.1199,-4.1666,-4.2939,-4.4019,-4.425,-4.4458,-4.461,-4.461,-4.461,-4.461,-4.461,-4.461,-4.461,-4.461,-4.461,-4.461,-4.461,-4.461,-4.461,-4.461,-4.529,-4.6005,-4.6742,-4.7489,-4.8242,-4.897,-4.8308,-4.7564,-4.6802,-4.6075,-4.5331,-4.4615,-4.4615,-4.4615,-4.4615,-4.4615,-4.4615,-1.9169,-1.9279,-1.9426,-1.9742,-1.983,-1.9952,-2.0581,-2.072,-2.1145,-2.2686,-2.3203,-2.4236,0.0,0.0,-2.8184,-2.947,-2.9657,-2.9627,-2.9606,-2.9952,-3.0529,0.0,0.0,0.0,0.0,0.0,0.0,-3.2669,-3.2669,-3.2669,-3.2669,-3.2669,-3.2659,-3.2638,-3.2235,-3.2008,-3.1988,-3.165,-3.1443,-3.1443,-3.1443,-3.1433,-3.1412,-3.1412,-3.196,-3.2877,-3.358,-3.4462,-3.5531,-3.6143,-3.6678,-3.7147,-3.7121,-3.7459,-3.79,-3.79,-3.79,-3.79,-3.79,-3.79,-3.79,-3.79,-3.79,-3.79,-3.79,-3.79,-3.79,-3.79,-3.79,-3.79,-3.79,-3.8517,-3.9315,-3.9988,-4.0977,-4.2038,-4.3015,-4.354,-4.3892,-4.4219,-4.4473,-4.4587,-4.461,-4.461,-4.461,-4.461,-4.461,-4.461,-4.461,-4.461,-4.461,-4.461,-4.461,-4.461,-4.461,-4.5253,-4.5969,-4.6742,-4.7456,-4.8193,-4.897,-4.8308,-4.7564,-4.6802,-4.6075,-4.5331,-4.4615,-4.4615,-4.4615,-4.4615,-4.4615,-4.4615,-1.8957,-1.9264,-1.9713,-1.9793,-1.9938,-2.0223,-2.0633,-2.072,-2.1145,-2.2686,-2.2532,-2.2945,0.0,0.0,0.0,-2.8037,-2.9233,0.0,-2.9657,-3.0227,0.0,-3.136,0.0,-3.2545,-3.2659,-3.2669,0.0,0.0,-3.2669,-3.2669,-3.2669,-3.2669,-3.2514,-3.2173,-3.238,-3.2328,-3.1988,-3.2271,-3.2385,-3.2385,-3.2385,-3.2209,-3.1868,-3.1868,-3.1847,-3.1831,-3.2854,-3.3926,-3.4967,-3.5779,-3.6755,-3.7698,-3.7474,-3.7598,-3.79,-3.79,-3.79,-3.79,-3.79,-3.79,-3.79,-3.79,-3.79,-3.79,-3.79,-3.79,-3.79,-3.79,-3.79,-3.79,-3.79,-3.807,-3.8434,-3.9235,-3.9694,-4.0368,-4.2179,-4.2647,-4.2968,-4.3886,-4.4243,-4.4419,-4.4572,-4.461,-4.461,-4.461,-4.461,-4.461,-4.461,-4.461,-4.461,-4.461,-4.461,-4.461,-4.461,-4.4746,-4.5421,-4.6708,-4.6983,-4.7671,-4.894,-4.8308,-4.7564,-4.6802,-4.6075,-4.5331,-4.4615,-4.4615,-4.4615,-4.4615,-4.4615,-4.4615,-1.9052,-1.9272,-1.9616,-1.9901,-2.0106,-2.0307,-2.083,-2.094,-2.1154,-2.2055,-2.2034,0.0,-2.4277,-2.5666,0.0,0.0,0.0,0.0,-2.9426,-3.0275,-3.1011,0.0,-3.2178,0.0,-3.2669,-3.2669,-3.2669,0.0,-3.2669,-3.2669,-3.2669,-3.2669,-3.2556,-3.2297,-3.2535,-3.2545,-3.2287,-3.2545,-3.2669,-3.2669,-3.2669,-3.2535,-3.2287,-3.2287,-3.2479,-3.2817,-3.3701,-3.4751,-3.5815,-3.6586,-3.7379,-3.8082,-3.7663,-3.774,-3.8054,-3.7794,-3.7808,-3.79,-3.79,-3.79,-3.79,-3.79,-3.79,-3.79,-3.79,-3.79,-3.79,-3.79,-3.79,-3.79,-3.79,-3.8181,-3.8594,-3.9077,-3.9505,-4.0246,-4.1838,-4.2249,-4.2629,-4.3778,-4.4166,-4.4358,-4.4473,-4.4549,-4.461,-4.461,-4.461,-4.461,-4.461,-4.461,-4.461,-4.461,-4.461,-4.461,-4.461,-4.4896,-4.5458,-4.6253,-4.6898,-4.7655,-4.8482,-4.8442,-4.8054,-4.731,-4.6887,-4.6143,-4.5077,-4.5077,-4.4936,-4.4615,-4.4615,-4.4615,-1.9279,-1.9338,-1.9535,-2.0098,-2.0249,-2.0516,-2.1079,-2.1211,-2.1211,-2.1211,0.0,-2.2364,-2.3153,-2.4713,-2.6122,-2.6844,0.0,-2.898,-2.9142,-3.0167,-3.1011,-3.1371,-3.2178,-3.269,-3.2809,-3.2768,-3.2758,-3.282,-3.2768,-3.2669,-3.2669,-3.2669,-3.2669,-3.2669,-3.2669,-3.2669,-3.2669,-3.2669,-3.2669,-3.2669,-3.2669,-3.2669,-3.2669,-3.2669,-3.3388,-3.4569,-3.5199,-3.6127,-3.7268,-3.7878,-3.8276,-3.8423,-3.7914,-3.7935,-3.8247,-3.7756,-3.7722,-3.79,-3.79,-3.79,-3.79,-3.79,-3.79,-3.79,-3.79,-3.79,-3.79,-3.79,-3.79,-3.79,-3.79,-3.8472,-3.9046,-3.9166,-3.9812,-4.0731,-4.1769,-4.2222,-4.2725,-4.3778,-4.4127,-4.4281,-4.4281,-4.4473,-4.461,-4.461,-4.461,-4.461,-4.461,-4.461,-4.461,-4.461,-4.461,-4.461,-4.461,-4.5179,-4.5588,-4.5697,-4.7001,-4.7787,-4.7885,-4.8524,-4.8562,-4.7906,-4.7787,-4.7111,-4.5855,-4.5754,-4.5365,-4.475,-4.4649,-4.4615,-1.9279,-1.9667,-2.0098,-2.0154,-2.064,-2.1072,-2.1181,-2.1211,0.0,0.0,-2.1511,-2.1737,-2.163,-2.3405,-2.4994,-2.545,0.0,0.0,-2.9384,-3.0319,-3.1011,0.0,-3.2178,-3.2871,-3.3234,-3.2944,0.0,0.0,-3.2934,-3.2669,-3.2669,-3.2669,-3.2669,-3.2669,-3.2669,-3.2669,-3.2669,-3.2669,-3.2669,-3.2669,-3.2669,-3.2669,-3.2669,-3.2669,-3.3388,-3.458,-3.5615,-3.6717,-3.7822,-3.8461,-3.8869,-3.9006,-3.8497,-3.828,-3.8299,-3.8196,-3.8059,-3.79,-3.79,-3.79,-3.79,-3.79,-3.79,-3.79,-3.79,-3.79,-3.79,-3.79,-3.79,-3.79,-3.79,-3.8024,-3.8317,-3.9046,-3.9329,-3.9899,-4.1645,-4.2578,-4.325,-4.3675,-4.391,-4.4089,-4.4281,-4.4473,-4.461,-4.461,-4.461,-4.461,-4.461,-4.461,-4.461,-4.461,-4.461,-4.461,-4.461,-4.4723,-4.5067,-4.566,-4.6499,-4.7238,-4.7885,-4.8006,-4.8024,-4.7889,-4.731,-4.6853,-4.6599,-4.6007,-4.5635,-4.55,-4.4874,-4.4615,-1.9279,-1.9623,-2.0033,-2.0194,-2.0596,-2.1006,-2.1167,0.0,0.0,0.0,-2.1467,-2.1598,-2.1269,-2.2779,0.0,-2.4058,0.0,0.0,0.0,0.0,0.0,0.0,-3.1961,-3.2551,0.0,-3.2851,-3.282,-3.3027,-3.2851,-3.2669,-3.2669,-3.2669,-3.2669,-3.2669,-3.2669,-3.2669,-3.2669,-3.2669,-3.2669,-3.2669,-3.2669,-3.2669,-3.2669,-3.2669,-3.3649,-3.5443,-3.5968,-3.718,-3.8856,-3.9191,-3.9397,-3.9385,-3.8881,-3.8786,-3.8907,-3.8315,-3.8178,-3.8279,-3.8004,-3.79,-3.79,-3.79,-3.79,-3.79,-3.79,-3.79,-3.79,-3.79,-3.79,-3.79,-3.79,-3.8226,-3.8671,-3.9121,-3.9942,-4.0901,-4.1811,-4.2699,-4.3329,-4.3463,-4.3675,-4.391,-4.4089,-4.432,-4.4473,-4.4572,-4.461,-4.461,-4.461,-4.461,-4.461,-4.461,-4.461,-4.461,-4.461,-4.461,-4.4761,-4.5104,-4.5805,-4.6569,-4.7288,-4.7716,-4.8073,-4.8446,-4.8139,-4.775,-4.7378,-4.7022,-4.6464,-4.5703,-4.572,-4.5343,-1.9412,-1.9616,-1.9938,-2.0259,-2.053,-2.0808,-2.1137,-2.1159,0.0,0.0,-2.1415,-2.1511,-2.1262,0.0,-2.3022,0.0,-2.5232,-2.706,0.0,0.0,0.0,0.0,0.0,0.0,-3.2695,-3.2731,0.0,-3.2861,-3.2789,-3.2669,-3.2669,-3.2669,-3.2669,-3.2669,-3.2669,-3.2669,-3.2669,-3.2669,-3.2669,-3.2669,-3.2669,-3.2669,-3.2727,-3.2955,-3.4246,-3.6185,-3.6468,-3.7779,-3.9697,-3.9697,-3.9697,-3.9647,-3.922,-3.9259,-3.9418,-3.8487,-3.835,-3.8564,-3.8134,-3.7958,-3.79,-3.79,-3.79,-3.79,-3.79,-3.79,-3.79,-3.79,-3.79,-3.7946,-3.8148,-3.8671,-3.9285,-3.9681,-4.0944,-4.2032,-4.2237,-4.2835,-4.329,-4.329,-4.3518,-4.3769,-4.391,-4.4143,-4.4358,-4.4511,-4.4572,-4.461,-4.461,-4.461,-4.461,-4.461,-4.461,-4.461,-4.461,-4.461,-4.461,-4.461,-4.5274,-4.6005,-4.6777,-4.7522,-4.8242,-4.9001,-4.9001,-4.8714,-4.8125,-4.7973,-4.7212,-4.5957,-4.6363,-4.5923,-1.9691,-1.9952,-2.0212,-2.0596,-2.0706,-2.0808,-2.1137,0.0,0.0,-2.1152,-2.1233,-2.1247,-2.1218,-2.1347,-2.1847,0.0,0.0,-2.5945,0.0,0.0,0.0,0.0,0.0,0.0,-3.2816,-3.2782,-3.2892,-3.3285,-3.2954,-3.2669,-3.2669,-3.2669,-3.2669,-3.2669,-3.2669,-3.2669,-3.2669,-3.2669,-3.2669,-3.2669,-3.2669,-3.2669,-3.2727,-3.3818,-3.5013,-3.624,-3.7287,-3.8489,-3.9697,-3.9697,-3.9697,-3.9685,-3.9634,-3.9461,-3.9233,-3.9132,-3.8753,-3.8346,-3.8295,-3.8085,-3.79,-3.79,-3.79,-3.79,-3.79,-3.79,-3.79,-3.79,-3.79,-3.807,-3.8881,-3.9121,-3.9637,-4.1338,-4.1867,-4.2211,-4.2996,-4.325,-4.329,-4.329,-4.3518,-4.3729,-4.3729,-4.4065,-4.432,-4.432,-4.4473,-4.461,-4.461,-4.461,-4.461,-4.461,-4.461,-4.461,-4.461,-4.461,-4.461,-4.461,-4.5274,-4.6005,-4.6777,-4.7522,-4.8242,-4.9001,-4.9001,-4.8968,-4.89,-4.824,-4.7496,-4.6667,-4.6075,-4.5737,-1.9433,-1.9842,-2.0212,-2.0343,-2.0728,-2.105,-2.1181,0.0,-2.105,-2.1181,-2.1211,-2.1211,-2.1211,-2.1211,-2.1375,0.0,0.0,0.0,-2.6164,0.0,0.0,0.0,-3.1132,0.0,0.0,0.0,-3.233,-3.2734,-3.2705,-3.2669,-3.2669,-3.2669,-3.2669,-3.2669,-3.2669,-3.2669,-3.2669,-3.2669,-3.2669,-3.2669,-3.2669,-3.2669,-3.2737,-3.3218,-3.4413,-3.624,-3.6684,-3.7938,-3.9697,-3.9697,-3.9697,-3.9697,-3.9697,-3.97,-3.9702,-3.9322,-3.8949,-3.856,-3.8178,-3.7877,-3.7657,-3.7657,-3.7762,-3.79,-3.79,-3.79,-3.79,-3.79,-3.79,-3.7992,-3.8317,-3.8792,-3.9373,-4.0159,-4.1169,-4.2073,-4.2456,-4.2915,-4.329,-4.329,-4.3384,-4.3518,-4.369,-4.3832,-4.4026,-4.4243,-4.4358,-4.4458,-4.4572,-4.461,-4.461,-4.461,-4.461,-4.461,-4.461,-4.461,-4.461,-4.461,-4.4858,-4.5551,-4.6742,-4.7085,-4.7803,-4.897,-4.9001,-4.9001,-4.9001,-4.8714,-4.7953,-4.6786,-4.6955,-4.6566,-1.9448,-1.982,-2.0205,-2.03,-2.0728,-2.1094,0.0,0.0,-2.1094,-2.1189,-2.1211,-2.1211,-2.1211,-2.1211,-2.1211,0.0,0.0,-2.5067,-2.5186,0.0,0.0,0.0,0.0,-3.1267,0.0,-3.2018,-3.2086,-3.2373,-3.2487,-3.2612,-3.2669,-3.2669,-3.2669,-3.2669,-3.2669,-3.2669,-3.2669,-3.2669,-3.2669,-3.2669,-3.2669,-3.2669,-3.2727,-3.3058,-3.4145,-3.5706,-3.6414,-3.7619,-3.9206,-3.953,-3.9697,-3.9697,-3.9697,-3.9839,-3.993,-3.9487,-3.9093,-3.8638,-3.8303,-3.7878,-3.7505,-3.7598,-3.7762,-3.79,-3.79,-3.807,-3.8272,-3.8272,-3.8485,-3.8711,-3.8711,-3.937,-4.0073,-4.0361,-4.1407,-4.2374,-4.2374,-4.2875,-4.329,-4.329,-4.329,-4.3384,-4.3557,-4.3651,-4.3808,-4.4089,-4.4205,-4.4358,-4.4496,-4.4572,-4.461,-4.461,-4.461,-4.461,-4.461,-4.461,-4.461,-4.461,-4.461,-4.5179,-4.6429,-4.6464,-4.7187,-4.8656,-4.8688,-4.8798,-4.9001,-4.9001,-4.8359,-4.7141,-4.7682,-4.7331,-1.972,-1.9989,-2.0256,-2.064,-2.072,-2.0808,0.0,0.0,-2.0823,-2.1145,-2.1211,-2.1211,-2.1211,-2.1211,-2.1211,-2.1211,-2.3191,0.0,-2.5122,-2.7654,0.0,0.0,0.0,-3.0822,-3.1697,-3.2076,-3.243,-3.2669,-3.243,-3.243,-3.268,-3.2669,-3.2669,-3.2669,-3.2669,-3.2669,-3.2669,-3.2669,-3.2669,-3.2669,-3.2669,-3.2669,-3.2727,-3.3931,-3.4469,-3.4636,-3.6911,-3.7897,-3.8003,-3.9206,-3.9697,-3.9697,-3.9697,-3.9697,-3.9697,-3.9685,-3.9133,-3.8421,-3.8728,-3.8225,-3.7551,-3.7808,-3.79,-3.79,-3.79,-3.8517,-3.921,-3.921,-3.9855,-4.0546,-4.0546,-4.1254,-4.2196,-4.3036,-4.325,-4.329,-4.329,-4.329,-4.329,-4.329,-4.329,-4.329,-4.329,-4.3518,-4.369,-4.3729,-4.4065,-4.4281,-4.4281,-4.4473,-4.461,-4.461,-4.461,-4.461,-4.461,-4.461,-4.461,-4.461,-4.461,-4.4918,-4.566,-4.5697,-4.6413,-4.7885,-4.7917,-4.8274,-4.9001,-4.9001,-4.8629,-4.7872,-4.7889,-4.7889,-1.9727,-1.9996,-2.0256,-2.064,-2.0889,-2.1086,-2.1189,0.0,-2.1086,-2.1189,-2.1211,-2.1211,-2.1211,-2.1211,-2.1211,-2.1211,-2.3191,0.0,0.0,0.0,0.0,-2.9221,-3.0003,-3.0524,0.0,0.0,-3.1797,-3.1767,-3.1913,-3.2086,-3.243,-3.243,-3.2487,-3.2669,-3.2669,-3.2669,-3.2669,-3.2669,-3.2669,-3.2669,-3.2669,-3.2669,-3.2727,-3.3115,-3.3717,-3.4591,-3.6088,-3.718,-3.8003,-3.9206,-3.9697,-3.9697,-3.9697,-3.9697,-3.9647,-3.927,-3.8705,-3.8112,-3.8026,-3.7654,-3.7261,-3.7551,-3.7749,-3.79,-3.79,-3.8517,-3.9329,-3.9986,-4.0375,-4.0603,-4.0603,-4.1296,-4.1908,-4.1532,-4.2386,-4.313,-4.2537,-4.2875,-4.329,-4.329,-4.329,-4.329,-4.329,-4.3384,-4.3503,-4.369,-4.3808,-4.3949,-4.4065,-4.4127,-4.4166,-4.4166,-4.432,-4.4473,-4.4587,-4.461,-4.461,-4.461,-4.461,-4.4933,-4.566,-4.5697,-4.6147,-4.7119,-4.7655,-4.8015,-4.8242,-4.875,-4.8629,-4.7889,-4.7889,-4.7889,0.0,-1.9996,-2.0256,-2.064,-2.0969,0.0,0.0,0.0,-2.1211,-2.1211,-2.1211,-2.1211,-2.1211,-2.1211,-2.1375,-2.1824,-2.3463,-2.4837,0.0,0.0,0.0,-2.8916,0.0,0.0,0.0,-3.0797,-3.1305,-3.1469,-3.1672,-3.196,-3.2305,-3.2373,-3.2555,-3.2669,-3.2669,-3.2669,-3.2669,-3.2669,-3.2669,-3.2669,-3.2669,-3.2669,-3.2669,-3.2669,-3.3388,-3.458,-3.5706,-3.6846,0.0,-3.9206,-3.9697,-3.9697,-3.9697,-3.9697,-3.9634,-3.9082,-3.8504,-3.7976,-3.7678,-3.7299,-3.7015,-3.7366,-3.7703,-3.7946,-3.8272,-3.9015,-3.9855,-4.0418,-4.0859,-4.1113,-4.1113,-4.1561,-4.1867,-4.1254,-4.1976,-4.2659,-4.2114,-4.2415,-4.2915,-4.325,-4.329,-4.329,-4.329,-4.329,-4.3384,-4.3518,-4.3636,-4.3769,-4.3871,-4.3949,-4.3988,-4.3988,-4.4089,-4.4243,-4.4358,-4.4435,-4.4511,-4.4511,-4.4511,-4.4648,-4.5052,-4.5126,-4.5515,-4.6253,-4.6726,-4.7272,-4.7885,-4.8656,-4.8765,-4.8342,-4.8342,-4.8159,0.0,0.0,0.0,0.0,0.0,0.0,0.0,0.0,0.0,-2.1211,-2.1211,-2.1211,-2.1211,-2.1211,-2.1596,-2.2813,-2.3958,-2.5113,0.0,-2.7844,0.0,0.0,-2.9459,0.0,-2.9921,-3.0383,-3.0933,-3.1649,-3.172,-3.1903,-3.2248,-3.2457,-3.2628,-3.2628,-3.2597,-3.2664,-3.2669,-3.2669,-3.2669,-3.2669,-3.2669,-3.2669,-3.2669,-3.2669,-3.3388,-3.458,-3.5706,-3.6846,-3.8003,-3.9206,-3.9697,-3.9697,-3.9697,-3.9672,-3.9572,-3.9019,-3.8442,-3.7913,-3.7615,-3.7166,-3.6815,-3.7307,-3.7657,-3.8024,-3.8881,-3.9768,-4.0504,-4.0646,-4.1338,-4.2032,-4.2073,-4.2073,-4.2073,-4.2032,-4.2032,-4.2073,-4.199,-4.2032,-4.2319,-4.313,-4.329,-4.329,-4.329,-4.329,-4.329,-4.329,-4.3518,-4.369,-4.369,-4.3832,-4.3949,-4.3949,-4.3988,-4.3988,-4.3988,-4.4166,-4.4281,-4.4281,-4.4281,-4.4205,-4.4026,-4.4166,-4.4594,-4.5295,-4.5442,-4.6272,-4.7885,-4.8656,-4.9001,-4.9001,-4.9001,-4.8646,-1.9967,0.0,-2.0321,-2.0947,-2.1152,0.0,0.0,0.0,0.0,0.0,0.0,0.0,0.0,-2.1211,-2.1596,-2.2813,-2.3958,-2.5113,-2.63,0.0,0.0,-2.8437,-2.875,-2.9055,-2.9153,-2.976,-3.0307,-3.0551,-3.0915,-3.1344,-3.1903,-3.1637,-3.1681,-3.2142,-3.1878,-3.2033,-3.2669,-3.2669,-3.2669,-3.2669,-3.2669,-3.2669,-3.2669,-3.2669,-3.3388,-3.458,-3.5706,-3.6846,-3.8003,-3.9206,-3.9697,-3.9697,-3.9697,-3.9433,-3.9045,-3.8417,-3.7852,-3.7348,-3.702,-3.6836,-3.6815,-3.7307,-3.7551,-3.7657,-3.8103,-3.8805,-3.9812,-4.1254,-4.1811,-4.2155,-4.2835,-4.2996,-4.2835,-4.2155,-4.2496,-4.2795,-4.2155,-4.2537,-4.3036,-4.325,-4.329,-4.329,-4.329,-4.329,-4.329,-4.329,-4.3344,-4.3384,-4.3384,-4.3423,-4.3448,-4.3448,-4.3636,-4.3769,-4.3769,-4.3949,-4.4065,-4.4065,-4.4065,-4.4065,-4.3988,-4.4065,-4.4166,-4.4343,-4.5572,-4.6795,-4.7885,-4.8656,-4.9001,-4.9001,-4.9001,-4.8917,-2.0634,-2.055,-2.0336,-2.105,-2.1211,-2.1211,0.0,0.0,0.0,0.0,0.0,0.0,0.0,0.0,0.0,-2.3575,-2.4735,0.0,0.0,0.0,-2.8291,-2.8291,-2.8408,-2.8628,0.0,-2.9251,-2.962,-2.9873,-3.026,-3.0626,-3.0957,-3.0999,-3.1147,-3.1491,-3.144,-3.1609,-3.2106,-3.2106,-3.2106,-3.2106,-3.2106,-3.2219,-3.2416,-3.2948,-3.3939,-3.5333,-3.6468,-3.7476,-3.8396,-3.9052,-3.9157,-3.8919,-3.8919,-3.873,-3.8404,-3.7839,-3.7437,-3.7159,-3.6736,-3.6628,-3.6769,-3.7062,-3.7307,-3.7505,-3.7657,-3.8122,-3.8895,-4.0303,-4.1029,-4.1561,-4.2456,-4.2699,-4.2578,-4.2114,-4.2374,-4.2578,-4.2114,-4.2374,-4.282,-4.321,-4.329,-4.329,-4.329,-4.329,-4.329,-4.329,-4.329,-4.329,-4.329,-4.329,-4.329,-4.329,-4.3423,-4.3518,-4.3518,-4.3621,-4.3738,-4.3832,-4.3871,-4.3793,-4.3699,-4.3793,-4.3871,-4.3871,-4.5258,-4.6397,-4.7239,-4.8096,-4.8656,-4.9001,-4.9001,-4.8832,-2.1094,-2.0847,-2.0333,-2.1035,-2.1211,-2.1211,0.0,0.0,0.0,0.0,0.0,0.0,0.0,0.0,0.0,0.0,0.0,0.0,-2.8184,-2.8291,-2.8291,-2.8291,-2.8291,0.0,-2.8789,-2.8877,-2.9072,-2.9443,-2.9764,-2.997,-2.997,-3.0454,-3.0734,-3.0778,-3.1075,-3.1164,-3.1164,-3.1309,-3.1381,-3.1381,-3.1381,-3.1578,-3.194,-3.295,-3.4337,-3.601,-3.6997,-3.7926,-3.8743,-3.8743,-3.8442,-3.8002,-3.8002,-3.7952,-3.7826,-3.7362,-3.7136,-3.6998,-3.6568,-3.6499,-3.6675,-3.6675,-3.7015,-3.74,-3.7459,-3.7657,-3.8011,-3.8792,-3.9651,-4.0603,-4.1561,-4.1908,-4.199,-4.199,-4.2114,-4.2211,-4.2211,-4.2211,-4.2415,-4.317,-4.329,-4.329,-4.329,-4.329,-4.329,-4.329,-4.329,-4.329,-4.329,-4.329,-4.329,-4.329,-4.329,-4.329,-4.329,-4.329,-4.3384,-4.3596,-4.3636,-4.3557,-4.329,-4.3518,-4.3651,-4.369,-4.4752,-4.5629,-4.6346,-4.7356,-4.8193,-4.8829,-4.894,-4.868,-1.9938,-1.9988,-2.0055,-2.0984,-2.1211,-2.1211,-2.1211,0.0,0.0,0.0,0.0,0.0,0.0,-2.2869,-2.3695,0.0,0.0,-2.8077,0.0,0.0,-2.8291,-2.8291,0.0,-2.831,-2.8389,-2.8711,-2.8945,-2.9014,-2.9421,-2.9748,-2.998,-2.9998,-3.0059,-3.0309,-3.0238,-3.0212,-3.0212,-3.0988,-3.1381,-3.1381,-3.1381,-3.1412,-3.1474,-3.1694,-3.2922,-3.4964,-3.512,-3.6326,-3.814,-3.814,-3.809,-3.8002,-3.8002,-3.7713,-3.7299,-3.7211,-3.6885,-3.6518,-3.6443,-3.6405,-3.6452,-3.6628,-3.6769,-3.6909,-3.7353,-3.7505,-3.7657,-3.8011,-3.8715,-3.9637,-4.0546,-4.138,-4.199,-4.199,-4.2578,-4.3076,-4.3076,-4.3076,-4.313,-4.325,-4.329,-4.329,-4.329,-4.329,-4.329,-4.329,-4.329,-4.329,-4.329,-4.329,-4.329,-4.329,-4.329,-4.329,-4.329,-4.329,-4.3329,-4.3384,-4.3384,-4.3329,-4.329,-4.3329,-4.3463,-4.369,-4.4465,-4.511,-4.5572,-4.6968,-4.7803,-4.8096,-4.8719,-4.8951,-2.0393,-2.0226,-1.9962,-2.053,-2.0684,-2.0684,-2.0684,0.0,0.0,0.0,0.0,0.0,0.0,0.0,-2.468,-2.7079,0.0,-2.8291,-2.8291,-2.8291,-2.8291,0.0,0.0,-2.8291,-2.8291,-2.8467,-2.8584,-2.8584,-2.8769,-2.8931,-2.905,-2.9188,-2.9337,-2.9584,-2.9719,-2.9827,-2.9994,-3.0419,-3.0626,-3.0626,-3.0626,-3.076,-3.1052,-3.1667,-3.2924,-3.4722,-3.5355,-3.6333,-3.7563,-3.7563,-3.7387,-3.7123,-3.7123,-3.696,-3.6782,-3.6782,-3.6619,-3.6405,-3.6405,-3.6405,-3.6405,-3.6499,-3.6628,-3.6769,-3.7015,-3.7168,-3.7307,-3.7413,-3.7939,-3.8729,-3.9607,-4.0159,-4.0731,-4.1769,-4.2333,-4.2754,-4.321,-4.329,-4.329,-4.329,-4.329,-4.329,-4.329,-4.329,-4.329,-4.329,-4.329,-4.329,-4.329,-4.329,-4.329,-4.329,-4.329,-4.329,-4.329,-4.329,-4.329,-4.329,-4.329,-4.329,-4.329,-4.329,-4.3384,-4.3463,-4.3957,-4.4541,-4.5258,-4.6008,-4.6916,-4.7917,-4.8242,-4.8625,-2.0601,-2.0317,-1.9725,-2.0047,0.0,-2.0278,-2.0197,0.0,0.0,0.0,0.0,0.0,0.0,-2.4569,0.0,-2.8014,-2.8291,-2.8291,-2.8291,-2.8291,-2.8291,-2.8291,-2.8291,-2.8291,-2.8291,-2.8291,-2.8291,-2.8291,-2.8291,-2.8291,-2.8291,-2.8568,-2.8781,-2.8983,-2.9396,-2.9722,-2.9889,-2.9994,-2.9994,-2.9994,-2.9994,-3.018,-3.0575,-3.1422,-3.2641,-3.4016,-3.5157,-3.601,-3.6635,-3.6889,-3.6782,-3.6405,-3.6405,-3.6405,-3.6405,-3.6405,-3.6405,-3.6405,-3.6405,-3.6405,-3.6405,-3.6405,-3.6499,-3.6628,-3.6675,-3.6862,-3.7015,-3.7062,-3.7459,-3.7965,-3.8612,-3.8988,-3.9549,-4.0986,-4.1505,-4.1852,-4.2522,-4.282,-4.2996,-4.2996,-4.317,-4.329,-4.329,-4.329,-4.329,-4.329,-4.329,-4.329,-4.329,-4.329,-4.329,-4.329,-4.329,-4.329,-4.329,-4.329,-4.329,-4.329,-4.329,-4.329,-4.329,-4.329,-4.329,-4.329,-4.3518,-4.3996,-4.4752,-4.5147,-4.6008,-4.7323,-4.7721,-4.8161,-1.9405,-1.9413,-1.9441,-1.9771,0.0,0.0,-2.0249,-2.0706,0.0,0.0,0.0,0.0,0.0,-2.6509,-2.8121,-2.8291,-2.8291,-2.8291,-2.8291,0.0,-2.8291,-2.8291,-2.8291,-2.8291,-2.8291,-2.8291,-2.8291,-2.8291,-2.8291,-2.8291,-2.8291,-2.8568,-2.8727,-2.8737,-2.93,-2.9606,-2.9606,-2.9879,-2.9994,-2.9994,-2.9994,-3.0015,-3.0046,-3.014,-3.0756,-3.1878,-3.2953,-3.4026,-3.503,-3.6075,-3.6443,-3.6405,-3.6405,-3.6405,-3.6405,-3.6405,-3.6405,-3.6405,-3.6405,-3.6405,-3.6405,-3.6405,-3.6405,-3.6452,-3.6628,-3.6709,-3.6769,-3.7015,-3.7307,-3.7551,-3.7598,-3.84,-3.9241,-3.9373,-4.0073,-4.0731,-4.076,-4.1463,-4.2073,-4.2073,-4.2754,-4.329,-4.329,-4.329,-4.329,-4.329,-4.329,-4.329,-4.329,-4.329,-4.329,-4.329,-4.329,-4.329,-4.329,-4.329,-4.329,-4.329,-4.329,-4.329,-4.329,-4.329,-4.329,-4.329,-4.3329,-4.3503,-4.3793,-4.4677,-4.5279,-4.5608,-4.7171,-4.7836,-1.948,-1.9279,-1.9301,-1.9485,0.0,0.0,0.0,0.0,0.0,0.0,-2.219,0.0,0.0,0.0,-2.8291,-2.8291,-2.8291,-2.8291,-2.8291,-2.8291,-2.8291,-2.8291,-2.8291,-2.8291,-2.8291,-2.8291,-2.8291,-2.8291,-2.8291,-2.8291,-2.8291,-2.8408,-2.8514,-2.8674,-2.894,-2.9248,-2.9606,-2.9722,-2.9827,-2.9994,-2.9994,-2.9994,-2.9994,-2.9994,-3.0588,-3.1677,-3.2739,-3.3796,-3.4872,-3.5966,-3.6405,-3.6405,-3.6405,-3.6405,-3.6405,-3.6405,-3.6405,-3.6405,-3.6405,-3.6405,-3.6405,-3.6405,-3.6405,-3.6405,-3.6499,-3.6499,-3.6534,-3.664,-3.6934,-3.7307,-3.7459,-3.7952,-3.8517,-3.9077,-3.9461,-3.9899,-4.0461,-4.1338,-4.199,-4.199,-4.2699,-4.329,-4.329,-4.329,-4.329,-4.329,-4.329,-4.329,-4.329,-4.329,-4.329,-4.329,-4.329,-4.329,-4.329,-4.329,-4.329,-4.329,-4.329,-4.329,-4.329,-4.329,-4.329,-4.329,-4.329,-4.3423,-4.369,-4.405,-4.4579,-4.5258,-4.6467,-4.7154,-1.9576,-1.9279,-1.9353,0.0,0.0,0.0,0.0,0.0,0.0,0.0,-2.3045,0.0,0.0,0.0,0.0,0.0,-2.8291,-2.8291,-2.8291,-2.8291,-2.8291,-2.8291,-2.8291,-2.8291,-2.8291,-2.8291,-2.8291,-2.8291,-2.8291,-2.8291,-2.8291,-2.8291,-2.8398,-2.8568,-2.8674,-2.8887,-2.93,-2.9501,-2.9711,-2.9879,-2.9942,-2.9994,-2.9994,-2.9994,-3.0391,-3.1187,-3.26,-3.3598,-3.4385,-3.5823,-3.6405,-3.6405,-3.6405,-3.6405,-3.6405,-3.6405,-3.6405,-3.6405,-3.6405,-3.6405,-3.6405,-3.6405,-3.6405,-3.6405,-3.6405,-3.6405,-3.6405,-3.6405,-3.6734,-3.7155,-3.7307,-3.7657,-3.807,-3.8639,-3.8792,-3.897,-3.9621,-4.0475,-4.1212,-4.1505,-4.2278,-4.2955,-4.325,-4.329,-4.329,-4.329,-4.329,-4.329,-4.329,-4.329,-4.329,-4.329,-4.329,-4.329,-4.329,-4.329,-4.329,-4.329,-4.329,-4.329,-4.329,-4.329,-4.329,-4.329,-4.329,-4.3384,-4.3557,-4.3651,-4.405,-4.4677,-4.5608,-4.6221,-1.9583,-1.9279,0.0,0.0,0.0,0.0,0.0,0.0,0.0,0.0,0.0,-2.6862,-2.8067,0.0,0.0,-2.8291,-2.8291,-2.8291,-2.8291,-2.8291,-2.8291,-2.8291,-2.8291,-2.8291,-2.8291,-2.8291,-2.8291,-2.8291,-2.8291,-2.8291,-2.8291,-2.8291,-2.8291,-2.8291,-2.8568,-2.8684,-2.8684,-2.93,-2.9606,-2.9606,-2.9879,-2.9994,-2.9994,-2.9994,-2.9994,-3.0141,-3.2246,-3.3201,-3.335,-3.5523,-3.6405,-3.6405,-3.6405,-3.6405,-3.6405,-3.6405,-3.6405,-3.6405,-3.6405,-3.6405,-3.6405,-3.6405,-3.6405,-3.6405,-3.6405,-3.6405,-3.6405,-3.6405,-3.6734,-3.7108,-3.7108,-3.7505,-3.79,-3.79,-3.79,-3.79,-3.79,-3.8594,-3.9461,-4.0418,-4.1338,-4.2237,-4.313,-4.329,-4.329,-4.329,-4.329,-4.329,-4.329,-4.329,-4.329,-4.329,-4.329,-4.329,-4.329,-4.329,-4.329,-4.329,-4.329,-4.329,-4.329,-4.329,-4.329,-4.329,-4.329,-4.329,-4.329,-4.3557,-4.369,-4.3729,-4.4639,-4.4999,-1.9324,0.0,0.0,0.0,0.0,0.0,0.0,0.0,0.0,0.0,0.0,-2.6862,-2.8067,0.0,0.0,-2.8291,-2.8291,-2.8291,-2.8291,-2.8291,-2.8291,-2.8291,-2.8291,-2.8291,-2.8291,-2.8291,-2.8291,-2.8291,-2.8291,-2.8291,-2.8291,-2.8291,-2.8291,-2.8291,-2.8398,-2.8514,-2.8684,-2.8887,-2.9036,-2.9237,-2.9343,-2.9564,-2.9994,-2.9994,-2.9994,-3.0141,-3.2246,-3.3201,-3.335,-3.5523,-3.6405,-3.6405,-3.6405,-3.6405,-3.6405,-3.6405,-3.6405,-3.6405,-3.6405,-3.6405,-3.6405,-3.6405,-3.6405,-3.6405,-3.6405,-3.6405,-3.6405,-3.6405,-3.6581,-3.6862,-3.7062,-3.7366,-3.7657,-3.7854,-3.79,-3.79,-3.79,-3.8594,-3.9461,-4.0418,-4.0817,-4.1296,-4.2237,-4.1838,-4.163,-4.2278,-4.2415,-4.2618,-4.321,-4.329,-4.329,-4.329,-4.329,-4.329,-4.329,-4.329,-4.329,-4.329,-4.329,-4.329,-4.329,-4.329,-4.329,-4.329,-4.329,-4.329,-4.329,-4.3384,-4.3423,-4.3423,-4.4412,-4.4774,-2.0585,0.0,0.0,0.0,0.0,0.0,0.0,0.0,0.0,0.0,0.0,-2.7267,-2.8155,-2.8291,0.0,-2.8291,-2.8291,-2.8291,-2.8291,-2.8291,-2.8291,-2.8291,-2.8291,-2.8291,-2.8291,-2.8291,-2.8291,-2.8291,-2.8291,-2.8291,-2.8291,-2.8291,-2.8291,-2.8291,-2.8291,-2.8398,-2.8514,-2.8631,-2.8781,-2.893,-2.9026,-2.929,-2.9669,-2.9774,-3.0088,-3.0588,-3.2839,-3.4091,-3.4581,-3.587,-3.6405,-3.6405,-3.6405,-3.6405,-3.6405,-3.6405,-3.6405,-3.6405,-3.6405,-3.6405,-3.6405,-3.6405,-3.6405,-3.6405,-3.6405,-3.6405,-3.6405,-3.6405,-3.6534,-3.6756,-3.7015,-3.7307,-3.7564,-3.7854,-3.79,-3.79,-3.79,-3.8304,-3.906,-4.0346,-4.0289,-4.0461,-4.1769,-4.1212,-4.0901,-4.1867,-4.2278,-4.2714,-4.325,-4.329,-4.329,-4.329,-4.329,-4.329,-4.329,-4.329,-4.329,-4.329,-4.329,-4.329,-4.329,-4.329,-4.329,-4.329,-4.329,-4.329,-4.329,-4.329,-4.329,-4.3329,-4.3927,-4.4143,0.0,0.0,0.0,0.0,0.0,0.0,0.0,0.0,-2.5029,-2.5396,0.0,-2.7793,-2.8213,-2.8291,-2.8291,-2.8291,-2.8291,-2.8291,-2.8291,-2.8291,-2.8291,-2.8291,-2.8291,-2.8291,-2.8291,-2.8291,-2.8291,-2.8291,-2.8291,-2.8291,-2.8291,-2.8291,-2.8291,-2.8291,-2.8291,-2.8291,-2.8291,-2.8514,-2.8674,-2.8684,-2.893,-2.9026,-2.9026,-2.9396,-3.0266,-3.1483,-3.3685,-3.5319,-3.6405,-3.6405,-3.6405,-3.6405,-3.6405,-3.6405,-3.6405,-3.6405,-3.6405,-3.6405,-3.6405,-3.6405,-3.6405,-3.6405,-3.6405,-3.6405,-3.6405,-3.6405,-3.6405,-3.6405,-3.6534,-3.6722,-3.7015,-3.7261,-3.7505,-3.7808,-3.79,-3.79,-3.79,-3.79,-3.8408,-4.013,-3.9724,-3.9651,-4.1421,-4.0944,-4.0689,-4.1728,-4.2699,-4.329,-4.329,-4.329,-4.329,-4.329,-4.329,-4.329,-4.329,-4.329,-4.329,-4.329,-4.329,-4.329,-4.329,-4.329,-4.329,-4.329,-4.329,-4.329,-4.329,-4.329,-4.329,-4.329,-4.329,-4.329,0.0,0.0,0.0,0.0,0.0,0.0,0.0,0.0,-2.6123,-2.622,-2.7011,-2.7793,-2.8213,-2.8291,-2.8291,-2.8291,-2.8291,-2.8291,-2.8291,-2.8291,-2.8291,-2.8291,-2.8291,-2.8291,-2.8291,-2.8291,-2.8291,-2.8291,-2.8291,-2.8291,-2.8291,-2.8291,-2.8291,-2.8291,-2.8291,-2.8291,-2.8291,-2.8344,-2.8408,-2.8408,-2.8451,-2.8451,-2.8504,-2.9237,-3.0774,-3.2801,-3.33,-3.4629,-3.6405,-3.6405,-3.6405,-3.6405,-3.6405,-3.6405,-3.6405,-3.6405,-3.6405,-3.6405,-3.6405,-3.6405,-3.6405,-3.6405,-3.6405,-3.6405,-3.6405,-3.6405,-3.6405,-3.6405,-3.6452,-3.6499,-3.6722,-3.6815,-3.7015,-3.7459,-3.7749,-3.79,-3.79,-3.79,-3.8239,-3.9299,-3.8819,-3.853,-3.9607,-3.9073,-3.9042,-4.0646,-4.2263,-4.329,-4.329,-4.329,-4.329,-4.329,-4.329,-4.329,-4.329,-4.329,-4.329,-4.329,-4.329,-4.329,-4.329,-4.329,-4.329,-4.329,-4.329,-4.329,-4.329,-4.329,-4.329,-4.329,-4.329,-4.329,0.0,0.0,0.0,0.0,0.0,0.0,0.0,0.0,-2.5967,-2.7094,-2.7516,-2.7793,-2.8213,-2.8291,-2.8291,-2.8291,-2.8291,-2.8291,-2.8291,-2.8291,-2.8291,-2.8291,-2.8291,-2.8213,-2.8018,-2.8174,-2.8203,-2.8008,-2.8174,-2.8291,-2.8291,-2.8291,-2.8291,-2.8291,-2.8291,-2.8291,-2.8291,-2.8291,-2.8291,-2.8291,-2.8291,-2.8354,-2.8514,-2.9628,-3.0908,-3.2297,-3.3438,-3.4581,-3.5667,-3.6216,-3.6405,-3.6405,-3.6405,-3.6405,-3.6405,-3.6405,-3.6405,-3.6405,-3.6405,-3.6405,-3.6405,-3.6405,-3.6405,-3.6405,-3.6405,-3.6405,-3.6405,-3.6405,-3.6405,-3.6452,-3.6675,-3.6709,-3.6815,-3.7214,-3.7505,-3.7749,-3.7854,-3.79,-3.8148,-3.9046,-3.8517,-3.8194,-3.9033,-3.9193,-3.9502,-4.0475,-4.214,-4.329,-4.329,-4.329,-4.329,-4.329,-4.329,-4.329,-4.329,-4.329,-4.329,-4.329,-4.329,-4.329,-4.329,-4.329,-4.329,-4.329,-4.329,-4.329,-4.329,-4.329,-4.329,-4.329,-4.329,-4.329,0.0,0.0,0.0,0.0,0.0,0.0,0.0,0.0,-2.5317,-2.7665,-2.791,-2.7793,-2.8213,-2.8291,-2.8291,-2.8291,-2.8291,-2.8291,-2.8291,-2.8291,-2.8291,-2.8291,-2.8291,-2.8154,-2.7865,-2.8086,-2.8144,-2.7855,-2.8096,-2.8291,-2.8291,-2.8291,-2.8291,-2.8291,-2.8291,-2.8291,-2.8291,-2.8291,-2.8291,-2.8291,-2.8291,-2.8408,-2.8674,-2.9817,-3.0742,-3.1586,-3.3773,-3.4872,-3.5126,-3.6013,-3.6405,-3.6405,-3.6405,-3.6405,-3.6405,-3.6405,-3.6405,-3.6405,-3.6405,-3.6405,-3.6405,-3.6405,-3.6405,-3.6405,-3.6405,-3.6405,-3.6405,-3.6405,-3.6405,-3.6452,-3.6628,-3.6675,-3.6722,-3.6968,-3.7201,-3.7459,-3.7749,-3.7854,-3.8103,-3.8836,-3.8395,-3.8148,-3.8836,-3.9869,-4.0546,-4.0375,-4.192,-4.309,-4.309,-4.2941,-4.2941,-4.325,-4.317,-4.313,-4.329,-4.329,-4.329,-4.329,-4.329,-4.329,-4.329,-4.329,-4.329,-4.329,-4.329,-4.329,-4.329,-4.329,-4.329,-4.329,-4.329,-4.329,0.0,0.0,0.0,0.0,0.0,0.0,0.0,0.0,-2.4684,0.0,-2.76,-2.7793,-2.8213,-2.8291,-2.8291,-2.8291,-2.8291,-2.8291,-2.8291,-2.8291,-2.8291,-2.8291,-2.8291,-2.8271,-2.8213,-2.8262,-2.8271,-2.8213,-2.8262,-2.8291,-2.8291,-2.8291,-2.8291,-2.8291,-2.8291,-2.8291,-2.8291,-2.8291,-2.8291,-2.8291,-2.8291,-2.8291,-2.8344,-2.8771,-3.0297,-3.2666,-3.3932,-3.5126,-3.6216,-3.6358,-3.6405,-3.6405,-3.6405,-3.6405,-3.6405,-3.6405,-3.6405,-3.6405,-3.6405,-3.6405,-3.6405,-3.6405,-3.6405,-3.6405,-3.6405,-3.6405,-3.6405,-3.6405,-3.6405,-3.6405,-3.6452,-3.6452,-3.6499,-3.6722,-3.6769,-3.6956,-3.7459,-3.7749,-3.7946,-3.807,-3.7992,-3.7946,-3.807,-3.9458,-4.0332,-3.9505,-4.0986,-4.2155,-4.2155,-4.1463,-4.1574,-4.3115,-4.2618,-4.2496,-4.325,-4.329,-4.329,-4.329,-4.329,-4.329,-4.329,-4.329,-4.329,-4.329,-4.329,-4.329,-4.329,-4.329,-4.329,-4.329,-4.329,-4.329,0.0,0.0,0.0,0.0,0.0,0.0,0.0,0.0,-2.4304,-2.5506,-2.6522,-2.7425,-2.816,-2.8291,-2.8291,-2.8291,-2.8291,-2.8291,-2.8291,-2.8291,-2.8291,-2.8291,-2.8291,-2.8203,-2.7969,-2.8154,-2.8193,-2.7959,-2.8164,-2.8291,-2.8291,-2.8291,-2.8291,-2.8291,-2.8291,-2.8291,-2.8291,-2.8291,-2.8291,-2.8291,-2.8291,-2.8291,-2.8344,-2.9069,-3.0141,-3.1502,-3.2767,-3.403,-3.5331,-3.593,-3.6275,-3.6405,-3.6405,-3.6405,-3.6405,-3.6405,-3.6405,-3.6405,-3.6405,-3.6405,-3.6405,-3.6405,-3.6405,-3.6405,-3.6405,-3.6405,-3.6405,-3.6405,-3.6405,-3.6405,-3.6405,-3.6405,-3.6405,-3.6499,-3.6628,-3.6756,-3.7015,-3.7366,-3.7703,-3.7854,-3.79,-3.79,-3.79,-3.9384,-4.0289,-3.9329,-4.0817,-4.1811,-4.1296,-4.0859,-4.1113,-4.2456,-4.2237,-4.236,-4.321,-4.329,-4.329,-4.329,-4.329,-4.329,-4.329,-4.329,-4.329,-4.329,-4.329,-4.329,-4.329,-4.329,-4.329,-4.329,-4.329,-4.329,0.0,0.0,0.0,0.0,0.0,0.0,0.0,0.0,-2.3349,0.0,-2.4763,-2.5906,-2.7121,-2.7815,-2.8184,-2.8184,-2.8237,-2.8291,-2.8291,-2.8291,-2.8291,-2.8291,-2.8291,-2.8164,-2.7851,-2.8105,-2.8164,-2.7904,-2.8115,-2.8291,-2.8291,-2.8291,-2.8291,-2.8291,-2.8291,-2.8291,-2.8291,-2.8291,-2.8291,-2.8291,-2.8291,-2.8291,-2.8344,-2.9112,-2.9775,-3.0338,-3.2022,-3.3327,-3.4385,-3.5464,-3.6051,-3.6323,-3.6323,-3.6323,-3.6405,-3.6405,-3.6405,-3.6405,-3.6405,-3.6405,-3.6405,-3.6405,-3.6405,-3.6405,-3.6405,-3.6405,-3.6405,-3.6405,-3.6405,-3.6405,-3.6405,-3.6405,-3.6405,-3.6405,-3.6499,-3.6675,-3.6862,-3.7214,-3.7564,-3.7854,-3.79,-3.79,-3.79,-3.9206,-3.9942,-3.9015,-4.026,-4.1029,-4.0332,-4.0043,-4.0446,-4.1867,-4.1769,-4.2099,-4.321,-4.329,-4.329,-4.329,-4.329,-4.329,-4.329,-4.329,-4.329,-4.329,-4.329,-4.329,-4.329,-4.329,-4.329,-4.329,-4.329,-4.329,0.0,0.0,0.0,0.0,0.0,0.0,0.0,0.0,0.0,-2.1919,-2.2105,-2.2699,-2.449,-2.6536,-2.7906,-2.7906,-2.8121,-2.8291,-2.8291,-2.8291,-2.8291,-2.8291,-2.8291,-2.8281,-2.8262,-2.8281,-2.8281,-2.8262,-2.8281,-2.8291,-2.8291,-2.8291,-2.8291,-2.8291,-2.8291,-2.8291,-2.8291,-2.8291,-2.8291,-2.8291,-2.8291,-2.8291,-2.8291,-2.8344,-2.8963,-3.0078,-3.2476,-3.3747,-3.4091,-3.5163,-3.5764,-3.6015,-3.6015,-3.6193,-3.6405,-3.6405,-3.6405,-3.6405,-3.6405,-3.6405,-3.6405,-3.6405,-3.6405,-3.6405,-3.6405,-3.6405,-3.6405,-3.6405,-3.6405,-3.6405,-3.6405,-3.6405,-3.6405,-3.6405,-3.6405,-3.6606,-3.7307,-3.7505,-3.7564,-3.7854,-3.79,-3.79,-3.79,-3.8684,-3.897,-3.8103,-3.876,-3.9329,-3.9285,-3.8562,-3.9056,-4.1742,-4.1212,-4.1365,-4.317,-4.329,-4.329,-4.329,-4.329,-4.329,-4.329,-4.329,-4.329,-4.329,-4.329,-4.329,-4.329,-4.329,-4.329,-4.329,-4.329,-4.329,0.0,0.0,0.0,0.0,0.0,0.0,0.0,-2.2029,-2.2703,-2.1499,-2.202,-2.2634,-2.2595,-2.4351,-2.6095,-2.704,-2.7458,-2.7767,-2.8028,-2.8014,-2.8014,-2.8014,-2.7853,-2.7809,-2.8014,-2.8014,-2.8121,-2.8291,-2.8291,-2.8291,-2.8291,-2.8291,-2.8291,-2.8291,-2.8291,-2.8291,-2.8291,-2.8291,-2.8291,-2.8291,-2.8291,-2.8291,-2.8291,-2.8291,-2.8495,-2.8953,-3.0535,-3.2162,-3.3796,-3.4152,-3.486,-3.5764,-3.592,-3.6051,-3.6146,-3.6323,-3.6405,-3.6405,-3.6405,-3.6405,-3.6405,-3.6405,-3.6405,-3.6405,-3.6405,-3.6405,-3.6405,-3.6405,-3.6405,-3.6405,-3.6405,-3.6405,-3.6405,-3.6405,-3.6405,-3.6499,-3.6922,-3.7108,-3.7353,-3.7808,-3.79,-3.79,-3.79,-3.8639,-3.8912,-3.8024,-3.8626,-3.9002,-3.844,-3.8103,-3.8485,-4.0043,-4.0418,-4.1113,-4.2374,-4.2955,-4.329,-4.329,-4.329,-4.329,-4.329,-4.329,-4.329,-4.329,-4.329,-4.329,-4.329,-4.329,-4.329,-4.329,-4.329,-4.329,-1.928,0.0,0.0,0.0,0.0,0.0,-2.0929,0.0,-2.2514,-2.1167,-2.1377,-2.1685,-2.1374,-2.2125,-2.3496,-2.5594,-2.6212,-2.6621,-2.7223,-2.7448,-2.7544,-2.7544,-2.7454,-2.7485,-2.7691,-2.7745,-2.7853,-2.813,-2.8184,-2.8184,-2.8291,-2.8291,-2.8291,-2.8291,-2.8291,-2.8291,-2.8291,-2.8291,-2.8291,-2.8291,-2.8291,-2.8291,-2.8291,-2.8291,-2.8291,-2.8344,-2.9059,-3.0484,-3.2376,-3.2778,-3.3697,-3.4957,-3.5102,-3.5464,-3.5908,-3.6181,-3.6275,-3.6275,-3.6358,-3.6405,-3.6405,-3.6405,-3.6405,-3.6405,-3.6405,-3.6405,-3.6405,-3.6405,-3.6405,-3.6405,-3.6405,-3.6405,-3.6405,-3.6405,-3.6405,-3.6452,-3.6675,-3.6815,-3.7108,-3.7657,-3.7762,-3.7808,-3.79,-3.8395,-3.8549,-3.7992,-3.8395,-3.8549,-3.7979,-3.79,-3.8226,-3.9121,-3.9768,-4.0646,-4.1908,-4.2537,-4.2996,-4.329,-4.329,-4.329,-4.329,-4.329,-4.329,-4.329,-4.329,-4.329,-4.329,-4.329,-4.329,-4.329,-4.329,-4.329,0.0,0.0,0.0,0.0,0.0,0.0,-2.0433,0.0,-2.049,-2.0798,-1.9989,-1.9524,-2.0621,-1.9901,-2.0209,-2.3529,-2.4333,-2.4916,-2.6008,-2.648,-2.6754,-2.6754,-2.7103,-2.734,-2.734,-2.734,-2.7501,-2.7814,-2.7868,-2.7975,-2.8252,-2.8252,-2.8252,-2.8252,-2.8252,-2.8262,-2.8271,-2.8271,-2.8281,-2.8291,-2.8291,-2.8291,-2.8291,-2.8291,-2.8291,-2.8291,-2.8291,-2.89,-2.9922,-3.1062,-3.2336,-3.3549,-3.3598,-3.4409,-3.5572,-3.5872,-3.5968,-3.6063,-3.6323,-3.6405,-3.6405,-3.6405,-3.6405,-3.6405,-3.6405,-3.6405,-3.6405,-3.6405,-3.6405,-3.6405,-3.6405,-3.6405,-3.6405,-3.6405,-3.6405,-3.6452,-3.6675,-3.6675,-3.6862,-3.74,-3.7505,-3.7611,-3.7854,-3.79,-3.79,-3.79,-3.79,-3.79,-3.79,-3.79,-3.8226,-3.9077,-3.921,-3.9986,-4.1811,-4.199,-4.2415,-4.325,-4.329,-4.329,-4.329,-4.329,-4.329,-4.329,-4.329,-4.329,-4.329,-4.329,-4.329,-4.329,-4.329,-4.329,-1.6827,0.0,0.0,0.0,0.0,0.0,0.0,0.0,-2.0181,-2.0482,-1.9697,-1.9059,-1.9598,-1.8767,-1.8615,-2.0292,-2.2395,-2.4024,-2.4655,-2.5497,-2.6068,-2.6068,-2.5996,-2.6017,-2.6227,-2.6227,-2.6375,0.0,-2.6669,-2.6783,-2.7052,-2.726,-2.7373,-2.7373,-2.7373,-2.7519,-2.7832,-2.7894,-2.7988,-2.8291,-2.8291,-2.8291,-2.8291,-2.8291,-2.8291,-2.8291,-2.8291,-2.8441,-2.8804,-2.9932,-3.1051,-3.2235,-3.3239,-3.3845,-3.4299,-3.532,-3.5812,-3.6015,-3.6098,-3.6228,-3.6405,-3.6405,-3.6405,-3.6405,-3.6405,-3.6405,-3.6405,-3.6405,-3.6405,-3.6405,-3.6405,-3.6405,-3.6405,-3.6405,-3.6405,-3.6405,-3.6452,-3.6499,-3.6687,-3.7366,-3.7505,-3.7611,-3.7854,-3.79,-3.79,-3.79,-3.79,-3.79,-3.79,-3.79,-3.7979,-3.8226,-3.9445,-4.0418,-4.0944,-4.2181,-4.3036,-4.329,-4.329,-4.329,-4.329,-4.329,-4.329,-4.329,-4.329,-4.329,-4.329,-4.329,-4.329,-4.329,-4.329,-4.329,0.0,0.0,0.0,0.0,0.0,0.0,-1.8145,-1.8822,-1.9587,-2.043,-1.9715,-1.9008,-1.9191,-1.8715,-1.8454,-1.9124,-2.1028,-2.2535,-2.2763,-2.3514,-2.3991,-2.3991,-2.4402,-2.4761,-2.4918,-2.5362,-2.5735,-2.6036,-2.6036,-2.6182,-2.6593,-2.6756,-2.6858,-2.7012,-2.7012,-2.7139,-2.7393,-2.7393,-2.7519,-2.7764,-2.7939,-2.8027,-2.8037,-2.8213,-2.8291,-2.8291,-2.8291,-2.8291,-2.8344,-2.8953,-2.988,-3.0949,-3.1768,-3.2376,-3.2939,-3.425,-3.486,-3.5102,-3.5764,-3.6098,-3.6228,-3.6358,-3.6405,-3.6405,-3.6405,-3.6405,-3.6405,-3.6405,-3.6405,-3.6405,-3.6405,-3.6405,-3.6405,-3.6405,-3.6405,-3.6405,-3.6405,-3.6405,-3.6546,-3.7062,-3.7168,-3.7261,-3.7505,-3.7564,-3.7564,-3.7564,-3.7657,-3.7703,-3.7703,-3.7854,-3.79,-3.79,-3.8832,-3.9621,-3.9986,-4.0972,-4.174,-4.214,-4.2522,-4.2739,-4.2739,-4.313,-4.329,-4.329,-4.329,-4.329,-4.329,-4.329,-4.329,-4.329,-4.329,-4.329,0.0,0.0,0.0,0.0,-1.6052,0.0,-1.806,-1.8302,-1.8634,-2.0229,-1.9683,-1.8927,-1.9066,-1.9022,-1.8919,-1.8919,-1.9825,-2.0582,-2.0877,-2.1199,-2.1442,-2.1442,-2.2609,-2.3389,-2.3389,-2.4314,-2.5069,-2.5389,-2.5596,-2.5904,-2.6397,-2.6458,-2.6611,-2.6875,-2.6875,-2.6894,-2.6943,-2.6943,-2.6973,-2.7021,-2.7402,-2.7598,-2.766,-2.8027,-2.8223,-2.8223,-2.8271,-2.8291,-2.8291,-2.8291,-2.8847,-2.9713,-2.9869,-3.0546,-3.1575,-3.2889,-3.3499,-3.3796,-3.5259,-3.586,-3.6063,-3.6275,-3.6358,-3.6405,-3.6405,-3.6405,-3.6405,-3.6405,-3.6405,-3.6405,-3.6405,-3.6405,-3.6405,-3.6405,-3.6405,-3.6405,-3.6405,-3.6405,-3.6452,-3.6628,-3.6675,-3.6769,-3.7062,-3.7108,-3.7108,-3.7108,-3.7307,-3.7459,-3.7505,-3.7703,-3.7854,-3.79,-3.7992,-3.8349,-3.9121,-3.9285,-3.9724,-4.0546,-4.138,-4.1908,-4.199,-4.2739,-4.321,-4.329,-4.329,-4.329,-4.329,-4.329,-4.329,-4.329,-4.329,-4.329,0.0,0.0,0.0,0.0,-1.6052,0.0,-1.634,-1.6559,-1.7065,-1.8245,-1.7639,-1.7231,-1.8373,-1.7824,-1.717,-1.717,-1.7578,-1.8635,-2.0641,-2.0992,-2.1032,-2.1032,-2.125,-2.1444,-2.1444,-2.1658,-2.2171,-2.3054,-2.4322,-2.5128,-2.5227,-2.5632,-2.5888,-2.5937,-2.5937,-2.6152,-2.6504,-2.6514,-2.668,-2.7012,-2.71,-2.7139,-2.7158,-2.7588,-2.7836,-2.7865,-2.8144,-2.8291,-2.8291,-2.8291,-2.8398,-2.8708,-2.9565,-3.0026,-3.038,-3.1575,-3.2689,-3.3648,-3.3956,-3.4908,-3.6015,-3.6051,-3.6228,-3.6405,-3.6405,-3.6405,-3.6405,-3.6405,-3.6405,-3.6405,-3.6405,-3.6405,-3.6405,-3.6405,-3.6405,-3.6405,-3.6405,-3.6405,-3.6405,-3.6452,-3.6581,-3.6769,-3.7062,-3.7108,-3.7108,-3.7108,-3.7155,-3.7261,-3.7459,-3.7564,-3.7657,-3.7854,-3.8517,-3.9002,-3.921,-3.9899,-4.0375,-4.0603,-4.0774,-4.1212,-4.199,-4.2155,-4.2578,-4.329,-4.329,-4.329,-4.329,-4.329,-4.329,-4.329,-4.329,-4.329,0.0,0.0,-1.5818,-1.6012,-1.6052,0.0,0.0,-1.6273,-1.6508,-1.7183,-1.6874,-1.6731,-1.7414,-1.7541,-1.759,-1.7745,-1.7899,-1.8411,-1.9687,-1.9494,-1.9235,-1.9235,-1.9746,-2.0055,-2.0055,-2.1038,-2.2165,-2.3238,-2.4093,-2.4637,-2.4883,-2.5137,-2.544,-2.5684,-2.5693,-2.5791,-2.6064,-2.6064,-2.6172,-2.6327,-2.6602,-2.6699,-2.6719,-2.7148,-2.7461,-2.7728,-2.7891,-2.8096,-2.8291,-2.8291,-2.8291,-2.8344,-2.89,-2.9408,-3.0026,-3.1165,-3.2336,-3.3499,-3.4311,-3.5114,-3.586,-3.6098,-3.6275,-3.6405,-3.6405,-3.6405,-3.6405,-3.6405,-3.6405,-3.6405,-3.6405,-3.6405,-3.6405,-3.6405,-3.6405,-3.6405,-3.6405,-3.6405,-3.6405,-3.6405,-3.6499,-3.6581,-3.6734,-3.6734,-3.6734,-3.6734,-3.6828,-3.7015,-3.7261,-3.7413,-3.7598,-3.7854,-3.8272,-3.8549,-3.8549,-3.8997,-3.9251,-3.9251,-3.9664,-4.0332,-4.1254,-4.1728,-4.2415,-4.329,-4.329,-4.329,-4.329,-4.329,-4.329,-4.329,-4.329,-4.329,-1.5985,-1.5951,-1.6039,-1.6226,-1.6132,-1.6092,0.0,0.0,0.0,-1.65,0.0,0.0,0.0,0.0,0.0,-1.8188,0.0,0.0,0.0,-1.7788,0.0,-1.7548,-1.8314,-1.8864,-1.8864,-2.0672,-2.2367,-2.3488,-2.3786,-2.4192,-2.4784,-2.4883,-2.5137,-2.5586,-2.5635,-2.5645,-2.5693,-2.5693,-2.5693,-2.5693,-2.6094,-2.6269,-2.6279,-2.6699,-2.709,-2.7483,-2.765,-2.7861,-2.8174,-2.8262,-2.8291,-2.8291,-2.8291,-2.8804,-2.9723,-3.065,-3.1779,-3.3101,-3.436,-3.5163,-3.5668,-3.6133,-3.631,-3.6405,-3.6405,-3.6405,-3.6405,-3.6405,-3.6405,-3.6405,-3.6405,-3.6405,-3.6405,-3.6405,-3.6405,-3.6405,-3.6405,-3.6405,-3.6405,-3.6405,-3.6405,-3.6405,-3.6405,-3.6405,-3.6405,-3.6405,-3.6534,-3.6722,-3.7015,-3.7214,-3.7459,-3.7703,-3.7808,-3.7808,-3.7808,-3.7854,-3.79,-3.79,-3.8549,-3.9431,-4.0546,-4.1686,-4.2578,-4.329,-4.329,-4.329,-4.329,-4.329,-4.329,-4.329,-4.329,-4.329,-1.6533,-1.6607,-1.6553,-1.6333,-1.644,-1.6486,-1.6032,0.0,-1.6206,-1.5979,0.0,0.0,0.0,0.0,0.0,0.0,0.0,0.0,-1.6562,-1.672,-1.6901,-1.7219,-1.7578,-1.7786,-1.7786,-1.8871,-2.0055,-2.1191,-2.2391,-2.3511,-2.448,-2.4784,-2.5039,-2.5333,-2.5342,-2.544,-2.5693,-2.5693,-2.5693,-2.5693,-2.5732,-2.5762,-2.5781,-2.626,-2.6484,-2.6572,-2.7334,-2.7748,-2.7826,-2.8135,-2.8291,-2.8291,-2.8291,-2.8398,-2.8495,-2.8654,-2.9984,-3.183,-3.1982,-3.3598,-3.562,-3.5668,-3.5991,-3.6405,-3.6405,-3.6405,-3.6405,-3.6405,-3.6405,-3.6405,-3.6405,-3.6405,-3.6405,-3.6405,-3.6405,-3.6405,-3.6405,-3.6405,-3.6405,-3.6405,-3.6405,-3.6405,-3.6405,-3.6405,-3.6405,-3.6405,-3.6405,-3.6499,-3.6722,-3.6769,-3.6909,-3.7155,-3.74,-3.7564,-3.7564,-3.7749,-3.79,-3.79,-3.7979,-3.8832,-4.0518,-4.2222,-4.321,-4.329,-4.329,-4.329,-4.329,-4.329,-4.329,-4.329,-4.329,-4.329,-1.6627,-1.6707,-1.6673,-1.6553,-1.6486,-1.6393,-1.6146,-1.6052,-1.5979,-1.5804,0.0,0.0,0.0,0.0,0.0,0.0,-1.6192,0.0,0.0,0.0,-1.6814,-1.7166,0.0,0.0,-1.844,-1.8923,-1.9694,-2.0834,-2.2005,-2.2911,-2.3552,-2.4273,-2.4784,-2.5088,-2.5235,-2.5333,-2.5489,-2.5635,-2.5693,-2.5693,-2.5693,-2.5693,-2.5693,-2.5879,-2.6152,-2.6426,-2.7031,-2.7432,-2.7748,-2.8125,-2.8291,-2.8291,-2.8291,-2.8698,-2.9207,-2.9207,-3.065,-3.2538,-3.2689,-3.3906,-3.5428,-3.5716,-3.6003,-3.6193,-3.637,-3.6405,-3.6405,-3.6405,-3.6405,-3.6405,-3.6405,-3.6405,-3.6405,-3.6405,-3.6405,-3.6405,-3.6405,-3.6405,-3.6405,-3.6405,-3.6405,-3.6405,-3.6405,-3.6405,-3.6405,-3.6405,-3.6405,-3.6452,-3.6675,-3.6709,-3.6815,-3.7062,-3.7353,-3.7505,-3.7505,-3.7762,-3.79,-3.79,-3.8877,-3.9796,-4.0546,-4.2345,-4.329,-4.329,-4.329,-4.329,-4.329,-4.329,-4.329,-4.329,-4.329,-4.329,-1.6623,-1.6676,-1.6686,-1.6627,-1.6426,-1.6301,-1.6166,-1.6046,-1.5925,-1.5798,-1.5844,0.0,0.0,0.0,0.0,0.0,0.0,-1.6152,0.0,-1.64,0.0,0.0,0.0,0.0,0.0,-1.8767,-1.9228,-2.0364,-2.114,-2.1844,-2.2341,-2.3361,-2.4075,-2.4322,-2.4833,-2.5137,-2.5186,-2.544,-2.5586,-2.5586,-2.5635,-2.5693,-2.5693,-2.5693,-2.5908,-2.623,-2.666,-2.709,-2.7519,-2.7939,-2.8193,-2.8291,-2.8291,-2.8804,-2.946,-2.946,-3.0639,-3.2325,-3.2527,-3.3537,-3.486,-3.5307,-3.5704,-3.6063,-3.6228,-3.6323,-3.6405,-3.6405,-3.6405,-3.6405,-3.6405,-3.6405,-3.6405,-3.6405,-3.6405,-3.6405,-3.6405,-3.6405,-3.6405,-3.6405,-3.6405,-3.6405,-3.6405,-3.6405,-3.6405,-3.6405,-3.6405,-3.6452,-3.6581,-3.6628,-3.6675,-3.6875,-3.7108,-3.7307,-3.7366,-3.7657,-3.7808,-3.79,-3.937,-4.0202,-4.0202,-4.1713,-4.2699,-4.2955,-4.2955,-4.3036,-4.329,-4.329,-4.329,-4.329,-4.329,-4.329,-1.6626,-1.6678,-1.665,-1.6384,-1.6328,-1.6199,-1.5912,-1.6059,-1.6179,-1.5885,-1.6059,-1.6166,-1.5879,0.0,0.0,0.0,0.0,0.0,0.0,0.0,0.0,0.0,0.0,0.0,0.0,-1.7635,-1.8094,-1.9176,-1.928,-1.9797,-2.0877,-2.1962,-2.2669,-2.2944,-2.3967,-2.4627,-2.4932,-2.5186,-2.5333,-2.5333,-2.5586,-2.5693,-2.5693,-2.5693,-2.5693,-2.5732,-2.6221,-2.665,-2.707,-2.751,-2.793,-2.8291,-2.8291,-2.8291,-2.8344,-2.8344,-2.9059,-3.0026,-3.0026,-3.1604,-3.3697,-3.3993,-3.4945,-3.6015,-3.6015,-3.6193,-3.6405,-3.6405,-3.6405,-3.6405,-3.6405,-3.6405,-3.6405,-3.6405,-3.6405,-3.6405,-3.6405,-3.6405,-3.6405,-3.6405,-3.6405,-3.6405,-3.6405,-3.6405,-3.6405,-3.6405,-3.6405,-3.6405,-3.6405,-3.6405,-3.6405,-3.6405,-3.6581,-3.6815,-3.7108,-3.7366,-3.7611,-3.79,-3.876,-3.9241,-3.9241,-4.0159,-4.1113,-4.2032,-4.2032,-4.2456,-4.329,-4.329,-4.329,-4.329,-4.329,-4.329,-1.665,-1.6701,-1.6619,-1.6362,-1.6325,-1.6193,-1.5898,-1.6059,-1.6186,-1.5892,-1.6066,-1.6179,-1.5838,0.0,0.0,0.0,0.0,0.0,0.0,0.0,0.0,0.0,0.0,0.0,0.0,0.0,-1.7733,-1.8101,-1.8819,-1.9383,-1.9746,-2.0826,-2.1802,-2.261,-2.3161,-2.3809,-2.4637,-2.4883,-2.5137,-2.5284,-2.5382,-2.5538,-2.5693,-2.5693,-2.5693,-2.5713,-2.6201,-2.6465,-2.666,-2.7425,-2.7806,-2.791,-2.8184,-2.8291,-2.8291,-2.8291,-2.9006,-3.0026,-3.0753,-3.1564,-3.2336,-3.2577,-3.3438,-3.4446,-3.4605,-3.5247,-3.5908,-3.6098,-3.6146,-3.6193,-3.637,-3.6405,-3.6405,-3.6405,-3.6405,-3.6405,-3.6405,-3.6405,-3.6405,-3.6405,-3.6405,-3.6405,-3.6405,-3.6405,-3.6405,-3.6405,-3.6405,-3.6405,-3.6405,-3.6405,-3.6405,-3.6405,-3.6581,-3.6722,-3.6815,-3.7062,-3.7261,-3.7353,-3.8206,-3.872,-3.872,-3.9754,-4.0476,-4.0774,-4.0972,-4.1505,-4.2456,-4.2456,-4.2754,-4.329,-4.329,-4.329,-1.6361,-1.6432,-1.6377,-1.6183,-1.6168,-1.6095,-1.5857,-1.6073,-1.6199,-1.5908,-1.6091,-1.6197,-1.5868,0.0,0.0,0.0,0.0,0.0,0.0,-1.5884,0.0,0.0,0.0,0.0,0.0,-1.7529,-1.7582,-1.7582,-1.8251,-1.861,-1.861,-1.9694,-2.0621,-2.1285,-2.1887,-2.2702,-2.3777,-2.4066,-2.447,-2.503,-2.5186,-2.5382,-2.5538,-2.5635,-2.5693,-2.5703,-2.6035,-2.625,-2.6435,-2.7148,-2.7529,-2.7757,-2.8125,-2.8291,-2.8291,-2.8291,-2.8751,-2.9418,-3.0193,-3.0701,-3.1011,-3.1206,-3.2072,-3.3039,-3.3239,-3.3834,-3.4544,-3.515,-3.5356,-3.5548,-3.6133,-3.6323,-3.6405,-3.6405,-3.6405,-3.6405,-3.6405,-3.6405,-3.6405,-3.6405,-3.6405,-3.6405,-3.6405,-3.6405,-3.6405,-3.6405,-3.6405,-3.6405,-3.6405,-3.6405,-3.6405,-3.6405,-3.6546,-3.6628,-3.6675,-3.6968,-3.7108,-3.7108,-3.7684,-3.7978,-3.7978,-3.8707,-3.9316,-3.9711,-3.9913,-4.0475,-4.1505,-4.1852,-4.2293,-4.2835,-4.317,-4.329]}]]